<?xml version="1.0" encoding="UTF-8" standalone="no" ?>
<gpx xmlns="http://www.topografix.com/GPX/1/1" xmlns:xsi="http://www.w3.org/2001/XMLSchema-instance" xsi:schemaLocation="http://www.topografix.com/GPX/1/1 http://www.topografix.com/GPX/1/1/gpx.xsd" version="1.1" creator="VisuGPX - https://www.visugpx.com">
  <metadata>
    <name>St Jean Brévelay - St Aubin</name>
    <desc><![CDATA[boucle entre St Jean Brévelay et St Aubin avec un passage au joli bourg de Billio]]></desc>
  </metadata>
  <trk>
    <name><![CDATA[OR-6928901--Saint-Jean-Brévelay:St Jean Brévelay-St Aubin]]></name>
    <trkseg>
      <trkpt lat="47.84072" lon="-2.72444">
        <ele>135</ele>
        <time>2017-01-13T22:12:38Z</time>
      </trkpt>
      <trkpt lat="47.84074" lon="-2.72427">
        <ele>134</ele>
        <time>2017-01-13T22:14:38Z</time>
      </trkpt>
      <trkpt lat="47.84075" lon="-2.72409">
        <ele>133</ele>
        <time>2017-01-13T22:16:38Z</time>
      </trkpt>
      <trkpt lat="47.84072" lon="-2.72394">
        <ele>132</ele>
        <time>2017-01-13T22:18:38Z</time>
      </trkpt>
      <trkpt lat="47.84073" lon="-2.7238">
        <ele>131</ele>
        <time>2017-01-13T22:20:38Z</time>
      </trkpt>
      <trkpt lat="47.84077" lon="-2.72362">
        <ele>129</ele>
        <time>2017-01-13T22:22:38Z</time>
      </trkpt>
      <trkpt lat="47.84075" lon="-2.72343">
        <ele>128</ele>
        <time>2017-01-13T22:24:38Z</time>
      </trkpt>
      <trkpt lat="47.84075" lon="-2.72329">
        <ele>127</ele>
        <time>2017-01-13T22:26:38Z</time>
      </trkpt>
      <trkpt lat="47.84073" lon="-2.72314">
        <ele>126</ele>
        <time>2017-01-13T22:28:38Z</time>
      </trkpt>
      <trkpt lat="47.84075" lon="-2.72297">
        <ele>125</ele>
        <time>2017-01-13T22:30:38Z</time>
      </trkpt>
      <trkpt lat="47.84072" lon="-2.72258">
        <ele>122</ele>
        <time>2017-01-13T22:32:38Z</time>
      </trkpt>
      <trkpt lat="47.84072" lon="-2.72244">
        <ele>121</ele>
        <time>2017-01-13T22:34:38Z</time>
      </trkpt>
      <trkpt lat="47.84077" lon="-2.72233">
        <ele>121</ele>
        <time>2017-01-13T22:36:38Z</time>
      </trkpt>
      <trkpt lat="47.84085" lon="-2.72228">
        <ele>121</ele>
        <time>2017-01-13T22:38:38Z</time>
      </trkpt>
      <trkpt lat="47.84092" lon="-2.72229">
        <ele>120</ele>
        <time>2017-01-13T22:40:38Z</time>
      </trkpt>
      <trkpt lat="47.841" lon="-2.72232">
        <ele>120</ele>
        <time>2017-01-13T22:42:38Z</time>
      </trkpt>
      <trkpt lat="47.84111" lon="-2.72231">
        <ele>120</ele>
        <time>2017-01-13T22:44:38Z</time>
      </trkpt>
      <trkpt lat="47.84122" lon="-2.72229">
        <ele>119</ele>
        <time>2017-01-13T22:46:38Z</time>
      </trkpt>
      <trkpt lat="47.84129" lon="-2.72227">
        <ele>119</ele>
        <time>2017-01-13T22:48:38Z</time>
      </trkpt>
      <trkpt lat="47.84136" lon="-2.72224">
        <ele>119</ele>
        <time>2017-01-13T22:50:38Z</time>
      </trkpt>
      <trkpt lat="47.84143" lon="-2.72217">
        <ele>118</ele>
        <time>2017-01-13T22:52:38Z</time>
      </trkpt>
      <trkpt lat="47.84147" lon="-2.72209">
        <ele>118</ele>
        <time>2017-01-13T22:54:38Z</time>
      </trkpt>
      <trkpt lat="47.84147" lon="-2.72198">
        <ele>117</ele>
        <time>2017-01-13T22:56:38Z</time>
      </trkpt>
      <trkpt lat="47.84145" lon="-2.72187">
        <ele>117</ele>
        <time>2017-01-13T22:58:38Z</time>
      </trkpt>
      <trkpt lat="47.84145" lon="-2.72174">
        <ele>117</ele>
        <time>2017-01-13T23:00:38Z</time>
      </trkpt>
      <trkpt lat="47.84145" lon="-2.72164">
        <ele>116</ele>
        <time>2017-01-13T23:02:38Z</time>
      </trkpt>
      <trkpt lat="47.84147" lon="-2.72147">
        <ele>116</ele>
        <time>2017-01-13T23:04:38Z</time>
      </trkpt>
      <trkpt lat="47.84149" lon="-2.72129">
        <ele>116</ele>
        <time>2017-01-13T23:06:38Z</time>
      </trkpt>
      <trkpt lat="47.8415" lon="-2.72115">
        <ele>115</ele>
        <time>2017-01-13T23:08:38Z</time>
      </trkpt>
      <trkpt lat="47.84151" lon="-2.72102">
        <ele>115</ele>
        <time>2017-01-13T23:10:38Z</time>
      </trkpt>
      <trkpt lat="47.84154" lon="-2.72062">
        <ele>114</ele>
        <time>2017-01-13T23:12:38Z</time>
      </trkpt>
      <trkpt lat="47.84159" lon="-2.72039">
        <ele>114</ele>
        <time>2017-01-13T23:14:38Z</time>
      </trkpt>
      <trkpt lat="47.8416" lon="-2.72026">
        <ele>114</ele>
        <time>2017-01-13T23:16:38Z</time>
      </trkpt>
      <trkpt lat="47.84165" lon="-2.72013">
        <ele>113</ele>
        <time>2017-01-13T23:18:38Z</time>
      </trkpt>
      <trkpt lat="47.8417" lon="-2.72007">
        <ele>113</ele>
        <time>2017-01-13T23:20:38Z</time>
      </trkpt>
      <trkpt lat="47.84173" lon="-2.71993">
        <ele>113</ele>
        <time>2017-01-13T23:22:38Z</time>
      </trkpt>
      <trkpt lat="47.84178" lon="-2.71981">
        <ele>113</ele>
        <time>2017-01-13T23:24:38Z</time>
      </trkpt>
      <trkpt lat="47.84185" lon="-2.71972">
        <ele>114</ele>
        <time>2017-01-13T23:26:38Z</time>
      </trkpt>
      <trkpt lat="47.84193" lon="-2.71967">
        <ele>114</ele>
        <time>2017-01-13T23:28:38Z</time>
      </trkpt>
      <trkpt lat="47.84203" lon="-2.71966">
        <ele>115</ele>
        <time>2017-01-13T23:30:38Z</time>
      </trkpt>
      <trkpt lat="47.84223" lon="-2.71969">
        <ele>116</ele>
        <time>2017-01-13T23:32:38Z</time>
      </trkpt>
      <trkpt lat="47.84233" lon="-2.71969">
        <ele>117</ele>
        <time>2017-01-13T23:34:38Z</time>
      </trkpt>
      <trkpt lat="47.84239" lon="-2.71958">
        <ele>117</ele>
        <time>2017-01-13T23:36:38Z</time>
      </trkpt>
      <trkpt lat="47.8424" lon="-2.71945">
        <ele>117</ele>
        <time>2017-01-13T23:38:38Z</time>
      </trkpt>
      <trkpt lat="47.84242" lon="-2.71929">
        <ele>117</ele>
        <time>2017-01-13T23:40:38Z</time>
      </trkpt>
      <trkpt lat="47.84245" lon="-2.71913">
        <ele>118</ele>
        <time>2017-01-13T23:42:38Z</time>
      </trkpt>
      <trkpt lat="47.84247" lon="-2.71898">
        <ele>118</ele>
        <time>2017-01-13T23:44:38Z</time>
      </trkpt>
      <trkpt lat="47.84248" lon="-2.71884">
        <ele>118</ele>
        <time>2017-01-13T23:46:38Z</time>
      </trkpt>
      <trkpt lat="47.84247" lon="-2.71869">
        <ele>118</ele>
        <time>2017-01-13T23:48:38Z</time>
      </trkpt>
      <trkpt lat="47.84247" lon="-2.71857">
        <ele>118</ele>
        <time>2017-01-13T23:50:38Z</time>
      </trkpt>
      <trkpt lat="47.84244" lon="-2.71816">
        <ele>118</ele>
        <time>2017-01-13T23:52:38Z</time>
      </trkpt>
      <trkpt lat="47.84243" lon="-2.71802">
        <ele>118</ele>
        <time>2017-01-13T23:54:38Z</time>
      </trkpt>
      <trkpt lat="47.84243" lon="-2.71788">
        <ele>118</ele>
        <time>2017-01-13T23:56:38Z</time>
      </trkpt>
      <trkpt lat="47.84242" lon="-2.71759">
        <ele>119</ele>
        <time>2017-01-13T23:58:38Z</time>
      </trkpt>
      <trkpt lat="47.8424" lon="-2.71744">
        <ele>119</ele>
        <time>2017-01-14T00:00:38Z</time>
      </trkpt>
      <trkpt lat="47.84238" lon="-2.71729">
        <ele>119</ele>
        <time>2017-01-14T00:02:38Z</time>
      </trkpt>
      <trkpt lat="47.84235" lon="-2.71715">
        <ele>119</ele>
        <time>2017-01-14T00:04:38Z</time>
      </trkpt>
      <trkpt lat="47.84232" lon="-2.71699">
        <ele>119</ele>
        <time>2017-01-14T00:06:38Z</time>
      </trkpt>
      <trkpt lat="47.84227" lon="-2.71666">
        <ele>119</ele>
        <time>2017-01-14T00:08:38Z</time>
      </trkpt>
      <trkpt lat="47.84225" lon="-2.71652">
        <ele>119</ele>
        <time>2017-01-14T00:10:38Z</time>
      </trkpt>
      <trkpt lat="47.84224" lon="-2.71636">
        <ele>119</ele>
        <time>2017-01-14T00:12:38Z</time>
      </trkpt>
      <trkpt lat="47.84221" lon="-2.71606">
        <ele>119</ele>
        <time>2017-01-14T00:14:38Z</time>
      </trkpt>
      <trkpt lat="47.84219" lon="-2.71591">
        <ele>119</ele>
        <time>2017-01-14T00:16:38Z</time>
      </trkpt>
      <trkpt lat="47.84218" lon="-2.71576">
        <ele>119</ele>
        <time>2017-01-14T00:18:38Z</time>
      </trkpt>
      <trkpt lat="47.84216" lon="-2.71547">
        <ele>119</ele>
        <time>2017-01-14T00:20:38Z</time>
      </trkpt>
      <trkpt lat="47.84215" lon="-2.71534">
        <ele>119</ele>
        <time>2017-01-14T00:22:38Z</time>
      </trkpt>
      <trkpt lat="47.84215" lon="-2.71519">
        <ele>119</ele>
        <time>2017-01-14T00:24:38Z</time>
      </trkpt>
      <trkpt lat="47.84214" lon="-2.71504">
        <ele>119</ele>
        <time>2017-01-14T00:26:38Z</time>
      </trkpt>
      <trkpt lat="47.84214" lon="-2.71488">
        <ele>119</ele>
        <time>2017-01-14T00:28:38Z</time>
      </trkpt>
      <trkpt lat="47.84214" lon="-2.7146">
        <ele>120</ele>
        <time>2017-01-14T00:30:38Z</time>
      </trkpt>
      <trkpt lat="47.84214" lon="-2.71444">
        <ele>120</ele>
        <time>2017-01-14T00:32:38Z</time>
      </trkpt>
      <trkpt lat="47.84214" lon="-2.71431">
        <ele>120</ele>
        <time>2017-01-14T00:34:38Z</time>
      </trkpt>
      <trkpt lat="47.84214" lon="-2.71415">
        <ele>120</ele>
        <time>2017-01-14T00:36:38Z</time>
      </trkpt>
      <trkpt lat="47.84213" lon="-2.71401">
        <ele>120</ele>
        <time>2017-01-14T00:38:38Z</time>
      </trkpt>
      <trkpt lat="47.84213" lon="-2.71386">
        <ele>120</ele>
        <time>2017-01-14T00:40:38Z</time>
      </trkpt>
      <trkpt lat="47.84213" lon="-2.71372">
        <ele>120</ele>
        <time>2017-01-14T00:42:38Z</time>
      </trkpt>
      <trkpt lat="47.84213" lon="-2.71356">
        <ele>120</ele>
        <time>2017-01-14T00:44:38Z</time>
      </trkpt>
      <trkpt lat="47.84212" lon="-2.71327">
        <ele>119</ele>
        <time>2017-01-14T00:46:38Z</time>
      </trkpt>
      <trkpt lat="47.84213" lon="-2.71313">
        <ele>119</ele>
        <time>2017-01-14T00:48:38Z</time>
      </trkpt>
      <trkpt lat="47.84211" lon="-2.71285">
        <ele>119</ele>
        <time>2017-01-14T00:50:38Z</time>
      </trkpt>
      <trkpt lat="47.84208" lon="-2.71271">
        <ele>119</ele>
        <time>2017-01-14T00:52:38Z</time>
      </trkpt>
      <trkpt lat="47.84204" lon="-2.71257">
        <ele>119</ele>
        <time>2017-01-14T00:54:38Z</time>
      </trkpt>
      <trkpt lat="47.842" lon="-2.71245">
        <ele>119</ele>
        <time>2017-01-14T00:56:38Z</time>
      </trkpt>
      <trkpt lat="47.84195" lon="-2.71232">
        <ele>120</ele>
        <time>2017-01-14T00:58:38Z</time>
      </trkpt>
      <trkpt lat="47.84188" lon="-2.7122">
        <ele>120</ele>
        <time>2017-01-14T01:00:38Z</time>
      </trkpt>
      <trkpt lat="47.84181" lon="-2.7121">
        <ele>121</ele>
        <time>2017-01-14T01:02:38Z</time>
      </trkpt>
      <trkpt lat="47.84174" lon="-2.71198">
        <ele>121</ele>
        <time>2017-01-14T01:04:38Z</time>
      </trkpt>
      <trkpt lat="47.84168" lon="-2.71187">
        <ele>121</ele>
        <time>2017-01-14T01:06:38Z</time>
      </trkpt>
      <trkpt lat="47.84156" lon="-2.71164">
        <ele>122</ele>
        <time>2017-01-14T01:08:38Z</time>
      </trkpt>
      <trkpt lat="47.84151" lon="-2.71151">
        <ele>122</ele>
        <time>2017-01-14T01:10:38Z</time>
      </trkpt>
      <trkpt lat="47.84145" lon="-2.7114">
        <ele>122</ele>
        <time>2017-01-14T01:12:38Z</time>
      </trkpt>
      <trkpt lat="47.84137" lon="-2.7113">
        <ele>123</ele>
        <time>2017-01-14T01:14:38Z</time>
      </trkpt>
      <trkpt lat="47.84131" lon="-2.71119">
        <ele>123</ele>
        <time>2017-01-14T01:16:38Z</time>
      </trkpt>
      <trkpt lat="47.84125" lon="-2.71106">
        <ele>123</ele>
        <time>2017-01-14T01:18:38Z</time>
      </trkpt>
      <trkpt lat="47.84119" lon="-2.71095">
        <ele>124</ele>
        <time>2017-01-14T01:20:38Z</time>
      </trkpt>
      <trkpt lat="47.841" lon="-2.71054">
        <ele>125</ele>
        <time>2017-01-14T01:22:38Z</time>
      </trkpt>
      <trkpt lat="47.84094" lon="-2.71043">
        <ele>126</ele>
        <time>2017-01-14T01:24:38Z</time>
      </trkpt>
      <trkpt lat="47.84089" lon="-2.71031">
        <ele>127</ele>
        <time>2017-01-14T01:26:38Z</time>
      </trkpt>
      <trkpt lat="47.84078" lon="-2.71002">
        <ele>128</ele>
        <time>2017-01-14T01:28:38Z</time>
      </trkpt>
      <trkpt lat="47.84071" lon="-2.70985">
        <ele>128</ele>
        <time>2017-01-14T01:30:38Z</time>
      </trkpt>
      <trkpt lat="47.84065" lon="-2.70972">
        <ele>128</ele>
        <time>2017-01-14T01:32:38Z</time>
      </trkpt>
      <trkpt lat="47.8406" lon="-2.70955">
        <ele>128</ele>
        <time>2017-01-14T01:34:38Z</time>
      </trkpt>
      <trkpt lat="47.84053" lon="-2.70939">
        <ele>128</ele>
        <time>2017-01-14T01:36:38Z</time>
      </trkpt>
      <trkpt lat="47.84048" lon="-2.70923">
        <ele>128</ele>
        <time>2017-01-14T01:38:38Z</time>
      </trkpt>
      <trkpt lat="47.84044" lon="-2.7091">
        <ele>128</ele>
        <time>2017-01-14T01:40:38Z</time>
      </trkpt>
      <trkpt lat="47.84037" lon="-2.70895">
        <ele>128</ele>
        <time>2017-01-14T01:42:38Z</time>
      </trkpt>
      <trkpt lat="47.84032" lon="-2.70882">
        <ele>128</ele>
        <time>2017-01-14T01:44:38Z</time>
      </trkpt>
      <trkpt lat="47.8403" lon="-2.70866">
        <ele>128</ele>
        <time>2017-01-14T01:46:38Z</time>
      </trkpt>
      <trkpt lat="47.84035" lon="-2.70856">
        <ele>127</ele>
        <time>2017-01-14T01:48:38Z</time>
      </trkpt>
      <trkpt lat="47.84036" lon="-2.70841">
        <ele>127</ele>
        <time>2017-01-14T01:50:38Z</time>
      </trkpt>
      <trkpt lat="47.84038" lon="-2.70829">
        <ele>127</ele>
        <time>2017-01-14T01:52:38Z</time>
      </trkpt>
      <trkpt lat="47.8404" lon="-2.70814">
        <ele>126</ele>
        <time>2017-01-14T01:54:38Z</time>
      </trkpt>
      <trkpt lat="47.84041" lon="-2.70801">
        <ele>126</ele>
        <time>2017-01-14T01:56:38Z</time>
      </trkpt>
      <trkpt lat="47.84043" lon="-2.70786">
        <ele>126</ele>
        <time>2017-01-14T01:58:38Z</time>
      </trkpt>
      <trkpt lat="47.84045" lon="-2.70772">
        <ele>126</ele>
        <time>2017-01-14T02:00:38Z</time>
      </trkpt>
      <trkpt lat="47.84046" lon="-2.70759">
        <ele>125</ele>
        <time>2017-01-14T02:02:38Z</time>
      </trkpt>
      <trkpt lat="47.84048" lon="-2.70746">
        <ele>125</ele>
        <time>2017-01-14T02:04:38Z</time>
      </trkpt>
      <trkpt lat="47.84049" lon="-2.70731">
        <ele>125</ele>
        <time>2017-01-14T02:06:38Z</time>
      </trkpt>
      <trkpt lat="47.8405" lon="-2.70717">
        <ele>124</ele>
        <time>2017-01-14T02:08:38Z</time>
      </trkpt>
      <trkpt lat="47.84052" lon="-2.70704">
        <ele>124</ele>
        <time>2017-01-14T02:10:38Z</time>
      </trkpt>
      <trkpt lat="47.8406" lon="-2.70698">
        <ele>124</ele>
        <time>2017-01-14T02:12:38Z</time>
      </trkpt>
      <trkpt lat="47.84084" lon="-2.70707">
        <ele>122</ele>
        <time>2017-01-14T02:14:38Z</time>
      </trkpt>
      <trkpt lat="47.84093" lon="-2.7071">
        <ele>122</ele>
        <time>2017-01-14T02:16:38Z</time>
      </trkpt>
      <trkpt lat="47.84103" lon="-2.70715">
        <ele>122</ele>
        <time>2017-01-14T02:18:38Z</time>
      </trkpt>
      <trkpt lat="47.84113" lon="-2.70719">
        <ele>122</ele>
        <time>2017-01-14T02:20:38Z</time>
      </trkpt>
      <trkpt lat="47.84126" lon="-2.70726">
        <ele>122</ele>
        <time>2017-01-14T02:22:38Z</time>
      </trkpt>
      <trkpt lat="47.84138" lon="-2.70728">
        <ele>122</ele>
        <time>2017-01-14T02:24:38Z</time>
      </trkpt>
      <trkpt lat="47.84149" lon="-2.70731">
        <ele>122</ele>
        <time>2017-01-14T02:26:38Z</time>
      </trkpt>
      <trkpt lat="47.84161" lon="-2.70733">
        <ele>121</ele>
        <time>2017-01-14T02:28:38Z</time>
      </trkpt>
      <trkpt lat="47.84173" lon="-2.70736">
        <ele>121</ele>
        <time>2017-01-14T02:30:38Z</time>
      </trkpt>
      <trkpt lat="47.84185" lon="-2.70739">
        <ele>121</ele>
        <time>2017-01-14T02:32:38Z</time>
      </trkpt>
      <trkpt lat="47.84198" lon="-2.7074">
        <ele>120</ele>
        <time>2017-01-14T02:34:38Z</time>
      </trkpt>
      <trkpt lat="47.84222" lon="-2.70744">
        <ele>119</ele>
        <time>2017-01-14T02:36:38Z</time>
      </trkpt>
      <trkpt lat="47.84232" lon="-2.70748">
        <ele>119</ele>
        <time>2017-01-14T02:38:38Z</time>
      </trkpt>
      <trkpt lat="47.84244" lon="-2.70751">
        <ele>118</ele>
        <time>2017-01-14T02:40:38Z</time>
      </trkpt>
      <trkpt lat="47.84256" lon="-2.70755">
        <ele>118</ele>
        <time>2017-01-14T02:42:38Z</time>
      </trkpt>
      <trkpt lat="47.84281" lon="-2.70761">
        <ele>117</ele>
        <time>2017-01-14T02:44:38Z</time>
      </trkpt>
      <trkpt lat="47.84292" lon="-2.70765">
        <ele>117</ele>
        <time>2017-01-14T02:46:38Z</time>
      </trkpt>
      <trkpt lat="47.84303" lon="-2.70768">
        <ele>117</ele>
        <time>2017-01-14T02:48:38Z</time>
      </trkpt>
      <trkpt lat="47.84314" lon="-2.70771">
        <ele>117</ele>
        <time>2017-01-14T02:50:38Z</time>
      </trkpt>
      <trkpt lat="47.84324" lon="-2.70771">
        <ele>116</ele>
        <time>2017-01-14T02:52:38Z</time>
      </trkpt>
      <trkpt lat="47.84344" lon="-2.70776">
        <ele>117</ele>
        <time>2017-01-14T02:54:38Z</time>
      </trkpt>
      <trkpt lat="47.84354" lon="-2.70777">
        <ele>117</ele>
        <time>2017-01-14T02:56:38Z</time>
      </trkpt>
      <trkpt lat="47.84363" lon="-2.7078">
        <ele>117</ele>
        <time>2017-01-14T02:58:38Z</time>
      </trkpt>
      <trkpt lat="47.84374" lon="-2.70782">
        <ele>118</ele>
        <time>2017-01-14T03:00:38Z</time>
      </trkpt>
      <trkpt lat="47.84395" lon="-2.70787">
        <ele>119</ele>
        <time>2017-01-14T03:02:38Z</time>
      </trkpt>
      <trkpt lat="47.84404" lon="-2.70789">
        <ele>119</ele>
        <time>2017-01-14T03:04:38Z</time>
      </trkpt>
      <trkpt lat="47.84415" lon="-2.70792">
        <ele>119</ele>
        <time>2017-01-14T03:06:38Z</time>
      </trkpt>
      <trkpt lat="47.84426" lon="-2.70794">
        <ele>119</ele>
        <time>2017-01-14T03:08:38Z</time>
      </trkpt>
      <trkpt lat="47.84436" lon="-2.70796">
        <ele>119</ele>
        <time>2017-01-14T03:10:38Z</time>
      </trkpt>
      <trkpt lat="47.84446" lon="-2.708">
        <ele>119</ele>
        <time>2017-01-14T03:12:38Z</time>
      </trkpt>
      <trkpt lat="47.84457" lon="-2.70803">
        <ele>119</ele>
        <time>2017-01-14T03:14:38Z</time>
      </trkpt>
      <trkpt lat="47.84468" lon="-2.70809">
        <ele>119</ele>
        <time>2017-01-14T03:16:38Z</time>
      </trkpt>
      <trkpt lat="47.8448" lon="-2.70813">
        <ele>119</ele>
        <time>2017-01-14T03:18:38Z</time>
      </trkpt>
      <trkpt lat="47.84491" lon="-2.70815">
        <ele>119</ele>
        <time>2017-01-14T03:20:38Z</time>
      </trkpt>
      <trkpt lat="47.84503" lon="-2.70816">
        <ele>119</ele>
        <time>2017-01-14T03:22:38Z</time>
      </trkpt>
      <trkpt lat="47.84516" lon="-2.70818">
        <ele>118</ele>
        <time>2017-01-14T03:24:38Z</time>
      </trkpt>
      <trkpt lat="47.84528" lon="-2.70822">
        <ele>118</ele>
        <time>2017-01-14T03:26:38Z</time>
      </trkpt>
      <trkpt lat="47.84539" lon="-2.70826">
        <ele>118</ele>
        <time>2017-01-14T03:28:38Z</time>
      </trkpt>
      <trkpt lat="47.84559" lon="-2.70831">
        <ele>118</ele>
        <time>2017-01-14T03:30:38Z</time>
      </trkpt>
      <trkpt lat="47.8457" lon="-2.70827">
        <ele>117</ele>
        <time>2017-01-14T03:32:38Z</time>
      </trkpt>
      <trkpt lat="47.8458" lon="-2.70822">
        <ele>117</ele>
        <time>2017-01-14T03:34:38Z</time>
      </trkpt>
      <trkpt lat="47.84589" lon="-2.70822">
        <ele>117</ele>
        <time>2017-01-14T03:36:38Z</time>
      </trkpt>
      <trkpt lat="47.846" lon="-2.7082">
        <ele>116</ele>
        <time>2017-01-14T03:38:38Z</time>
      </trkpt>
      <trkpt lat="47.8462" lon="-2.70818">
        <ele>116</ele>
        <time>2017-01-14T03:40:38Z</time>
      </trkpt>
      <trkpt lat="47.8463" lon="-2.70818">
        <ele>115</ele>
        <time>2017-01-14T03:42:38Z</time>
      </trkpt>
      <trkpt lat="47.8464" lon="-2.70816">
        <ele>115</ele>
        <time>2017-01-14T03:44:38Z</time>
      </trkpt>
      <trkpt lat="47.84651" lon="-2.70816">
        <ele>115</ele>
        <time>2017-01-14T03:46:38Z</time>
      </trkpt>
      <trkpt lat="47.8466" lon="-2.70814">
        <ele>114</ele>
        <time>2017-01-14T03:48:38Z</time>
      </trkpt>
      <trkpt lat="47.84701" lon="-2.70804">
        <ele>114</ele>
        <time>2017-01-14T03:50:38Z</time>
      </trkpt>
      <trkpt lat="47.84711" lon="-2.70803">
        <ele>113</ele>
        <time>2017-01-14T03:52:38Z</time>
      </trkpt>
      <trkpt lat="47.84732" lon="-2.708">
        <ele>113</ele>
        <time>2017-01-14T03:54:38Z</time>
      </trkpt>
      <trkpt lat="47.84742" lon="-2.708">
        <ele>113</ele>
        <time>2017-01-14T03:56:38Z</time>
      </trkpt>
      <trkpt lat="47.84751" lon="-2.708">
        <ele>112</ele>
        <time>2017-01-14T03:58:38Z</time>
      </trkpt>
      <trkpt lat="47.84758" lon="-2.70789">
        <ele>112</ele>
        <time>2017-01-14T04:00:38Z</time>
      </trkpt>
      <trkpt lat="47.84762" lon="-2.70774">
        <ele>112</ele>
        <time>2017-01-14T04:02:38Z</time>
      </trkpt>
      <trkpt lat="47.84762" lon="-2.70758">
        <ele>112</ele>
        <time>2017-01-14T04:04:38Z</time>
      </trkpt>
      <trkpt lat="47.84771" lon="-2.707">
        <ele>111</ele>
        <time>2017-01-14T04:06:38Z</time>
      </trkpt>
      <trkpt lat="47.84774" lon="-2.70685">
        <ele>111</ele>
        <time>2017-01-14T04:08:38Z</time>
      </trkpt>
      <trkpt lat="47.84776" lon="-2.70672">
        <ele>110</ele>
        <time>2017-01-14T04:10:38Z</time>
      </trkpt>
      <trkpt lat="47.84777" lon="-2.70658">
        <ele>110</ele>
        <time>2017-01-14T04:12:38Z</time>
      </trkpt>
      <trkpt lat="47.84779" lon="-2.70645">
        <ele>110</ele>
        <time>2017-01-14T04:14:38Z</time>
      </trkpt>
      <trkpt lat="47.8478" lon="-2.70632">
        <ele>110</ele>
        <time>2017-01-14T04:16:38Z</time>
      </trkpt>
      <trkpt lat="47.84782" lon="-2.70617">
        <ele>109</ele>
        <time>2017-01-14T04:18:38Z</time>
      </trkpt>
      <trkpt lat="47.84783" lon="-2.70604">
        <ele>109</ele>
        <time>2017-01-14T04:20:38Z</time>
      </trkpt>
      <trkpt lat="47.84784" lon="-2.70589">
        <ele>109</ele>
        <time>2017-01-14T04:22:38Z</time>
      </trkpt>
      <trkpt lat="47.84785" lon="-2.70573">
        <ele>108</ele>
        <time>2017-01-14T04:24:38Z</time>
      </trkpt>
      <trkpt lat="47.84787" lon="-2.70557">
        <ele>108</ele>
        <time>2017-01-14T04:26:38Z</time>
      </trkpt>
      <trkpt lat="47.84788" lon="-2.70543">
        <ele>108</ele>
        <time>2017-01-14T04:28:38Z</time>
      </trkpt>
      <trkpt lat="47.84789" lon="-2.70529">
        <ele>107</ele>
        <time>2017-01-14T04:30:38Z</time>
      </trkpt>
      <trkpt lat="47.84791" lon="-2.70517">
        <ele>107</ele>
        <time>2017-01-14T04:32:38Z</time>
      </trkpt>
      <trkpt lat="47.84792" lon="-2.70503">
        <ele>107</ele>
        <time>2017-01-14T04:34:38Z</time>
      </trkpt>
      <trkpt lat="47.84792" lon="-2.70489">
        <ele>106</ele>
        <time>2017-01-14T04:36:38Z</time>
      </trkpt>
      <trkpt lat="47.84795" lon="-2.70444">
        <ele>103</ele>
        <time>2017-01-14T04:38:38Z</time>
      </trkpt>
      <trkpt lat="47.8479" lon="-2.70433">
        <ele>102</ele>
        <time>2017-01-14T04:40:38Z</time>
      </trkpt>
      <trkpt lat="47.84779" lon="-2.70429">
        <ele>102</ele>
        <time>2017-01-14T04:42:38Z</time>
      </trkpt>
      <trkpt lat="47.84758" lon="-2.70423">
        <ele>102</ele>
        <time>2017-01-14T04:44:38Z</time>
      </trkpt>
      <trkpt lat="47.84749" lon="-2.70421">
        <ele>102</ele>
        <time>2017-01-14T04:46:38Z</time>
      </trkpt>
      <trkpt lat="47.84739" lon="-2.70418">
        <ele>102</ele>
        <time>2017-01-14T04:48:38Z</time>
      </trkpt>
      <trkpt lat="47.84728" lon="-2.70417">
        <ele>103</ele>
        <time>2017-01-14T04:50:38Z</time>
      </trkpt>
      <trkpt lat="47.84718" lon="-2.70414">
        <ele>103</ele>
        <time>2017-01-14T04:52:38Z</time>
      </trkpt>
      <trkpt lat="47.84711" lon="-2.70405">
        <ele>102</ele>
        <time>2017-01-14T04:54:38Z</time>
      </trkpt>
      <trkpt lat="47.84712" lon="-2.70391">
        <ele>102</ele>
        <time>2017-01-14T04:56:38Z</time>
      </trkpt>
      <trkpt lat="47.84714" lon="-2.70375">
        <ele>101</ele>
        <time>2017-01-14T04:58:38Z</time>
      </trkpt>
      <trkpt lat="47.84717" lon="-2.70362">
        <ele>101</ele>
        <time>2017-01-14T05:00:38Z</time>
      </trkpt>
      <trkpt lat="47.84721" lon="-2.7035">
        <ele>100</ele>
        <time>2017-01-14T05:02:38Z</time>
      </trkpt>
      <trkpt lat="47.84725" lon="-2.70337">
        <ele>99</ele>
        <time>2017-01-14T05:04:38Z</time>
      </trkpt>
      <trkpt lat="47.84728" lon="-2.70322">
        <ele>99</ele>
        <time>2017-01-14T05:06:38Z</time>
      </trkpt>
      <trkpt lat="47.84732" lon="-2.70309">
        <ele>99</ele>
        <time>2017-01-14T05:08:38Z</time>
      </trkpt>
      <trkpt lat="47.84737" lon="-2.70282">
        <ele>98</ele>
        <time>2017-01-14T05:10:38Z</time>
      </trkpt>
      <trkpt lat="47.84743" lon="-2.70254">
        <ele>98</ele>
        <time>2017-01-14T05:12:38Z</time>
      </trkpt>
      <trkpt lat="47.84754" lon="-2.70227">
        <ele>99</ele>
        <time>2017-01-14T05:14:38Z</time>
      </trkpt>
      <trkpt lat="47.84764" lon="-2.70199">
        <ele>100</ele>
        <time>2017-01-14T05:16:38Z</time>
      </trkpt>
      <trkpt lat="47.84768" lon="-2.70183">
        <ele>100</ele>
        <time>2017-01-14T05:18:38Z</time>
      </trkpt>
      <trkpt lat="47.84771" lon="-2.70169">
        <ele>101</ele>
        <time>2017-01-14T05:20:38Z</time>
      </trkpt>
      <trkpt lat="47.84773" lon="-2.70154">
        <ele>101</ele>
        <time>2017-01-14T05:22:38Z</time>
      </trkpt>
      <trkpt lat="47.84777" lon="-2.70142">
        <ele>101</ele>
        <time>2017-01-14T05:24:38Z</time>
      </trkpt>
      <trkpt lat="47.84781" lon="-2.70127">
        <ele>102</ele>
        <time>2017-01-14T05:26:38Z</time>
      </trkpt>
      <trkpt lat="47.84784" lon="-2.70115">
        <ele>102</ele>
        <time>2017-01-14T05:28:38Z</time>
      </trkpt>
      <trkpt lat="47.84787" lon="-2.70086">
        <ele>103</ele>
        <time>2017-01-14T05:30:38Z</time>
      </trkpt>
      <trkpt lat="47.8479" lon="-2.7007">
        <ele>103</ele>
        <time>2017-01-14T05:32:38Z</time>
      </trkpt>
      <trkpt lat="47.84796" lon="-2.70062">
        <ele>103</ele>
        <time>2017-01-14T05:34:38Z</time>
      </trkpt>
      <trkpt lat="47.84806" lon="-2.70066">
        <ele>104</ele>
        <time>2017-01-14T05:36:38Z</time>
      </trkpt>
      <trkpt lat="47.84815" lon="-2.70072">
        <ele>104</ele>
        <time>2017-01-14T05:38:38Z</time>
      </trkpt>
      <trkpt lat="47.84823" lon="-2.70078">
        <ele>104</ele>
        <time>2017-01-14T05:40:38Z</time>
      </trkpt>
      <trkpt lat="47.84832" lon="-2.70083">
        <ele>104</ele>
        <time>2017-01-14T05:42:38Z</time>
      </trkpt>
      <trkpt lat="47.8484" lon="-2.7009">
        <ele>104</ele>
        <time>2017-01-14T05:44:38Z</time>
      </trkpt>
      <trkpt lat="47.84845" lon="-2.70102">
        <ele>104</ele>
        <time>2017-01-14T05:46:38Z</time>
      </trkpt>
      <trkpt lat="47.84844" lon="-2.70118">
        <ele>104</ele>
        <time>2017-01-14T05:48:38Z</time>
      </trkpt>
      <trkpt lat="47.84844" lon="-2.70132">
        <ele>104</ele>
        <time>2017-01-14T05:50:38Z</time>
      </trkpt>
      <trkpt lat="47.84844" lon="-2.70145">
        <ele>104</ele>
        <time>2017-01-14T05:52:38Z</time>
      </trkpt>
      <trkpt lat="47.84851" lon="-2.70157">
        <ele>104</ele>
        <time>2017-01-14T05:54:38Z</time>
      </trkpt>
      <trkpt lat="47.84857" lon="-2.70169">
        <ele>104</ele>
        <time>2017-01-14T05:56:38Z</time>
      </trkpt>
      <trkpt lat="47.84865" lon="-2.70179">
        <ele>104</ele>
        <time>2017-01-14T05:58:38Z</time>
      </trkpt>
      <trkpt lat="47.84874" lon="-2.70187">
        <ele>104</ele>
        <time>2017-01-14T06:00:38Z</time>
      </trkpt>
      <trkpt lat="47.84883" lon="-2.70186">
        <ele>104</ele>
        <time>2017-01-14T06:02:38Z</time>
      </trkpt>
      <trkpt lat="47.84891" lon="-2.70178">
        <ele>105</ele>
        <time>2017-01-14T06:04:38Z</time>
      </trkpt>
      <trkpt lat="47.84899" lon="-2.70168">
        <ele>105</ele>
        <time>2017-01-14T06:06:38Z</time>
      </trkpt>
      <trkpt lat="47.84907" lon="-2.70161">
        <ele>106</ele>
        <time>2017-01-14T06:08:38Z</time>
      </trkpt>
      <trkpt lat="47.84915" lon="-2.70154">
        <ele>106</ele>
        <time>2017-01-14T06:10:38Z</time>
      </trkpt>
      <trkpt lat="47.84925" lon="-2.70151">
        <ele>106</ele>
        <time>2017-01-14T06:12:38Z</time>
      </trkpt>
      <trkpt lat="47.84934" lon="-2.70153">
        <ele>106</ele>
        <time>2017-01-14T06:14:38Z</time>
      </trkpt>
      <trkpt lat="47.84944" lon="-2.70158">
        <ele>106</ele>
        <time>2017-01-14T06:16:38Z</time>
      </trkpt>
      <trkpt lat="47.84962" lon="-2.7017">
        <ele>106</ele>
        <time>2017-01-14T06:18:38Z</time>
      </trkpt>
      <trkpt lat="47.84972" lon="-2.70174">
        <ele>106</ele>
        <time>2017-01-14T06:20:38Z</time>
      </trkpt>
      <trkpt lat="47.84982" lon="-2.70179">
        <ele>106</ele>
        <time>2017-01-14T06:22:38Z</time>
      </trkpt>
      <trkpt lat="47.84991" lon="-2.70185">
        <ele>106</ele>
        <time>2017-01-14T06:24:38Z</time>
      </trkpt>
      <trkpt lat="47.85001" lon="-2.70189">
        <ele>106</ele>
        <time>2017-01-14T06:26:38Z</time>
      </trkpt>
      <trkpt lat="47.8501" lon="-2.70194">
        <ele>106</ele>
        <time>2017-01-14T06:28:38Z</time>
      </trkpt>
      <trkpt lat="47.85019" lon="-2.702">
        <ele>105</ele>
        <time>2017-01-14T06:30:38Z</time>
      </trkpt>
      <trkpt lat="47.85047" lon="-2.70215">
        <ele>102</ele>
        <time>2017-01-14T06:32:38Z</time>
      </trkpt>
      <trkpt lat="47.85056" lon="-2.70227">
        <ele>102</ele>
        <time>2017-01-14T06:34:38Z</time>
      </trkpt>
      <trkpt lat="47.85066" lon="-2.70232">
        <ele>101</ele>
        <time>2017-01-14T06:36:38Z</time>
      </trkpt>
      <trkpt lat="47.85076" lon="-2.7024">
        <ele>100</ele>
        <time>2017-01-14T06:38:38Z</time>
      </trkpt>
      <trkpt lat="47.85087" lon="-2.70246">
        <ele>99</ele>
        <time>2017-01-14T06:40:38Z</time>
      </trkpt>
      <trkpt lat="47.85099" lon="-2.70245">
        <ele>97</ele>
        <time>2017-01-14T06:42:38Z</time>
      </trkpt>
      <trkpt lat="47.8511" lon="-2.70237">
        <ele>96</ele>
        <time>2017-01-14T06:44:38Z</time>
      </trkpt>
      <trkpt lat="47.85119" lon="-2.70228">
        <ele>95</ele>
        <time>2017-01-14T06:46:38Z</time>
      </trkpt>
      <trkpt lat="47.85128" lon="-2.70218">
        <ele>94</ele>
        <time>2017-01-14T06:48:38Z</time>
      </trkpt>
      <trkpt lat="47.85136" lon="-2.7021">
        <ele>94</ele>
        <time>2017-01-14T06:50:38Z</time>
      </trkpt>
      <trkpt lat="47.85144" lon="-2.702">
        <ele>93</ele>
        <time>2017-01-14T06:52:38Z</time>
      </trkpt>
      <trkpt lat="47.85152" lon="-2.70193">
        <ele>92</ele>
        <time>2017-01-14T06:54:38Z</time>
      </trkpt>
      <trkpt lat="47.8516" lon="-2.70183">
        <ele>91</ele>
        <time>2017-01-14T06:56:38Z</time>
      </trkpt>
      <trkpt lat="47.85168" lon="-2.70173">
        <ele>91</ele>
        <time>2017-01-14T06:58:38Z</time>
      </trkpt>
      <trkpt lat="47.85177" lon="-2.70163">
        <ele>91</ele>
        <time>2017-01-14T07:00:38Z</time>
      </trkpt>
      <trkpt lat="47.85187" lon="-2.70155">
        <ele>91</ele>
        <time>2017-01-14T07:02:38Z</time>
      </trkpt>
      <trkpt lat="47.85195" lon="-2.70145">
        <ele>92</ele>
        <time>2017-01-14T07:04:38Z</time>
      </trkpt>
      <trkpt lat="47.85213" lon="-2.70128">
        <ele>92</ele>
        <time>2017-01-14T07:06:38Z</time>
      </trkpt>
      <trkpt lat="47.8522" lon="-2.70122">
        <ele>92</ele>
        <time>2017-01-14T07:08:38Z</time>
      </trkpt>
      <trkpt lat="47.85229" lon="-2.70113">
        <ele>92</ele>
        <time>2017-01-14T07:10:38Z</time>
      </trkpt>
      <trkpt lat="47.85239" lon="-2.70103">
        <ele>92</ele>
        <time>2017-01-14T07:12:38Z</time>
      </trkpt>
      <trkpt lat="47.85249" lon="-2.70093">
        <ele>92</ele>
        <time>2017-01-14T07:14:38Z</time>
      </trkpt>
      <trkpt lat="47.85259" lon="-2.70083">
        <ele>92</ele>
        <time>2017-01-14T07:16:38Z</time>
      </trkpt>
      <trkpt lat="47.85265" lon="-2.7007">
        <ele>92</ele>
        <time>2017-01-14T07:18:38Z</time>
      </trkpt>
      <trkpt lat="47.85269" lon="-2.70054">
        <ele>92</ele>
        <time>2017-01-14T07:20:38Z</time>
      </trkpt>
      <trkpt lat="47.85274" lon="-2.70039">
        <ele>92</ele>
        <time>2017-01-14T07:22:38Z</time>
      </trkpt>
      <trkpt lat="47.85278" lon="-2.70028">
        <ele>92</ele>
        <time>2017-01-14T07:24:38Z</time>
      </trkpt>
      <trkpt lat="47.85285" lon="-2.70015">
        <ele>92</ele>
        <time>2017-01-14T07:26:38Z</time>
      </trkpt>
      <trkpt lat="47.85289" lon="-2.70003">
        <ele>93</ele>
        <time>2017-01-14T07:28:38Z</time>
      </trkpt>
      <trkpt lat="47.85293" lon="-2.69992">
        <ele>93</ele>
        <time>2017-01-14T07:30:38Z</time>
      </trkpt>
      <trkpt lat="47.85299" lon="-2.69981">
        <ele>93</ele>
        <time>2017-01-14T07:32:38Z</time>
      </trkpt>
      <trkpt lat="47.85304" lon="-2.69967">
        <ele>93</ele>
        <time>2017-01-14T07:34:38Z</time>
      </trkpt>
      <trkpt lat="47.85316" lon="-2.69941">
        <ele>93</ele>
        <time>2017-01-14T07:36:38Z</time>
      </trkpt>
      <trkpt lat="47.85324" lon="-2.69916">
        <ele>93</ele>
        <time>2017-01-14T07:38:38Z</time>
      </trkpt>
      <trkpt lat="47.85329" lon="-2.69904">
        <ele>94</ele>
        <time>2017-01-14T07:40:38Z</time>
      </trkpt>
      <trkpt lat="47.85334" lon="-2.69891">
        <ele>94</ele>
        <time>2017-01-14T07:42:38Z</time>
      </trkpt>
      <trkpt lat="47.8534" lon="-2.69878">
        <ele>94</ele>
        <time>2017-01-14T07:44:38Z</time>
      </trkpt>
      <trkpt lat="47.85345" lon="-2.69864">
        <ele>94</ele>
        <time>2017-01-14T07:46:38Z</time>
      </trkpt>
      <trkpt lat="47.85351" lon="-2.69851">
        <ele>94</ele>
        <time>2017-01-14T07:48:38Z</time>
      </trkpt>
      <trkpt lat="47.85355" lon="-2.69838">
        <ele>94</ele>
        <time>2017-01-14T07:50:38Z</time>
      </trkpt>
      <trkpt lat="47.85365" lon="-2.6981">
        <ele>94</ele>
        <time>2017-01-14T07:52:38Z</time>
      </trkpt>
      <trkpt lat="47.85377" lon="-2.69784">
        <ele>95</ele>
        <time>2017-01-14T07:54:38Z</time>
      </trkpt>
      <trkpt lat="47.85382" lon="-2.6977">
        <ele>95</ele>
        <time>2017-01-14T07:56:38Z</time>
      </trkpt>
      <trkpt lat="47.85387" lon="-2.69756">
        <ele>96</ele>
        <time>2017-01-14T07:58:38Z</time>
      </trkpt>
      <trkpt lat="47.85394" lon="-2.69743">
        <ele>96</ele>
        <time>2017-01-14T08:00:38Z</time>
      </trkpt>
      <trkpt lat="47.85399" lon="-2.6973">
        <ele>96</ele>
        <time>2017-01-14T08:02:38Z</time>
      </trkpt>
      <trkpt lat="47.85407" lon="-2.6972">
        <ele>95</ele>
        <time>2017-01-14T08:04:38Z</time>
      </trkpt>
      <trkpt lat="47.85414" lon="-2.69723">
        <ele>95</ele>
        <time>2017-01-14T08:06:38Z</time>
      </trkpt>
      <trkpt lat="47.8542" lon="-2.69732">
        <ele>95</ele>
        <time>2017-01-14T08:08:38Z</time>
      </trkpt>
      <trkpt lat="47.85427" lon="-2.69741">
        <ele>95</ele>
        <time>2017-01-14T08:10:38Z</time>
      </trkpt>
      <trkpt lat="47.85436" lon="-2.69729">
        <ele>95</ele>
        <time>2017-01-14T08:12:38Z</time>
      </trkpt>
      <trkpt lat="47.85446" lon="-2.69714">
        <ele>95</ele>
        <time>2017-01-14T08:14:38Z</time>
      </trkpt>
      <trkpt lat="47.85453" lon="-2.697">
        <ele>95</ele>
        <time>2017-01-14T08:16:38Z</time>
      </trkpt>
      <trkpt lat="47.85462" lon="-2.69684">
        <ele>94</ele>
        <time>2017-01-14T08:18:38Z</time>
      </trkpt>
      <trkpt lat="47.85477" lon="-2.69649">
        <ele>95</ele>
        <time>2017-01-14T08:20:38Z</time>
      </trkpt>
      <trkpt lat="47.85487" lon="-2.69637">
        <ele>95</ele>
        <time>2017-01-14T08:22:38Z</time>
      </trkpt>
      <trkpt lat="47.85496" lon="-2.6962">
        <ele>95</ele>
        <time>2017-01-14T08:24:38Z</time>
      </trkpt>
      <trkpt lat="47.85504" lon="-2.69606">
        <ele>95</ele>
        <time>2017-01-14T08:26:38Z</time>
      </trkpt>
      <trkpt lat="47.85506" lon="-2.69589">
        <ele>96</ele>
        <time>2017-01-14T08:28:38Z</time>
      </trkpt>
      <trkpt lat="47.85504" lon="-2.69572">
        <ele>96</ele>
        <time>2017-01-14T08:30:38Z</time>
      </trkpt>
      <trkpt lat="47.85501" lon="-2.69553">
        <ele>96</ele>
        <time>2017-01-14T08:32:38Z</time>
      </trkpt>
      <trkpt lat="47.85496" lon="-2.69537">
        <ele>96</ele>
        <time>2017-01-14T08:34:38Z</time>
      </trkpt>
      <trkpt lat="47.85498" lon="-2.69521">
        <ele>96</ele>
        <time>2017-01-14T08:36:38Z</time>
      </trkpt>
      <trkpt lat="47.85504" lon="-2.69508">
        <ele>96</ele>
        <time>2017-01-14T08:38:38Z</time>
      </trkpt>
      <trkpt lat="47.85506" lon="-2.6949">
        <ele>96</ele>
        <time>2017-01-14T08:40:38Z</time>
      </trkpt>
      <trkpt lat="47.85512" lon="-2.69471">
        <ele>96</ele>
        <time>2017-01-14T08:42:38Z</time>
      </trkpt>
      <trkpt lat="47.85517" lon="-2.69456">
        <ele>96</ele>
        <time>2017-01-14T08:44:38Z</time>
      </trkpt>
      <trkpt lat="47.85531" lon="-2.69446">
        <ele>97</ele>
        <time>2017-01-14T08:46:38Z</time>
      </trkpt>
      <trkpt lat="47.85543" lon="-2.69439">
        <ele>97</ele>
        <time>2017-01-14T08:48:38Z</time>
      </trkpt>
      <trkpt lat="47.85554" lon="-2.69443">
        <ele>98</ele>
        <time>2017-01-14T08:50:38Z</time>
      </trkpt>
      <trkpt lat="47.85565" lon="-2.69438">
        <ele>98</ele>
        <time>2017-01-14T08:52:38Z</time>
      </trkpt>
      <trkpt lat="47.85572" lon="-2.69418">
        <ele>99</ele>
        <time>2017-01-14T08:54:38Z</time>
      </trkpt>
      <trkpt lat="47.85578" lon="-2.69399">
        <ele>98</ele>
        <time>2017-01-14T08:56:38Z</time>
      </trkpt>
      <trkpt lat="47.8558" lon="-2.69382">
        <ele>98</ele>
        <time>2017-01-14T08:58:38Z</time>
      </trkpt>
      <trkpt lat="47.85587" lon="-2.69363">
        <ele>98</ele>
        <time>2017-01-14T09:00:38Z</time>
      </trkpt>
      <trkpt lat="47.85594" lon="-2.69346">
        <ele>98</ele>
        <time>2017-01-14T09:02:38Z</time>
      </trkpt>
      <trkpt lat="47.85599" lon="-2.69332">
        <ele>98</ele>
        <time>2017-01-14T09:04:38Z</time>
      </trkpt>
      <trkpt lat="47.85603" lon="-2.69316">
        <ele>99</ele>
        <time>2017-01-14T09:06:38Z</time>
      </trkpt>
      <trkpt lat="47.85608" lon="-2.69298">
        <ele>99</ele>
        <time>2017-01-14T09:08:38Z</time>
      </trkpt>
      <trkpt lat="47.85611" lon="-2.6928">
        <ele>99</ele>
        <time>2017-01-14T09:10:38Z</time>
      </trkpt>
      <trkpt lat="47.85615" lon="-2.69264">
        <ele>99</ele>
        <time>2017-01-14T09:12:38Z</time>
      </trkpt>
      <trkpt lat="47.85629" lon="-2.69247">
        <ele>100</ele>
        <time>2017-01-14T09:14:38Z</time>
      </trkpt>
      <trkpt lat="47.85636" lon="-2.6923">
        <ele>100</ele>
        <time>2017-01-14T09:16:38Z</time>
      </trkpt>
      <trkpt lat="47.85643" lon="-2.69214">
        <ele>100</ele>
        <time>2017-01-14T09:18:38Z</time>
      </trkpt>
      <trkpt lat="47.85644" lon="-2.69197">
        <ele>100</ele>
        <time>2017-01-14T09:20:38Z</time>
      </trkpt>
      <trkpt lat="47.85637" lon="-2.69159">
        <ele>98</ele>
        <time>2017-01-14T09:22:38Z</time>
      </trkpt>
      <trkpt lat="47.85637" lon="-2.69141">
        <ele>98</ele>
        <time>2017-01-14T09:24:38Z</time>
      </trkpt>
      <trkpt lat="47.85634" lon="-2.69124">
        <ele>97</ele>
        <time>2017-01-14T09:26:38Z</time>
      </trkpt>
      <trkpt lat="47.85627" lon="-2.69107">
        <ele>96</ele>
        <time>2017-01-14T09:28:38Z</time>
      </trkpt>
      <trkpt lat="47.85642" lon="-2.69078">
        <ele>96</ele>
        <time>2017-01-14T09:30:38Z</time>
      </trkpt>
      <trkpt lat="47.85654" lon="-2.69068">
        <ele>97</ele>
        <time>2017-01-14T09:32:38Z</time>
      </trkpt>
      <trkpt lat="47.85663" lon="-2.69062">
        <ele>97</ele>
        <time>2017-01-14T09:34:38Z</time>
      </trkpt>
      <trkpt lat="47.85658" lon="-2.69051">
        <ele>97</ele>
        <time>2017-01-14T09:36:38Z</time>
      </trkpt>
      <trkpt lat="47.85654" lon="-2.69047">
        <ele>97</ele>
        <time>2017-01-14T09:38:38Z</time>
      </trkpt>
      <trkpt lat="47.85651" lon="-2.69033">
        <ele>98</ele>
        <time>2017-01-14T09:40:38Z</time>
      </trkpt>
      <trkpt lat="47.85649" lon="-2.69017">
        <ele>98</ele>
        <time>2017-01-14T09:42:38Z</time>
      </trkpt>
      <trkpt lat="47.8565" lon="-2.69001">
        <ele>98</ele>
        <time>2017-01-14T09:44:38Z</time>
      </trkpt>
      <trkpt lat="47.85651" lon="-2.68986">
        <ele>98</ele>
        <time>2017-01-14T09:46:38Z</time>
      </trkpt>
      <trkpt lat="47.8565" lon="-2.68972">
        <ele>98</ele>
        <time>2017-01-14T09:48:38Z</time>
      </trkpt>
      <trkpt lat="47.8565" lon="-2.68956">
        <ele>98</ele>
        <time>2017-01-14T09:50:38Z</time>
      </trkpt>
      <trkpt lat="47.85651" lon="-2.68937">
        <ele>98</ele>
        <time>2017-01-14T09:52:38Z</time>
      </trkpt>
      <trkpt lat="47.85654" lon="-2.68922">
        <ele>98</ele>
        <time>2017-01-14T09:54:38Z</time>
      </trkpt>
      <trkpt lat="47.85665" lon="-2.68896">
        <ele>98</ele>
        <time>2017-01-14T09:56:38Z</time>
      </trkpt>
      <trkpt lat="47.85672" lon="-2.68887">
        <ele>98</ele>
        <time>2017-01-14T09:58:38Z</time>
      </trkpt>
      <trkpt lat="47.85682" lon="-2.68861">
        <ele>98</ele>
        <time>2017-01-14T10:00:38Z</time>
      </trkpt>
      <trkpt lat="47.85688" lon="-2.68846">
        <ele>98</ele>
        <time>2017-01-14T10:02:38Z</time>
      </trkpt>
      <trkpt lat="47.85693" lon="-2.68835">
        <ele>98</ele>
        <time>2017-01-14T10:04:38Z</time>
      </trkpt>
      <trkpt lat="47.857" lon="-2.68827">
        <ele>99</ele>
        <time>2017-01-14T10:06:38Z</time>
      </trkpt>
      <trkpt lat="47.85709" lon="-2.68831">
        <ele>99</ele>
        <time>2017-01-14T10:08:38Z</time>
      </trkpt>
      <trkpt lat="47.85718" lon="-2.68824">
        <ele>99</ele>
        <time>2017-01-14T10:10:38Z</time>
      </trkpt>
      <trkpt lat="47.85727" lon="-2.68814">
        <ele>100</ele>
        <time>2017-01-14T10:12:38Z</time>
      </trkpt>
      <trkpt lat="47.85734" lon="-2.68801">
        <ele>100</ele>
        <time>2017-01-14T10:14:38Z</time>
      </trkpt>
      <trkpt lat="47.85741" lon="-2.68789">
        <ele>101</ele>
        <time>2017-01-14T10:16:38Z</time>
      </trkpt>
      <trkpt lat="47.85747" lon="-2.68774">
        <ele>101</ele>
        <time>2017-01-14T10:18:38Z</time>
      </trkpt>
      <trkpt lat="47.85759" lon="-2.68744">
        <ele>101</ele>
        <time>2017-01-14T10:20:38Z</time>
      </trkpt>
      <trkpt lat="47.85771" lon="-2.68714">
        <ele>102</ele>
        <time>2017-01-14T10:22:38Z</time>
      </trkpt>
      <trkpt lat="47.85776" lon="-2.68699">
        <ele>102</ele>
        <time>2017-01-14T10:24:38Z</time>
      </trkpt>
      <trkpt lat="47.85783" lon="-2.68687">
        <ele>102</ele>
        <time>2017-01-14T10:26:38Z</time>
      </trkpt>
      <trkpt lat="47.85789" lon="-2.68672">
        <ele>102</ele>
        <time>2017-01-14T10:28:38Z</time>
      </trkpt>
      <trkpt lat="47.85796" lon="-2.68659">
        <ele>102</ele>
        <time>2017-01-14T10:30:38Z</time>
      </trkpt>
      <trkpt lat="47.85805" lon="-2.68645">
        <ele>102</ele>
        <time>2017-01-14T10:32:38Z</time>
      </trkpt>
      <trkpt lat="47.85813" lon="-2.68635">
        <ele>102</ele>
        <time>2017-01-14T10:34:38Z</time>
      </trkpt>
      <trkpt lat="47.85822" lon="-2.68623">
        <ele>102</ele>
        <time>2017-01-14T10:36:38Z</time>
      </trkpt>
      <trkpt lat="47.85831" lon="-2.68611">
        <ele>102</ele>
        <time>2017-01-14T10:38:38Z</time>
      </trkpt>
      <trkpt lat="47.85838" lon="-2.68599">
        <ele>102</ele>
        <time>2017-01-14T10:40:38Z</time>
      </trkpt>
      <trkpt lat="47.85847" lon="-2.68587">
        <ele>102</ele>
        <time>2017-01-14T10:42:38Z</time>
      </trkpt>
      <trkpt lat="47.85855" lon="-2.68578">
        <ele>102</ele>
        <time>2017-01-14T10:44:38Z</time>
      </trkpt>
      <trkpt lat="47.85863" lon="-2.68566">
        <ele>102</ele>
        <time>2017-01-14T10:46:38Z</time>
      </trkpt>
      <trkpt lat="47.85881" lon="-2.68542">
        <ele>102</ele>
        <time>2017-01-14T10:48:38Z</time>
      </trkpt>
      <trkpt lat="47.85891" lon="-2.68533">
        <ele>102</ele>
        <time>2017-01-14T10:50:38Z</time>
      </trkpt>
      <trkpt lat="47.859" lon="-2.68522">
        <ele>103</ele>
        <time>2017-01-14T10:52:38Z</time>
      </trkpt>
      <trkpt lat="47.85908" lon="-2.68514">
        <ele>103</ele>
        <time>2017-01-14T10:54:38Z</time>
      </trkpt>
      <trkpt lat="47.85916" lon="-2.68521">
        <ele>103</ele>
        <time>2017-01-14T10:56:38Z</time>
      </trkpt>
      <trkpt lat="47.85923" lon="-2.68529">
        <ele>104</ele>
        <time>2017-01-14T10:58:38Z</time>
      </trkpt>
      <trkpt lat="47.85932" lon="-2.68537">
        <ele>105</ele>
        <time>2017-01-14T11:00:38Z</time>
      </trkpt>
      <trkpt lat="47.8594" lon="-2.68548">
        <ele>105</ele>
        <time>2017-01-14T11:02:38Z</time>
      </trkpt>
      <trkpt lat="47.85947" lon="-2.68558">
        <ele>106</ele>
        <time>2017-01-14T11:04:38Z</time>
      </trkpt>
      <trkpt lat="47.85953" lon="-2.68567">
        <ele>107</ele>
        <time>2017-01-14T11:06:38Z</time>
      </trkpt>
      <trkpt lat="47.85962" lon="-2.68573">
        <ele>108</ele>
        <time>2017-01-14T11:08:38Z</time>
      </trkpt>
      <trkpt lat="47.8597" lon="-2.68582">
        <ele>108</ele>
        <time>2017-01-14T11:10:38Z</time>
      </trkpt>
      <trkpt lat="47.85987" lon="-2.68601">
        <ele>110</ele>
        <time>2017-01-14T11:12:38Z</time>
      </trkpt>
      <trkpt lat="47.85994" lon="-2.6861">
        <ele>111</ele>
        <time>2017-01-14T11:14:38Z</time>
      </trkpt>
      <trkpt lat="47.8601" lon="-2.68628">
        <ele>112</ele>
        <time>2017-01-14T11:16:38Z</time>
      </trkpt>
      <trkpt lat="47.86018" lon="-2.68638">
        <ele>113</ele>
        <time>2017-01-14T11:18:38Z</time>
      </trkpt>
      <trkpt lat="47.86027" lon="-2.68649">
        <ele>113</ele>
        <time>2017-01-14T11:20:38Z</time>
      </trkpt>
      <trkpt lat="47.86034" lon="-2.68659">
        <ele>114</ele>
        <time>2017-01-14T11:22:38Z</time>
      </trkpt>
      <trkpt lat="47.86043" lon="-2.68668">
        <ele>114</ele>
        <time>2017-01-14T11:24:38Z</time>
      </trkpt>
      <trkpt lat="47.86051" lon="-2.68676">
        <ele>115</ele>
        <time>2017-01-14T11:26:38Z</time>
      </trkpt>
      <trkpt lat="47.86059" lon="-2.68685">
        <ele>115</ele>
        <time>2017-01-14T11:28:38Z</time>
      </trkpt>
      <trkpt lat="47.86067" lon="-2.68686">
        <ele>116</ele>
        <time>2017-01-14T11:30:38Z</time>
      </trkpt>
      <trkpt lat="47.86072" lon="-2.68672">
        <ele>116</ele>
        <time>2017-01-14T11:32:38Z</time>
      </trkpt>
      <trkpt lat="47.86075" lon="-2.68657">
        <ele>115</ele>
        <time>2017-01-14T11:34:38Z</time>
      </trkpt>
      <trkpt lat="47.86077" lon="-2.68643">
        <ele>115</ele>
        <time>2017-01-14T11:36:38Z</time>
      </trkpt>
      <trkpt lat="47.86079" lon="-2.68628">
        <ele>115</ele>
        <time>2017-01-14T11:38:38Z</time>
      </trkpt>
      <trkpt lat="47.8608" lon="-2.68612">
        <ele>115</ele>
        <time>2017-01-14T11:40:38Z</time>
      </trkpt>
      <trkpt lat="47.86082" lon="-2.68598">
        <ele>115</ele>
        <time>2017-01-14T11:42:38Z</time>
      </trkpt>
      <trkpt lat="47.86083" lon="-2.68583">
        <ele>115</ele>
        <time>2017-01-14T11:44:38Z</time>
      </trkpt>
      <trkpt lat="47.86085" lon="-2.68568">
        <ele>115</ele>
        <time>2017-01-14T11:46:38Z</time>
      </trkpt>
      <trkpt lat="47.86087" lon="-2.68552">
        <ele>115</ele>
        <time>2017-01-14T11:48:38Z</time>
      </trkpt>
      <trkpt lat="47.86089" lon="-2.68537">
        <ele>114</ele>
        <time>2017-01-14T11:50:38Z</time>
      </trkpt>
      <trkpt lat="47.8609" lon="-2.68523">
        <ele>114</ele>
        <time>2017-01-14T11:52:38Z</time>
      </trkpt>
      <trkpt lat="47.86089" lon="-2.68508">
        <ele>114</ele>
        <time>2017-01-14T11:54:38Z</time>
      </trkpt>
      <trkpt lat="47.86088" lon="-2.68492">
        <ele>113</ele>
        <time>2017-01-14T11:56:38Z</time>
      </trkpt>
      <trkpt lat="47.86086" lon="-2.68479">
        <ele>113</ele>
        <time>2017-01-14T11:58:38Z</time>
      </trkpt>
      <trkpt lat="47.86083" lon="-2.68463">
        <ele>112</ele>
        <time>2017-01-14T12:00:38Z</time>
      </trkpt>
      <trkpt lat="47.86079" lon="-2.68449">
        <ele>112</ele>
        <time>2017-01-14T12:02:38Z</time>
      </trkpt>
      <trkpt lat="47.86078" lon="-2.68434">
        <ele>111</ele>
        <time>2017-01-14T12:04:38Z</time>
      </trkpt>
      <trkpt lat="47.86074" lon="-2.68419">
        <ele>110</ele>
        <time>2017-01-14T12:06:38Z</time>
      </trkpt>
      <trkpt lat="47.86071" lon="-2.68387">
        <ele>109</ele>
        <time>2017-01-14T12:08:38Z</time>
      </trkpt>
      <trkpt lat="47.86067" lon="-2.6837">
        <ele>109</ele>
        <time>2017-01-14T12:10:38Z</time>
      </trkpt>
      <trkpt lat="47.86065" lon="-2.68354">
        <ele>108</ele>
        <time>2017-01-14T12:12:38Z</time>
      </trkpt>
      <trkpt lat="47.86065" lon="-2.68336">
        <ele>108</ele>
        <time>2017-01-14T12:14:38Z</time>
      </trkpt>
      <trkpt lat="47.86063" lon="-2.6832">
        <ele>107</ele>
        <time>2017-01-14T12:16:38Z</time>
      </trkpt>
      <trkpt lat="47.86063" lon="-2.68305">
        <ele>107</ele>
        <time>2017-01-14T12:18:38Z</time>
      </trkpt>
      <trkpt lat="47.86064" lon="-2.68288">
        <ele>106</ele>
        <time>2017-01-14T12:20:38Z</time>
      </trkpt>
      <trkpt lat="47.86066" lon="-2.68274">
        <ele>106</ele>
        <time>2017-01-14T12:22:38Z</time>
      </trkpt>
      <trkpt lat="47.86069" lon="-2.68257">
        <ele>106</ele>
        <time>2017-01-14T12:24:38Z</time>
      </trkpt>
      <trkpt lat="47.8607" lon="-2.68241">
        <ele>106</ele>
        <time>2017-01-14T12:26:38Z</time>
      </trkpt>
      <trkpt lat="47.86073" lon="-2.68228">
        <ele>106</ele>
        <time>2017-01-14T12:28:38Z</time>
      </trkpt>
      <trkpt lat="47.86078" lon="-2.68213">
        <ele>106</ele>
        <time>2017-01-14T12:30:38Z</time>
      </trkpt>
      <trkpt lat="47.86084" lon="-2.682">
        <ele>106</ele>
        <time>2017-01-14T12:32:38Z</time>
      </trkpt>
      <trkpt lat="47.86091" lon="-2.68188">
        <ele>106</ele>
        <time>2017-01-14T12:34:38Z</time>
      </trkpt>
      <trkpt lat="47.86099" lon="-2.68174">
        <ele>107</ele>
        <time>2017-01-14T12:36:38Z</time>
      </trkpt>
      <trkpt lat="47.86107" lon="-2.68158">
        <ele>108</ele>
        <time>2017-01-14T12:38:38Z</time>
      </trkpt>
      <trkpt lat="47.86116" lon="-2.68146">
        <ele>108</ele>
        <time>2017-01-14T12:40:38Z</time>
      </trkpt>
      <trkpt lat="47.86123" lon="-2.68134">
        <ele>109</ele>
        <time>2017-01-14T12:42:38Z</time>
      </trkpt>
      <trkpt lat="47.86131" lon="-2.68116">
        <ele>109</ele>
        <time>2017-01-14T12:44:38Z</time>
      </trkpt>
      <trkpt lat="47.86136" lon="-2.681">
        <ele>109</ele>
        <time>2017-01-14T12:46:38Z</time>
      </trkpt>
      <trkpt lat="47.86142" lon="-2.68081">
        <ele>109</ele>
        <time>2017-01-14T12:48:38Z</time>
      </trkpt>
      <trkpt lat="47.86161" lon="-2.68027">
        <ele>110</ele>
        <time>2017-01-14T12:50:38Z</time>
      </trkpt>
      <trkpt lat="47.86166" lon="-2.68013">
        <ele>110</ele>
        <time>2017-01-14T12:52:38Z</time>
      </trkpt>
      <trkpt lat="47.86172" lon="-2.67999">
        <ele>110</ele>
        <time>2017-01-14T12:54:38Z</time>
      </trkpt>
      <trkpt lat="47.86176" lon="-2.67985">
        <ele>111</ele>
        <time>2017-01-14T12:56:38Z</time>
      </trkpt>
      <trkpt lat="47.86181" lon="-2.67972">
        <ele>111</ele>
        <time>2017-01-14T12:58:38Z</time>
      </trkpt>
      <trkpt lat="47.86185" lon="-2.67957">
        <ele>111</ele>
        <time>2017-01-14T13:00:38Z</time>
      </trkpt>
      <trkpt lat="47.8619" lon="-2.67942">
        <ele>112</ele>
        <time>2017-01-14T13:02:38Z</time>
      </trkpt>
      <trkpt lat="47.86197" lon="-2.67926">
        <ele>112</ele>
        <time>2017-01-14T13:04:38Z</time>
      </trkpt>
      <trkpt lat="47.86203" lon="-2.6791">
        <ele>112</ele>
        <time>2017-01-14T13:06:38Z</time>
      </trkpt>
      <trkpt lat="47.86208" lon="-2.67897">
        <ele>112</ele>
        <time>2017-01-14T13:08:38Z</time>
      </trkpt>
      <trkpt lat="47.86212" lon="-2.67885">
        <ele>112</ele>
        <time>2017-01-14T13:10:38Z</time>
      </trkpt>
      <trkpt lat="47.86222" lon="-2.67876">
        <ele>112</ele>
        <time>2017-01-14T13:12:38Z</time>
      </trkpt>
      <trkpt lat="47.86234" lon="-2.6788">
        <ele>112</ele>
        <time>2017-01-14T13:14:38Z</time>
      </trkpt>
      <trkpt lat="47.86244" lon="-2.67886">
        <ele>113</ele>
        <time>2017-01-14T13:16:38Z</time>
      </trkpt>
      <trkpt lat="47.86266" lon="-2.67898">
        <ele>114</ele>
        <time>2017-01-14T13:18:38Z</time>
      </trkpt>
      <trkpt lat="47.86278" lon="-2.67903">
        <ele>115</ele>
        <time>2017-01-14T13:20:38Z</time>
      </trkpt>
      <trkpt lat="47.8629" lon="-2.6791">
        <ele>115</ele>
        <time>2017-01-14T13:22:38Z</time>
      </trkpt>
      <trkpt lat="47.86314" lon="-2.67924">
        <ele>116</ele>
        <time>2017-01-14T13:24:38Z</time>
      </trkpt>
      <trkpt lat="47.86326" lon="-2.67931">
        <ele>116</ele>
        <time>2017-01-14T13:26:38Z</time>
      </trkpt>
      <trkpt lat="47.86362" lon="-2.67948">
        <ele>117</ele>
        <time>2017-01-14T13:28:38Z</time>
      </trkpt>
      <trkpt lat="47.86398" lon="-2.67967">
        <ele>117</ele>
        <time>2017-01-14T13:30:38Z</time>
      </trkpt>
      <trkpt lat="47.8642" lon="-2.67977">
        <ele>118</ele>
        <time>2017-01-14T13:32:38Z</time>
      </trkpt>
      <trkpt lat="47.86431" lon="-2.67982">
        <ele>118</ele>
        <time>2017-01-14T13:34:38Z</time>
      </trkpt>
      <trkpt lat="47.8645" lon="-2.67992">
        <ele>119</ele>
        <time>2017-01-14T13:36:38Z</time>
      </trkpt>
      <trkpt lat="47.86462" lon="-2.67997">
        <ele>120</ele>
        <time>2017-01-14T13:38:38Z</time>
      </trkpt>
      <trkpt lat="47.86472" lon="-2.68002">
        <ele>120</ele>
        <time>2017-01-14T13:40:38Z</time>
      </trkpt>
      <trkpt lat="47.86481" lon="-2.68007">
        <ele>120</ele>
        <time>2017-01-14T13:42:38Z</time>
      </trkpt>
      <trkpt lat="47.86489" lon="-2.68015">
        <ele>121</ele>
        <time>2017-01-14T13:44:38Z</time>
      </trkpt>
      <trkpt lat="47.86518" lon="-2.68031">
        <ele>121</ele>
        <time>2017-01-14T13:46:38Z</time>
      </trkpt>
      <trkpt lat="47.86528" lon="-2.68035">
        <ele>121</ele>
        <time>2017-01-14T13:48:38Z</time>
      </trkpt>
      <trkpt lat="47.86537" lon="-2.68036">
        <ele>121</ele>
        <time>2017-01-14T13:50:38Z</time>
      </trkpt>
      <trkpt lat="47.86546" lon="-2.68035">
        <ele>121</ele>
        <time>2017-01-14T13:52:38Z</time>
      </trkpt>
      <trkpt lat="47.86557" lon="-2.68037">
        <ele>121</ele>
        <time>2017-01-14T13:54:38Z</time>
      </trkpt>
      <trkpt lat="47.86569" lon="-2.68041">
        <ele>121</ele>
        <time>2017-01-14T13:56:38Z</time>
      </trkpt>
      <trkpt lat="47.86589" lon="-2.68047">
        <ele>121</ele>
        <time>2017-01-14T13:58:38Z</time>
      </trkpt>
      <trkpt lat="47.86599" lon="-2.68049">
        <ele>121</ele>
        <time>2017-01-14T14:00:38Z</time>
      </trkpt>
      <trkpt lat="47.8661" lon="-2.68057">
        <ele>122</ele>
        <time>2017-01-14T14:02:38Z</time>
      </trkpt>
      <trkpt lat="47.86623" lon="-2.68054">
        <ele>121</ele>
        <time>2017-01-14T14:04:38Z</time>
      </trkpt>
      <trkpt lat="47.86634" lon="-2.68047">
        <ele>120</ele>
        <time>2017-01-14T14:06:38Z</time>
      </trkpt>
      <trkpt lat="47.8665" lon="-2.68037">
        <ele>119</ele>
        <time>2017-01-14T14:08:38Z</time>
      </trkpt>
      <trkpt lat="47.86665" lon="-2.68022">
        <ele>117</ele>
        <time>2017-01-14T14:10:38Z</time>
      </trkpt>
      <trkpt lat="47.86672" lon="-2.68007">
        <ele>116</ele>
        <time>2017-01-14T14:12:38Z</time>
      </trkpt>
      <trkpt lat="47.86675" lon="-2.67988">
        <ele>115</ele>
        <time>2017-01-14T14:14:38Z</time>
      </trkpt>
      <trkpt lat="47.86677" lon="-2.67972">
        <ele>115</ele>
        <time>2017-01-14T14:16:38Z</time>
      </trkpt>
      <trkpt lat="47.8668" lon="-2.67954">
        <ele>114</ele>
        <time>2017-01-14T14:18:38Z</time>
      </trkpt>
      <trkpt lat="47.86682" lon="-2.67939">
        <ele>113</ele>
        <time>2017-01-14T14:20:38Z</time>
      </trkpt>
      <trkpt lat="47.86684" lon="-2.67923">
        <ele>113</ele>
        <time>2017-01-14T14:22:38Z</time>
      </trkpt>
      <trkpt lat="47.86686" lon="-2.67903">
        <ele>113</ele>
        <time>2017-01-14T14:24:38Z</time>
      </trkpt>
      <trkpt lat="47.86688" lon="-2.67889">
        <ele>112</ele>
        <time>2017-01-14T14:26:38Z</time>
      </trkpt>
      <trkpt lat="47.86696" lon="-2.67884">
        <ele>113</ele>
        <time>2017-01-14T14:28:38Z</time>
      </trkpt>
      <trkpt lat="47.86706" lon="-2.67885">
        <ele>114</ele>
        <time>2017-01-14T14:30:38Z</time>
      </trkpt>
      <trkpt lat="47.86727" lon="-2.67887">
        <ele>116</ele>
        <time>2017-01-14T14:32:38Z</time>
      </trkpt>
      <trkpt lat="47.86739" lon="-2.67891">
        <ele>118</ele>
        <time>2017-01-14T14:34:38Z</time>
      </trkpt>
      <trkpt lat="47.86749" lon="-2.67893">
        <ele>119</ele>
        <time>2017-01-14T14:36:38Z</time>
      </trkpt>
      <trkpt lat="47.86757" lon="-2.67902">
        <ele>120</ele>
        <time>2017-01-14T14:38:38Z</time>
      </trkpt>
      <trkpt lat="47.86765" lon="-2.67913">
        <ele>121</ele>
        <time>2017-01-14T14:40:38Z</time>
      </trkpt>
      <trkpt lat="47.86774" lon="-2.67919">
        <ele>122</ele>
        <time>2017-01-14T14:42:38Z</time>
      </trkpt>
      <trkpt lat="47.86785" lon="-2.67922">
        <ele>123</ele>
        <time>2017-01-14T14:44:38Z</time>
      </trkpt>
      <trkpt lat="47.86796" lon="-2.67924">
        <ele>124</ele>
        <time>2017-01-14T14:46:38Z</time>
      </trkpt>
      <trkpt lat="47.86829" lon="-2.67925">
        <ele>128</ele>
        <time>2017-01-14T14:48:38Z</time>
      </trkpt>
      <trkpt lat="47.86841" lon="-2.67924">
        <ele>129</ele>
        <time>2017-01-14T14:50:38Z</time>
      </trkpt>
      <trkpt lat="47.86854" lon="-2.67922">
        <ele>130</ele>
        <time>2017-01-14T14:52:38Z</time>
      </trkpt>
      <trkpt lat="47.86864" lon="-2.67916">
        <ele>131</ele>
        <time>2017-01-14T14:54:38Z</time>
      </trkpt>
      <trkpt lat="47.86872" lon="-2.67909">
        <ele>131</ele>
        <time>2017-01-14T14:56:38Z</time>
      </trkpt>
      <trkpt lat="47.86884" lon="-2.679">
        <ele>132</ele>
        <time>2017-01-14T14:58:38Z</time>
      </trkpt>
      <trkpt lat="47.86918" lon="-2.67891">
        <ele>135</ele>
        <time>2017-01-14T15:00:38Z</time>
      </trkpt>
      <trkpt lat="47.86945" lon="-2.67884">
        <ele>137</ele>
        <time>2017-01-14T15:02:38Z</time>
      </trkpt>
      <trkpt lat="47.86957" lon="-2.67882">
        <ele>138</ele>
        <time>2017-01-14T15:04:38Z</time>
      </trkpt>
      <trkpt lat="47.86974" lon="-2.6787">
        <ele>139</ele>
        <time>2017-01-14T15:06:38Z</time>
      </trkpt>
      <trkpt lat="47.86976" lon="-2.67853">
        <ele>140</ele>
        <time>2017-01-14T15:08:38Z</time>
      </trkpt>
      <trkpt lat="47.86969" lon="-2.67842">
        <ele>140</ele>
        <time>2017-01-14T15:10:38Z</time>
      </trkpt>
      <trkpt lat="47.86961" lon="-2.67833">
        <ele>140</ele>
        <time>2017-01-14T15:12:38Z</time>
      </trkpt>
      <trkpt lat="47.86943" lon="-2.67818">
        <ele>141</ele>
        <time>2017-01-14T15:14:38Z</time>
      </trkpt>
      <trkpt lat="47.86933" lon="-2.67813">
        <ele>141</ele>
        <time>2017-01-14T15:16:38Z</time>
      </trkpt>
      <trkpt lat="47.86925" lon="-2.67806">
        <ele>141</ele>
        <time>2017-01-14T15:18:38Z</time>
      </trkpt>
      <trkpt lat="47.86915" lon="-2.678">
        <ele>141</ele>
        <time>2017-01-14T15:20:38Z</time>
      </trkpt>
      <trkpt lat="47.86906" lon="-2.67795">
        <ele>141</ele>
        <time>2017-01-14T15:22:38Z</time>
      </trkpt>
      <trkpt lat="47.86896" lon="-2.67788">
        <ele>140</ele>
        <time>2017-01-14T15:24:38Z</time>
      </trkpt>
      <trkpt lat="47.86887" lon="-2.67784">
        <ele>140</ele>
        <time>2017-01-14T15:26:38Z</time>
      </trkpt>
      <trkpt lat="47.86877" lon="-2.67776">
        <ele>139</ele>
        <time>2017-01-14T15:28:38Z</time>
      </trkpt>
      <trkpt lat="47.86872" lon="-2.67765">
        <ele>139</ele>
        <time>2017-01-14T15:30:38Z</time>
      </trkpt>
      <trkpt lat="47.86867" lon="-2.67751">
        <ele>140</ele>
        <time>2017-01-14T15:32:38Z</time>
      </trkpt>
      <trkpt lat="47.86862" lon="-2.67735">
        <ele>139</ele>
        <time>2017-01-14T15:34:38Z</time>
      </trkpt>
      <trkpt lat="47.86856" lon="-2.67703">
        <ele>139</ele>
        <time>2017-01-14T15:36:38Z</time>
      </trkpt>
      <trkpt lat="47.8685" lon="-2.67688">
        <ele>138</ele>
        <time>2017-01-14T15:38:38Z</time>
      </trkpt>
      <trkpt lat="47.86844" lon="-2.67657">
        <ele>138</ele>
        <time>2017-01-14T15:40:38Z</time>
      </trkpt>
      <trkpt lat="47.86835" lon="-2.67623">
        <ele>137</ele>
        <time>2017-01-14T15:42:38Z</time>
      </trkpt>
      <trkpt lat="47.86831" lon="-2.67604">
        <ele>136</ele>
        <time>2017-01-14T15:44:38Z</time>
      </trkpt>
      <trkpt lat="47.86829" lon="-2.67583">
        <ele>136</ele>
        <time>2017-01-14T15:46:38Z</time>
      </trkpt>
      <trkpt lat="47.86827" lon="-2.67562">
        <ele>137</ele>
        <time>2017-01-14T15:48:38Z</time>
      </trkpt>
      <trkpt lat="47.86825" lon="-2.67547">
        <ele>137</ele>
        <time>2017-01-14T15:50:38Z</time>
      </trkpt>
      <trkpt lat="47.86823" lon="-2.67532">
        <ele>138</ele>
        <time>2017-01-14T15:52:38Z</time>
      </trkpt>
      <trkpt lat="47.86812" lon="-2.67488">
        <ele>138</ele>
        <time>2017-01-14T15:54:38Z</time>
      </trkpt>
      <trkpt lat="47.86808" lon="-2.67472">
        <ele>138</ele>
        <time>2017-01-14T15:56:38Z</time>
      </trkpt>
      <trkpt lat="47.86799" lon="-2.6746">
        <ele>137</ele>
        <time>2017-01-14T15:58:38Z</time>
      </trkpt>
      <trkpt lat="47.86788" lon="-2.67458">
        <ele>137</ele>
        <time>2017-01-14T16:00:38Z</time>
      </trkpt>
      <trkpt lat="47.86776" lon="-2.67457">
        <ele>136</ele>
        <time>2017-01-14T16:02:38Z</time>
      </trkpt>
      <trkpt lat="47.86765" lon="-2.67455">
        <ele>135</ele>
        <time>2017-01-14T16:04:38Z</time>
      </trkpt>
      <trkpt lat="47.86756" lon="-2.67454">
        <ele>135</ele>
        <time>2017-01-14T16:06:38Z</time>
      </trkpt>
      <trkpt lat="47.86745" lon="-2.6746">
        <ele>134</ele>
        <time>2017-01-14T16:08:38Z</time>
      </trkpt>
      <trkpt lat="47.86732" lon="-2.6746">
        <ele>133</ele>
        <time>2017-01-14T16:10:38Z</time>
      </trkpt>
      <trkpt lat="47.8672" lon="-2.67453">
        <ele>133</ele>
        <time>2017-01-14T16:12:38Z</time>
      </trkpt>
      <trkpt lat="47.86706" lon="-2.67447">
        <ele>133</ele>
        <time>2017-01-14T16:14:38Z</time>
      </trkpt>
      <trkpt lat="47.86683" lon="-2.67438">
        <ele>133</ele>
        <time>2017-01-14T16:16:38Z</time>
      </trkpt>
      <trkpt lat="47.86669" lon="-2.67426">
        <ele>133</ele>
        <time>2017-01-14T16:18:38Z</time>
      </trkpt>
      <trkpt lat="47.8666" lon="-2.67419">
        <ele>133</ele>
        <time>2017-01-14T16:20:38Z</time>
      </trkpt>
      <trkpt lat="47.86648" lon="-2.67414">
        <ele>133</ele>
        <time>2017-01-14T16:22:38Z</time>
      </trkpt>
      <trkpt lat="47.86628" lon="-2.6741">
        <ele>133</ele>
        <time>2017-01-14T16:24:38Z</time>
      </trkpt>
      <trkpt lat="47.86618" lon="-2.67407">
        <ele>133</ele>
        <time>2017-01-14T16:26:38Z</time>
      </trkpt>
      <trkpt lat="47.86608" lon="-2.67408">
        <ele>132</ele>
        <time>2017-01-14T16:28:38Z</time>
      </trkpt>
      <trkpt lat="47.86601" lon="-2.67416">
        <ele>132</ele>
        <time>2017-01-14T16:30:38Z</time>
      </trkpt>
      <trkpt lat="47.86592" lon="-2.67422">
        <ele>132</ele>
        <time>2017-01-14T16:32:38Z</time>
      </trkpt>
      <trkpt lat="47.86583" lon="-2.67422">
        <ele>132</ele>
        <time>2017-01-14T16:34:38Z</time>
      </trkpt>
      <trkpt lat="47.86573" lon="-2.67417">
        <ele>131</ele>
        <time>2017-01-14T16:36:38Z</time>
      </trkpt>
      <trkpt lat="47.86564" lon="-2.67409">
        <ele>131</ele>
        <time>2017-01-14T16:38:38Z</time>
      </trkpt>
      <trkpt lat="47.86555" lon="-2.6741">
        <ele>130</ele>
        <time>2017-01-14T16:40:38Z</time>
      </trkpt>
      <trkpt lat="47.86546" lon="-2.67415">
        <ele>129</ele>
        <time>2017-01-14T16:42:38Z</time>
      </trkpt>
      <trkpt lat="47.86534" lon="-2.67411">
        <ele>128</ele>
        <time>2017-01-14T16:44:38Z</time>
      </trkpt>
      <trkpt lat="47.86528" lon="-2.67398">
        <ele>128</ele>
        <time>2017-01-14T16:46:38Z</time>
      </trkpt>
      <trkpt lat="47.86525" lon="-2.67383">
        <ele>128</ele>
        <time>2017-01-14T16:48:38Z</time>
      </trkpt>
      <trkpt lat="47.8652" lon="-2.67371">
        <ele>128</ele>
        <time>2017-01-14T16:50:38Z</time>
      </trkpt>
      <trkpt lat="47.86515" lon="-2.67358">
        <ele>128</ele>
        <time>2017-01-14T16:52:38Z</time>
      </trkpt>
      <trkpt lat="47.8651" lon="-2.67346">
        <ele>128</ele>
        <time>2017-01-14T16:54:38Z</time>
      </trkpt>
      <trkpt lat="47.86505" lon="-2.67332">
        <ele>128</ele>
        <time>2017-01-14T16:56:38Z</time>
      </trkpt>
      <trkpt lat="47.865" lon="-2.6732">
        <ele>128</ele>
        <time>2017-01-14T16:58:38Z</time>
      </trkpt>
      <trkpt lat="47.86493" lon="-2.67306">
        <ele>128</ele>
        <time>2017-01-14T17:00:38Z</time>
      </trkpt>
      <trkpt lat="47.86488" lon="-2.67293">
        <ele>127</ele>
        <time>2017-01-14T17:02:38Z</time>
      </trkpt>
      <trkpt lat="47.8648" lon="-2.67279">
        <ele>127</ele>
        <time>2017-01-14T17:04:38Z</time>
      </trkpt>
      <trkpt lat="47.86473" lon="-2.67268">
        <ele>126</ele>
        <time>2017-01-14T17:06:38Z</time>
      </trkpt>
      <trkpt lat="47.86467" lon="-2.67258">
        <ele>126</ele>
        <time>2017-01-14T17:08:38Z</time>
      </trkpt>
      <trkpt lat="47.86459" lon="-2.6725">
        <ele>126</ele>
        <time>2017-01-14T17:10:38Z</time>
      </trkpt>
      <trkpt lat="47.86449" lon="-2.67242">
        <ele>125</ele>
        <time>2017-01-14T17:12:38Z</time>
      </trkpt>
      <trkpt lat="47.86441" lon="-2.67235">
        <ele>124</ele>
        <time>2017-01-14T17:14:38Z</time>
      </trkpt>
      <trkpt lat="47.86432" lon="-2.67227">
        <ele>123</ele>
        <time>2017-01-14T17:16:38Z</time>
      </trkpt>
      <trkpt lat="47.86412" lon="-2.67208">
        <ele>121</ele>
        <time>2017-01-14T17:18:38Z</time>
      </trkpt>
      <trkpt lat="47.86406" lon="-2.67197">
        <ele>120</ele>
        <time>2017-01-14T17:20:38Z</time>
      </trkpt>
      <trkpt lat="47.86405" lon="-2.67183">
        <ele>120</ele>
        <time>2017-01-14T17:22:38Z</time>
      </trkpt>
      <trkpt lat="47.86405" lon="-2.67165">
        <ele>119</ele>
        <time>2017-01-14T17:24:38Z</time>
      </trkpt>
      <trkpt lat="47.86403" lon="-2.6715">
        <ele>118</ele>
        <time>2017-01-14T17:26:38Z</time>
      </trkpt>
      <trkpt lat="47.86402" lon="-2.67116">
        <ele>117</ele>
        <time>2017-01-14T17:28:38Z</time>
      </trkpt>
      <trkpt lat="47.86407" lon="-2.671">
        <ele>117</ele>
        <time>2017-01-14T17:30:38Z</time>
      </trkpt>
      <trkpt lat="47.86414" lon="-2.67089">
        <ele>117</ele>
        <time>2017-01-14T17:32:38Z</time>
      </trkpt>
      <trkpt lat="47.86423" lon="-2.67081">
        <ele>117</ele>
        <time>2017-01-14T17:34:38Z</time>
      </trkpt>
      <trkpt lat="47.86431" lon="-2.6707">
        <ele>118</ele>
        <time>2017-01-14T17:36:38Z</time>
      </trkpt>
      <trkpt lat="47.86447" lon="-2.6705">
        <ele>118</ele>
        <time>2017-01-14T17:38:38Z</time>
      </trkpt>
      <trkpt lat="47.86454" lon="-2.67034">
        <ele>119</ele>
        <time>2017-01-14T17:40:38Z</time>
      </trkpt>
      <trkpt lat="47.86461" lon="-2.67021">
        <ele>119</ele>
        <time>2017-01-14T17:42:38Z</time>
      </trkpt>
      <trkpt lat="47.86475" lon="-2.66997">
        <ele>119</ele>
        <time>2017-01-14T17:44:38Z</time>
      </trkpt>
      <trkpt lat="47.86481" lon="-2.66984">
        <ele>119</ele>
        <time>2017-01-14T17:46:38Z</time>
      </trkpt>
      <trkpt lat="47.86488" lon="-2.6697">
        <ele>118</ele>
        <time>2017-01-14T17:48:38Z</time>
      </trkpt>
      <trkpt lat="47.86495" lon="-2.66959">
        <ele>118</ele>
        <time>2017-01-14T17:50:38Z</time>
      </trkpt>
      <trkpt lat="47.86504" lon="-2.66948">
        <ele>118</ele>
        <time>2017-01-14T17:52:38Z</time>
      </trkpt>
      <trkpt lat="47.86524" lon="-2.66912">
        <ele>118</ele>
        <time>2017-01-14T17:54:38Z</time>
      </trkpt>
      <trkpt lat="47.86525" lon="-2.66899">
        <ele>118</ele>
        <time>2017-01-14T17:56:38Z</time>
      </trkpt>
      <trkpt lat="47.86526" lon="-2.66884">
        <ele>118</ele>
        <time>2017-01-14T17:58:38Z</time>
      </trkpt>
      <trkpt lat="47.86527" lon="-2.6687">
        <ele>118</ele>
        <time>2017-01-14T18:00:38Z</time>
      </trkpt>
      <trkpt lat="47.86529" lon="-2.66853">
        <ele>119</ele>
        <time>2017-01-14T18:02:38Z</time>
      </trkpt>
      <trkpt lat="47.86528" lon="-2.66838">
        <ele>119</ele>
        <time>2017-01-14T18:04:38Z</time>
      </trkpt>
      <trkpt lat="47.86529" lon="-2.66823">
        <ele>119</ele>
        <time>2017-01-14T18:06:38Z</time>
      </trkpt>
      <trkpt lat="47.86532" lon="-2.66805">
        <ele>119</ele>
        <time>2017-01-14T18:08:38Z</time>
      </trkpt>
      <trkpt lat="47.86536" lon="-2.66788">
        <ele>119</ele>
        <time>2017-01-14T18:10:38Z</time>
      </trkpt>
      <trkpt lat="47.86537" lon="-2.66773">
        <ele>119</ele>
        <time>2017-01-14T18:12:38Z</time>
      </trkpt>
      <trkpt lat="47.86541" lon="-2.66759">
        <ele>119</ele>
        <time>2017-01-14T18:14:38Z</time>
      </trkpt>
      <trkpt lat="47.86545" lon="-2.66743">
        <ele>119</ele>
        <time>2017-01-14T18:16:38Z</time>
      </trkpt>
      <trkpt lat="47.8655" lon="-2.6673">
        <ele>120</ele>
        <time>2017-01-14T18:18:38Z</time>
      </trkpt>
      <trkpt lat="47.86555" lon="-2.66716">
        <ele>120</ele>
        <time>2017-01-14T18:20:38Z</time>
      </trkpt>
      <trkpt lat="47.86569" lon="-2.66689">
        <ele>122</ele>
        <time>2017-01-14T18:22:38Z</time>
      </trkpt>
      <trkpt lat="47.86576" lon="-2.66677">
        <ele>122</ele>
        <time>2017-01-14T18:24:38Z</time>
      </trkpt>
      <trkpt lat="47.86586" lon="-2.66667">
        <ele>123</ele>
        <time>2017-01-14T18:26:38Z</time>
      </trkpt>
      <trkpt lat="47.86597" lon="-2.66661">
        <ele>124</ele>
        <time>2017-01-14T18:28:38Z</time>
      </trkpt>
      <trkpt lat="47.86606" lon="-2.66657">
        <ele>124</ele>
        <time>2017-01-14T18:30:38Z</time>
      </trkpt>
      <trkpt lat="47.86616" lon="-2.66655">
        <ele>124</ele>
        <time>2017-01-14T18:32:38Z</time>
      </trkpt>
      <trkpt lat="47.86625" lon="-2.66652">
        <ele>124</ele>
        <time>2017-01-14T18:34:38Z</time>
      </trkpt>
      <trkpt lat="47.86634" lon="-2.66645">
        <ele>125</ele>
        <time>2017-01-14T18:36:38Z</time>
      </trkpt>
      <trkpt lat="47.8664" lon="-2.66636">
        <ele>125</ele>
        <time>2017-01-14T18:38:38Z</time>
      </trkpt>
      <trkpt lat="47.86635" lon="-2.66623">
        <ele>124</ele>
        <time>2017-01-14T18:40:38Z</time>
      </trkpt>
      <trkpt lat="47.86627" lon="-2.66612">
        <ele>124</ele>
        <time>2017-01-14T18:42:38Z</time>
      </trkpt>
      <trkpt lat="47.86619" lon="-2.66603">
        <ele>124</ele>
        <time>2017-01-14T18:44:38Z</time>
      </trkpt>
      <trkpt lat="47.86605" lon="-2.66582">
        <ele>124</ele>
        <time>2017-01-14T18:46:38Z</time>
      </trkpt>
      <trkpt lat="47.86601" lon="-2.66573">
        <ele>124</ele>
        <time>2017-01-14T18:48:38Z</time>
      </trkpt>
      <trkpt lat="47.86594" lon="-2.66564">
        <ele>124</ele>
        <time>2017-01-14T18:50:38Z</time>
      </trkpt>
      <trkpt lat="47.86585" lon="-2.66555">
        <ele>124</ele>
        <time>2017-01-14T18:52:38Z</time>
      </trkpt>
      <trkpt lat="47.86566" lon="-2.66541">
        <ele>124</ele>
        <time>2017-01-14T18:54:38Z</time>
      </trkpt>
      <trkpt lat="47.86558" lon="-2.66533">
        <ele>124</ele>
        <time>2017-01-14T18:56:38Z</time>
      </trkpt>
      <trkpt lat="47.86541" lon="-2.66517">
        <ele>124</ele>
        <time>2017-01-14T18:58:38Z</time>
      </trkpt>
      <trkpt lat="47.86533" lon="-2.6651">
        <ele>124</ele>
        <time>2017-01-14T19:00:38Z</time>
      </trkpt>
      <trkpt lat="47.86525" lon="-2.66502">
        <ele>124</ele>
        <time>2017-01-14T19:02:38Z</time>
      </trkpt>
      <trkpt lat="47.86515" lon="-2.66494">
        <ele>123</ele>
        <time>2017-01-14T19:04:38Z</time>
      </trkpt>
      <trkpt lat="47.86507" lon="-2.66488">
        <ele>123</ele>
        <time>2017-01-14T19:06:38Z</time>
      </trkpt>
      <trkpt lat="47.86497" lon="-2.66482">
        <ele>123</ele>
        <time>2017-01-14T19:08:38Z</time>
      </trkpt>
      <trkpt lat="47.8649" lon="-2.66475">
        <ele>123</ele>
        <time>2017-01-14T19:10:38Z</time>
      </trkpt>
      <trkpt lat="47.8648" lon="-2.66468">
        <ele>123</ele>
        <time>2017-01-14T19:12:38Z</time>
      </trkpt>
      <trkpt lat="47.86471" lon="-2.66463">
        <ele>123</ele>
        <time>2017-01-14T19:14:38Z</time>
      </trkpt>
      <trkpt lat="47.86461" lon="-2.66456">
        <ele>123</ele>
        <time>2017-01-14T19:16:38Z</time>
      </trkpt>
      <trkpt lat="47.86443" lon="-2.66444">
        <ele>123</ele>
        <time>2017-01-14T19:18:38Z</time>
      </trkpt>
      <trkpt lat="47.86435" lon="-2.66437">
        <ele>123</ele>
        <time>2017-01-14T19:20:38Z</time>
      </trkpt>
      <trkpt lat="47.8643" lon="-2.66425">
        <ele>123</ele>
        <time>2017-01-14T19:22:38Z</time>
      </trkpt>
      <trkpt lat="47.86431" lon="-2.6641">
        <ele>123</ele>
        <time>2017-01-14T19:24:38Z</time>
      </trkpt>
      <trkpt lat="47.86432" lon="-2.66393">
        <ele>124</ele>
        <time>2017-01-14T19:26:38Z</time>
      </trkpt>
      <trkpt lat="47.86433" lon="-2.66379">
        <ele>124</ele>
        <time>2017-01-14T19:28:38Z</time>
      </trkpt>
      <trkpt lat="47.86436" lon="-2.66364">
        <ele>125</ele>
        <time>2017-01-14T19:30:38Z</time>
      </trkpt>
      <trkpt lat="47.86441" lon="-2.66335">
        <ele>126</ele>
        <time>2017-01-14T19:32:38Z</time>
      </trkpt>
      <trkpt lat="47.86442" lon="-2.66321">
        <ele>126</ele>
        <time>2017-01-14T19:34:38Z</time>
      </trkpt>
      <trkpt lat="47.86444" lon="-2.66306">
        <ele>126</ele>
        <time>2017-01-14T19:36:38Z</time>
      </trkpt>
      <trkpt lat="47.86445" lon="-2.66293">
        <ele>126</ele>
        <time>2017-01-14T19:38:38Z</time>
      </trkpt>
      <trkpt lat="47.86447" lon="-2.66279">
        <ele>126</ele>
        <time>2017-01-14T19:40:38Z</time>
      </trkpt>
      <trkpt lat="47.86449" lon="-2.66264">
        <ele>126</ele>
        <time>2017-01-14T19:42:38Z</time>
      </trkpt>
      <trkpt lat="47.86455" lon="-2.66237">
        <ele>127</ele>
        <time>2017-01-14T19:44:38Z</time>
      </trkpt>
      <trkpt lat="47.86458" lon="-2.66208">
        <ele>127</ele>
        <time>2017-01-14T19:46:38Z</time>
      </trkpt>
      <trkpt lat="47.86461" lon="-2.66194">
        <ele>127</ele>
        <time>2017-01-14T19:48:38Z</time>
      </trkpt>
      <trkpt lat="47.86461" lon="-2.6618">
        <ele>127</ele>
        <time>2017-01-14T19:50:38Z</time>
      </trkpt>
      <trkpt lat="47.86462" lon="-2.66166">
        <ele>127</ele>
        <time>2017-01-14T19:52:38Z</time>
      </trkpt>
      <trkpt lat="47.86463" lon="-2.66152">
        <ele>127</ele>
        <time>2017-01-14T19:54:38Z</time>
      </trkpt>
      <trkpt lat="47.86464" lon="-2.66137">
        <ele>127</ele>
        <time>2017-01-14T19:56:38Z</time>
      </trkpt>
      <trkpt lat="47.86464" lon="-2.66106">
        <ele>128</ele>
        <time>2017-01-14T19:58:38Z</time>
      </trkpt>
      <trkpt lat="47.86465" lon="-2.6609">
        <ele>128</ele>
        <time>2017-01-14T20:00:38Z</time>
      </trkpt>
      <trkpt lat="47.86466" lon="-2.66061">
        <ele>128</ele>
        <time>2017-01-14T20:02:38Z</time>
      </trkpt>
      <trkpt lat="47.86466" lon="-2.66047">
        <ele>128</ele>
        <time>2017-01-14T20:04:38Z</time>
      </trkpt>
      <trkpt lat="47.86466" lon="-2.66017">
        <ele>128</ele>
        <time>2017-01-14T20:06:38Z</time>
      </trkpt>
      <trkpt lat="47.86466" lon="-2.66002">
        <ele>128</ele>
        <time>2017-01-14T20:08:38Z</time>
      </trkpt>
      <trkpt lat="47.86467" lon="-2.65987">
        <ele>129</ele>
        <time>2017-01-14T20:10:38Z</time>
      </trkpt>
      <trkpt lat="47.86467" lon="-2.65973">
        <ele>129</ele>
        <time>2017-01-14T20:12:38Z</time>
      </trkpt>
      <trkpt lat="47.86468" lon="-2.65946">
        <ele>129</ele>
        <time>2017-01-14T20:14:38Z</time>
      </trkpt>
      <trkpt lat="47.86468" lon="-2.65932">
        <ele>129</ele>
        <time>2017-01-14T20:16:38Z</time>
      </trkpt>
      <trkpt lat="47.86469" lon="-2.65919">
        <ele>129</ele>
        <time>2017-01-14T20:18:38Z</time>
      </trkpt>
      <trkpt lat="47.86469" lon="-2.65906">
        <ele>129</ele>
        <time>2017-01-14T20:20:38Z</time>
      </trkpt>
      <trkpt lat="47.8647" lon="-2.65892">
        <ele>129</ele>
        <time>2017-01-14T20:22:38Z</time>
      </trkpt>
      <trkpt lat="47.86469" lon="-2.65878">
        <ele>130</ele>
        <time>2017-01-14T20:24:38Z</time>
      </trkpt>
      <trkpt lat="47.8647" lon="-2.65865">
        <ele>130</ele>
        <time>2017-01-14T20:26:38Z</time>
      </trkpt>
      <trkpt lat="47.86471" lon="-2.65852">
        <ele>130</ele>
        <time>2017-01-14T20:28:38Z</time>
      </trkpt>
      <trkpt lat="47.8647" lon="-2.65838">
        <ele>130</ele>
        <time>2017-01-14T20:30:38Z</time>
      </trkpt>
      <trkpt lat="47.86471" lon="-2.65824">
        <ele>130</ele>
        <time>2017-01-14T20:32:38Z</time>
      </trkpt>
      <trkpt lat="47.8647" lon="-2.65811">
        <ele>130</ele>
        <time>2017-01-14T20:34:38Z</time>
      </trkpt>
      <trkpt lat="47.86459" lon="-2.65804">
        <ele>130</ele>
        <time>2017-01-14T20:36:38Z</time>
      </trkpt>
      <trkpt lat="47.86449" lon="-2.65801">
        <ele>130</ele>
        <time>2017-01-14T20:38:38Z</time>
      </trkpt>
      <trkpt lat="47.86428" lon="-2.658">
        <ele>130</ele>
        <time>2017-01-14T20:40:38Z</time>
      </trkpt>
      <trkpt lat="47.864" lon="-2.6579">
        <ele>131</ele>
        <time>2017-01-14T20:42:38Z</time>
      </trkpt>
      <trkpt lat="47.86391" lon="-2.65789">
        <ele>131</ele>
        <time>2017-01-14T20:44:38Z</time>
      </trkpt>
      <trkpt lat="47.86381" lon="-2.65787">
        <ele>131</ele>
        <time>2017-01-14T20:46:38Z</time>
      </trkpt>
      <trkpt lat="47.86371" lon="-2.65784">
        <ele>131</ele>
        <time>2017-01-14T20:48:38Z</time>
      </trkpt>
      <trkpt lat="47.86362" lon="-2.65782">
        <ele>132</ele>
        <time>2017-01-14T20:50:38Z</time>
      </trkpt>
      <trkpt lat="47.86354" lon="-2.65782">
        <ele>132</ele>
        <time>2017-01-14T20:52:38Z</time>
      </trkpt>
      <trkpt lat="47.86344" lon="-2.65781">
        <ele>132</ele>
        <time>2017-01-14T20:54:38Z</time>
      </trkpt>
      <trkpt lat="47.86335" lon="-2.65781">
        <ele>132</ele>
        <time>2017-01-14T20:56:38Z</time>
      </trkpt>
      <trkpt lat="47.86315" lon="-2.65784">
        <ele>132</ele>
        <time>2017-01-14T20:58:38Z</time>
      </trkpt>
      <trkpt lat="47.86306" lon="-2.65785">
        <ele>132</ele>
        <time>2017-01-14T21:00:38Z</time>
      </trkpt>
      <trkpt lat="47.86296" lon="-2.65784">
        <ele>132</ele>
        <time>2017-01-14T21:02:38Z</time>
      </trkpt>
      <trkpt lat="47.86286" lon="-2.65786">
        <ele>132</ele>
        <time>2017-01-14T21:04:38Z</time>
      </trkpt>
      <trkpt lat="47.86275" lon="-2.65788">
        <ele>132</ele>
        <time>2017-01-14T21:06:38Z</time>
      </trkpt>
      <trkpt lat="47.86266" lon="-2.6579">
        <ele>132</ele>
        <time>2017-01-14T21:08:38Z</time>
      </trkpt>
      <trkpt lat="47.86256" lon="-2.65788">
        <ele>131</ele>
        <time>2017-01-14T21:10:38Z</time>
      </trkpt>
      <trkpt lat="47.86237" lon="-2.65787">
        <ele>131</ele>
        <time>2017-01-14T21:12:38Z</time>
      </trkpt>
      <trkpt lat="47.86228" lon="-2.65786">
        <ele>130</ele>
        <time>2017-01-14T21:14:38Z</time>
      </trkpt>
      <trkpt lat="47.86217" lon="-2.65784">
        <ele>130</ele>
        <time>2017-01-14T21:16:38Z</time>
      </trkpt>
      <trkpt lat="47.86196" lon="-2.65776">
        <ele>129</ele>
        <time>2017-01-14T21:18:38Z</time>
      </trkpt>
      <trkpt lat="47.86186" lon="-2.65773">
        <ele>129</ele>
        <time>2017-01-14T21:20:38Z</time>
      </trkpt>
      <trkpt lat="47.86178" lon="-2.65767">
        <ele>128</ele>
        <time>2017-01-14T21:22:38Z</time>
      </trkpt>
      <trkpt lat="47.86172" lon="-2.65756">
        <ele>128</ele>
        <time>2017-01-14T21:24:38Z</time>
      </trkpt>
      <trkpt lat="47.8617" lon="-2.65739">
        <ele>128</ele>
        <time>2017-01-14T21:26:38Z</time>
      </trkpt>
      <trkpt lat="47.86168" lon="-2.65726">
        <ele>128</ele>
        <time>2017-01-14T21:28:38Z</time>
      </trkpt>
      <trkpt lat="47.86166" lon="-2.65712">
        <ele>128</ele>
        <time>2017-01-14T21:30:38Z</time>
      </trkpt>
      <trkpt lat="47.86166" lon="-2.65696">
        <ele>129</ele>
        <time>2017-01-14T21:32:38Z</time>
      </trkpt>
      <trkpt lat="47.86164" lon="-2.65682">
        <ele>129</ele>
        <time>2017-01-14T21:34:38Z</time>
      </trkpt>
      <trkpt lat="47.86164" lon="-2.65668">
        <ele>129</ele>
        <time>2017-01-14T21:36:38Z</time>
      </trkpt>
      <trkpt lat="47.86165" lon="-2.65641">
        <ele>129</ele>
        <time>2017-01-14T21:38:38Z</time>
      </trkpt>
      <trkpt lat="47.86163" lon="-2.65625">
        <ele>130</ele>
        <time>2017-01-14T21:40:38Z</time>
      </trkpt>
      <trkpt lat="47.8616" lon="-2.65612">
        <ele>130</ele>
        <time>2017-01-14T21:42:38Z</time>
      </trkpt>
      <trkpt lat="47.86157" lon="-2.65597">
        <ele>130</ele>
        <time>2017-01-14T21:44:38Z</time>
      </trkpt>
      <trkpt lat="47.86153" lon="-2.65584">
        <ele>131</ele>
        <time>2017-01-14T21:46:38Z</time>
      </trkpt>
      <trkpt lat="47.8615" lon="-2.65571">
        <ele>132</ele>
        <time>2017-01-14T21:48:38Z</time>
      </trkpt>
      <trkpt lat="47.86147" lon="-2.65558">
        <ele>133</ele>
        <time>2017-01-14T21:50:38Z</time>
      </trkpt>
      <trkpt lat="47.86144" lon="-2.65543">
        <ele>134</ele>
        <time>2017-01-14T21:52:38Z</time>
      </trkpt>
      <trkpt lat="47.86147" lon="-2.65502">
        <ele>136</ele>
        <time>2017-01-14T21:54:38Z</time>
      </trkpt>
      <trkpt lat="47.86151" lon="-2.65474">
        <ele>137</ele>
        <time>2017-01-14T21:56:38Z</time>
      </trkpt>
      <trkpt lat="47.86152" lon="-2.6546">
        <ele>137</ele>
        <time>2017-01-14T21:58:38Z</time>
      </trkpt>
      <trkpt lat="47.86154" lon="-2.65444">
        <ele>138</ele>
        <time>2017-01-14T22:00:38Z</time>
      </trkpt>
      <trkpt lat="47.86155" lon="-2.65431">
        <ele>138</ele>
        <time>2017-01-14T22:02:38Z</time>
      </trkpt>
      <trkpt lat="47.86158" lon="-2.65415">
        <ele>139</ele>
        <time>2017-01-14T22:04:38Z</time>
      </trkpt>
      <trkpt lat="47.86159" lon="-2.65402">
        <ele>139</ele>
        <time>2017-01-14T22:06:38Z</time>
      </trkpt>
      <trkpt lat="47.86161" lon="-2.65386">
        <ele>139</ele>
        <time>2017-01-14T22:08:38Z</time>
      </trkpt>
      <trkpt lat="47.86162" lon="-2.6537">
        <ele>139</ele>
        <time>2017-01-14T22:10:38Z</time>
      </trkpt>
      <trkpt lat="47.86163" lon="-2.65356">
        <ele>139</ele>
        <time>2017-01-14T22:12:38Z</time>
      </trkpt>
      <trkpt lat="47.86165" lon="-2.65342">
        <ele>139</ele>
        <time>2017-01-14T22:14:38Z</time>
      </trkpt>
      <trkpt lat="47.86165" lon="-2.65327">
        <ele>139</ele>
        <time>2017-01-14T22:16:38Z</time>
      </trkpt>
      <trkpt lat="47.86167" lon="-2.65312">
        <ele>138</ele>
        <time>2017-01-14T22:18:38Z</time>
      </trkpt>
      <trkpt lat="47.86169" lon="-2.65278">
        <ele>137</ele>
        <time>2017-01-14T22:20:38Z</time>
      </trkpt>
      <trkpt lat="47.8617" lon="-2.65264">
        <ele>137</ele>
        <time>2017-01-14T22:22:38Z</time>
      </trkpt>
      <trkpt lat="47.8617" lon="-2.65249">
        <ele>137</ele>
        <time>2017-01-14T22:24:38Z</time>
      </trkpt>
      <trkpt lat="47.86168" lon="-2.65235">
        <ele>137</ele>
        <time>2017-01-14T22:26:38Z</time>
      </trkpt>
      <trkpt lat="47.8617" lon="-2.6522">
        <ele>137</ele>
        <time>2017-01-14T22:28:38Z</time>
      </trkpt>
      <trkpt lat="47.86177" lon="-2.65194">
        <ele>136</ele>
        <time>2017-01-14T22:30:38Z</time>
      </trkpt>
      <trkpt lat="47.86191" lon="-2.65149">
        <ele>136</ele>
        <time>2017-01-14T22:32:38Z</time>
      </trkpt>
      <trkpt lat="47.86197" lon="-2.65136">
        <ele>135</ele>
        <time>2017-01-14T22:34:38Z</time>
      </trkpt>
      <trkpt lat="47.86201" lon="-2.65121">
        <ele>135</ele>
        <time>2017-01-14T22:36:38Z</time>
      </trkpt>
      <trkpt lat="47.86204" lon="-2.65107">
        <ele>135</ele>
        <time>2017-01-14T22:38:38Z</time>
      </trkpt>
      <trkpt lat="47.86209" lon="-2.65094">
        <ele>135</ele>
        <time>2017-01-14T22:40:38Z</time>
      </trkpt>
      <trkpt lat="47.86214" lon="-2.65082">
        <ele>134</ele>
        <time>2017-01-14T22:42:38Z</time>
      </trkpt>
      <trkpt lat="47.86218" lon="-2.65067">
        <ele>134</ele>
        <time>2017-01-14T22:44:38Z</time>
      </trkpt>
      <trkpt lat="47.86223" lon="-2.65055">
        <ele>134</ele>
        <time>2017-01-14T22:46:38Z</time>
      </trkpt>
      <trkpt lat="47.86227" lon="-2.65043">
        <ele>133</ele>
        <time>2017-01-14T22:48:38Z</time>
      </trkpt>
      <trkpt lat="47.86237" lon="-2.65014">
        <ele>134</ele>
        <time>2017-01-14T22:50:38Z</time>
      </trkpt>
      <trkpt lat="47.86241" lon="-2.65">
        <ele>134</ele>
        <time>2017-01-14T22:52:38Z</time>
      </trkpt>
      <trkpt lat="47.86245" lon="-2.64987">
        <ele>134</ele>
        <time>2017-01-14T22:54:38Z</time>
      </trkpt>
      <trkpt lat="47.86256" lon="-2.64962">
        <ele>133</ele>
        <time>2017-01-14T22:56:38Z</time>
      </trkpt>
      <trkpt lat="47.8626" lon="-2.6495">
        <ele>133</ele>
        <time>2017-01-14T22:58:38Z</time>
      </trkpt>
      <trkpt lat="47.86263" lon="-2.64936">
        <ele>133</ele>
        <time>2017-01-14T23:00:38Z</time>
      </trkpt>
      <trkpt lat="47.86264" lon="-2.6492">
        <ele>133</ele>
        <time>2017-01-14T23:02:38Z</time>
      </trkpt>
      <trkpt lat="47.86264" lon="-2.64905">
        <ele>133</ele>
        <time>2017-01-14T23:04:38Z</time>
      </trkpt>
      <trkpt lat="47.86263" lon="-2.64891">
        <ele>133</ele>
        <time>2017-01-14T23:06:38Z</time>
      </trkpt>
      <trkpt lat="47.86262" lon="-2.64876">
        <ele>133</ele>
        <time>2017-01-14T23:08:38Z</time>
      </trkpt>
      <trkpt lat="47.86261" lon="-2.6486">
        <ele>134</ele>
        <time>2017-01-14T23:10:38Z</time>
      </trkpt>
      <trkpt lat="47.8626" lon="-2.64845">
        <ele>134</ele>
        <time>2017-01-14T23:12:38Z</time>
      </trkpt>
      <trkpt lat="47.86258" lon="-2.6483">
        <ele>134</ele>
        <time>2017-01-14T23:14:38Z</time>
      </trkpt>
      <trkpt lat="47.86254" lon="-2.64817">
        <ele>135</ele>
        <time>2017-01-14T23:16:38Z</time>
      </trkpt>
      <trkpt lat="47.8625" lon="-2.64802">
        <ele>135</ele>
        <time>2017-01-14T23:18:38Z</time>
      </trkpt>
      <trkpt lat="47.86249" lon="-2.64787">
        <ele>135</ele>
        <time>2017-01-14T23:20:38Z</time>
      </trkpt>
      <trkpt lat="47.86251" lon="-2.6477">
        <ele>135</ele>
        <time>2017-01-14T23:22:38Z</time>
      </trkpt>
      <trkpt lat="47.86258" lon="-2.64759">
        <ele>134</ele>
        <time>2017-01-14T23:24:38Z</time>
      </trkpt>
      <trkpt lat="47.86268" lon="-2.64753">
        <ele>134</ele>
        <time>2017-01-14T23:26:38Z</time>
      </trkpt>
      <trkpt lat="47.86277" lon="-2.64747">
        <ele>133</ele>
        <time>2017-01-14T23:28:38Z</time>
      </trkpt>
      <trkpt lat="47.86286" lon="-2.64742">
        <ele>133</ele>
        <time>2017-01-14T23:30:38Z</time>
      </trkpt>
      <trkpt lat="47.86295" lon="-2.64739">
        <ele>132</ele>
        <time>2017-01-14T23:32:38Z</time>
      </trkpt>
      <trkpt lat="47.86304" lon="-2.64738">
        <ele>132</ele>
        <time>2017-01-14T23:34:38Z</time>
      </trkpt>
      <trkpt lat="47.86314" lon="-2.64744">
        <ele>131</ele>
        <time>2017-01-14T23:36:38Z</time>
      </trkpt>
      <trkpt lat="47.86323" lon="-2.64749">
        <ele>131</ele>
        <time>2017-01-14T23:38:38Z</time>
      </trkpt>
      <trkpt lat="47.86333" lon="-2.64752">
        <ele>130</ele>
        <time>2017-01-14T23:40:38Z</time>
      </trkpt>
      <trkpt lat="47.86343" lon="-2.6476">
        <ele>129</ele>
        <time>2017-01-14T23:42:38Z</time>
      </trkpt>
      <trkpt lat="47.86352" lon="-2.64769">
        <ele>129</ele>
        <time>2017-01-14T23:44:38Z</time>
      </trkpt>
      <trkpt lat="47.86379" lon="-2.6479">
        <ele>127</ele>
        <time>2017-01-14T23:46:38Z</time>
      </trkpt>
      <trkpt lat="47.86406" lon="-2.64811">
        <ele>126</ele>
        <time>2017-01-14T23:48:38Z</time>
      </trkpt>
      <trkpt lat="47.86415" lon="-2.64819">
        <ele>126</ele>
        <time>2017-01-14T23:50:38Z</time>
      </trkpt>
      <trkpt lat="47.86434" lon="-2.64833">
        <ele>125</ele>
        <time>2017-01-14T23:52:38Z</time>
      </trkpt>
      <trkpt lat="47.86452" lon="-2.64848">
        <ele>124</ele>
        <time>2017-01-14T23:54:38Z</time>
      </trkpt>
      <trkpt lat="47.86461" lon="-2.64856">
        <ele>123</ele>
        <time>2017-01-14T23:56:38Z</time>
      </trkpt>
      <trkpt lat="47.86471" lon="-2.64862">
        <ele>123</ele>
        <time>2017-01-14T23:58:38Z</time>
      </trkpt>
      <trkpt lat="47.8648" lon="-2.64868">
        <ele>122</ele>
        <time>2017-01-15T00:00:38Z</time>
      </trkpt>
      <trkpt lat="47.86489" lon="-2.64866">
        <ele>122</ele>
        <time>2017-01-15T00:02:38Z</time>
      </trkpt>
      <trkpt lat="47.86491" lon="-2.6485">
        <ele>123</ele>
        <time>2017-01-15T00:04:38Z</time>
      </trkpt>
      <trkpt lat="47.86497" lon="-2.64824">
        <ele>123</ele>
        <time>2017-01-15T00:06:38Z</time>
      </trkpt>
      <trkpt lat="47.865" lon="-2.64812">
        <ele>124</ele>
        <time>2017-01-15T00:08:38Z</time>
      </trkpt>
      <trkpt lat="47.86503" lon="-2.64797">
        <ele>124</ele>
        <time>2017-01-15T00:10:38Z</time>
      </trkpt>
      <trkpt lat="47.86506" lon="-2.64782">
        <ele>124</ele>
        <time>2017-01-15T00:12:38Z</time>
      </trkpt>
      <trkpt lat="47.86512" lon="-2.64769">
        <ele>123</ele>
        <time>2017-01-15T00:14:38Z</time>
      </trkpt>
      <trkpt lat="47.86515" lon="-2.64757">
        <ele>123</ele>
        <time>2017-01-15T00:16:38Z</time>
      </trkpt>
      <trkpt lat="47.86518" lon="-2.64742">
        <ele>123</ele>
        <time>2017-01-15T00:18:38Z</time>
      </trkpt>
      <trkpt lat="47.86523" lon="-2.64728">
        <ele>123</ele>
        <time>2017-01-15T00:20:38Z</time>
      </trkpt>
      <trkpt lat="47.86526" lon="-2.64713">
        <ele>122</ele>
        <time>2017-01-15T00:22:38Z</time>
      </trkpt>
      <trkpt lat="47.86532" lon="-2.64702">
        <ele>122</ele>
        <time>2017-01-15T00:24:38Z</time>
      </trkpt>
      <trkpt lat="47.86538" lon="-2.64687">
        <ele>121</ele>
        <time>2017-01-15T00:26:38Z</time>
      </trkpt>
      <trkpt lat="47.86541" lon="-2.64672">
        <ele>121</ele>
        <time>2017-01-15T00:28:38Z</time>
      </trkpt>
      <trkpt lat="47.8654" lon="-2.64657">
        <ele>121</ele>
        <time>2017-01-15T00:30:38Z</time>
      </trkpt>
      <trkpt lat="47.86541" lon="-2.6464">
        <ele>122</ele>
        <time>2017-01-15T00:32:38Z</time>
      </trkpt>
      <trkpt lat="47.86539" lon="-2.64625">
        <ele>122</ele>
        <time>2017-01-15T00:34:38Z</time>
      </trkpt>
      <trkpt lat="47.86543" lon="-2.64608">
        <ele>122</ele>
        <time>2017-01-15T00:36:38Z</time>
      </trkpt>
      <trkpt lat="47.86546" lon="-2.64591">
        <ele>122</ele>
        <time>2017-01-15T00:38:38Z</time>
      </trkpt>
      <trkpt lat="47.86554" lon="-2.64583">
        <ele>122</ele>
        <time>2017-01-15T00:40:38Z</time>
      </trkpt>
      <trkpt lat="47.8657" lon="-2.64575">
        <ele>122</ele>
        <time>2017-01-15T00:42:38Z</time>
      </trkpt>
      <trkpt lat="47.86585" lon="-2.64566">
        <ele>121</ele>
        <time>2017-01-15T00:44:38Z</time>
      </trkpt>
      <trkpt lat="47.86593" lon="-2.64552">
        <ele>122</ele>
        <time>2017-01-15T00:46:38Z</time>
      </trkpt>
      <trkpt lat="47.86603" lon="-2.64536">
        <ele>122</ele>
        <time>2017-01-15T00:48:38Z</time>
      </trkpt>
      <trkpt lat="47.86612" lon="-2.64523">
        <ele>122</ele>
        <time>2017-01-15T00:50:38Z</time>
      </trkpt>
      <trkpt lat="47.86619" lon="-2.64511">
        <ele>122</ele>
        <time>2017-01-15T00:52:38Z</time>
      </trkpt>
      <trkpt lat="47.86627" lon="-2.64497">
        <ele>122</ele>
        <time>2017-01-15T00:54:38Z</time>
      </trkpt>
      <trkpt lat="47.86634" lon="-2.64481">
        <ele>122</ele>
        <time>2017-01-15T00:56:38Z</time>
      </trkpt>
      <trkpt lat="47.86642" lon="-2.64466">
        <ele>122</ele>
        <time>2017-01-15T00:58:38Z</time>
      </trkpt>
      <trkpt lat="47.86645" lon="-2.64451">
        <ele>122</ele>
        <time>2017-01-15T01:00:38Z</time>
      </trkpt>
      <trkpt lat="47.86649" lon="-2.64435">
        <ele>123</ele>
        <time>2017-01-15T01:02:38Z</time>
      </trkpt>
      <trkpt lat="47.86663" lon="-2.64407">
        <ele>123</ele>
        <time>2017-01-15T01:04:38Z</time>
      </trkpt>
      <trkpt lat="47.86666" lon="-2.64393">
        <ele>122</ele>
        <time>2017-01-15T01:06:38Z</time>
      </trkpt>
      <trkpt lat="47.8667" lon="-2.64378">
        <ele>122</ele>
        <time>2017-01-15T01:08:38Z</time>
      </trkpt>
      <trkpt lat="47.8667" lon="-2.64364">
        <ele>122</ele>
        <time>2017-01-15T01:10:38Z</time>
      </trkpt>
      <trkpt lat="47.86666" lon="-2.64332">
        <ele>123</ele>
        <time>2017-01-15T01:12:38Z</time>
      </trkpt>
      <trkpt lat="47.86665" lon="-2.64316">
        <ele>122</ele>
        <time>2017-01-15T01:14:38Z</time>
      </trkpt>
      <trkpt lat="47.86666" lon="-2.64301">
        <ele>122</ele>
        <time>2017-01-15T01:16:38Z</time>
      </trkpt>
      <trkpt lat="47.86663" lon="-2.64284">
        <ele>121</ele>
        <time>2017-01-15T01:18:38Z</time>
      </trkpt>
      <trkpt lat="47.86652" lon="-2.64237">
        <ele>121</ele>
        <time>2017-01-15T01:20:38Z</time>
      </trkpt>
      <trkpt lat="47.86651" lon="-2.6422">
        <ele>120</ele>
        <time>2017-01-15T01:22:38Z</time>
      </trkpt>
      <trkpt lat="47.86652" lon="-2.64201">
        <ele>119</ele>
        <time>2017-01-15T01:24:38Z</time>
      </trkpt>
      <trkpt lat="47.86651" lon="-2.64166">
        <ele>119</ele>
        <time>2017-01-15T01:26:38Z</time>
      </trkpt>
      <trkpt lat="47.8665" lon="-2.64149">
        <ele>119</ele>
        <time>2017-01-15T01:28:38Z</time>
      </trkpt>
      <trkpt lat="47.86649" lon="-2.64131">
        <ele>120</ele>
        <time>2017-01-15T01:30:38Z</time>
      </trkpt>
      <trkpt lat="47.86654" lon="-2.64113">
        <ele>120</ele>
        <time>2017-01-15T01:32:38Z</time>
      </trkpt>
      <trkpt lat="47.86667" lon="-2.64102">
        <ele>120</ele>
        <time>2017-01-15T01:34:38Z</time>
      </trkpt>
      <trkpt lat="47.86694" lon="-2.64095">
        <ele>118</ele>
        <time>2017-01-15T01:36:38Z</time>
      </trkpt>
      <trkpt lat="47.86706" lon="-2.64092">
        <ele>117</ele>
        <time>2017-01-15T01:38:38Z</time>
      </trkpt>
      <trkpt lat="47.8672" lon="-2.64092">
        <ele>116</ele>
        <time>2017-01-15T01:40:38Z</time>
      </trkpt>
      <trkpt lat="47.86734" lon="-2.6409">
        <ele>115</ele>
        <time>2017-01-15T01:42:38Z</time>
      </trkpt>
      <trkpt lat="47.86744" lon="-2.6409">
        <ele>114</ele>
        <time>2017-01-15T01:44:38Z</time>
      </trkpt>
      <trkpt lat="47.86754" lon="-2.64093">
        <ele>114</ele>
        <time>2017-01-15T01:46:38Z</time>
      </trkpt>
      <trkpt lat="47.86768" lon="-2.64095">
        <ele>114</ele>
        <time>2017-01-15T01:48:38Z</time>
      </trkpt>
      <trkpt lat="47.86781" lon="-2.64092">
        <ele>115</ele>
        <time>2017-01-15T01:50:38Z</time>
      </trkpt>
      <trkpt lat="47.86792" lon="-2.64084">
        <ele>115</ele>
        <time>2017-01-15T01:52:38Z</time>
      </trkpt>
      <trkpt lat="47.86801" lon="-2.64076">
        <ele>116</ele>
        <time>2017-01-15T01:54:38Z</time>
      </trkpt>
      <trkpt lat="47.86808" lon="-2.64066">
        <ele>117</ele>
        <time>2017-01-15T01:56:38Z</time>
      </trkpt>
      <trkpt lat="47.86817" lon="-2.6406">
        <ele>117</ele>
        <time>2017-01-15T01:58:38Z</time>
      </trkpt>
      <trkpt lat="47.86826" lon="-2.64056">
        <ele>117</ele>
        <time>2017-01-15T02:00:38Z</time>
      </trkpt>
      <trkpt lat="47.86837" lon="-2.64057">
        <ele>118</ele>
        <time>2017-01-15T02:02:38Z</time>
      </trkpt>
      <trkpt lat="47.86843" lon="-2.64046">
        <ele>118</ele>
        <time>2017-01-15T02:04:38Z</time>
      </trkpt>
      <trkpt lat="47.86846" lon="-2.64032">
        <ele>118</ele>
        <time>2017-01-15T02:06:38Z</time>
      </trkpt>
      <trkpt lat="47.86849" lon="-2.64017">
        <ele>119</ele>
        <time>2017-01-15T02:08:38Z</time>
      </trkpt>
      <trkpt lat="47.86851" lon="-2.64003">
        <ele>119</ele>
        <time>2017-01-15T02:10:38Z</time>
      </trkpt>
      <trkpt lat="47.86852" lon="-2.63988">
        <ele>119</ele>
        <time>2017-01-15T02:12:38Z</time>
      </trkpt>
      <trkpt lat="47.86852" lon="-2.63973">
        <ele>119</ele>
        <time>2017-01-15T02:14:38Z</time>
      </trkpt>
      <trkpt lat="47.86854" lon="-2.6396">
        <ele>120</ele>
        <time>2017-01-15T02:16:38Z</time>
      </trkpt>
      <trkpt lat="47.86854" lon="-2.63945">
        <ele>120</ele>
        <time>2017-01-15T02:18:38Z</time>
      </trkpt>
      <trkpt lat="47.86854" lon="-2.63931">
        <ele>120</ele>
        <time>2017-01-15T02:20:38Z</time>
      </trkpt>
      <trkpt lat="47.86857" lon="-2.63917">
        <ele>120</ele>
        <time>2017-01-15T02:22:38Z</time>
      </trkpt>
      <trkpt lat="47.86857" lon="-2.63901">
        <ele>120</ele>
        <time>2017-01-15T02:24:38Z</time>
      </trkpt>
      <trkpt lat="47.86858" lon="-2.63886">
        <ele>121</ele>
        <time>2017-01-15T02:26:38Z</time>
      </trkpt>
      <trkpt lat="47.8686" lon="-2.63871">
        <ele>121</ele>
        <time>2017-01-15T02:28:38Z</time>
      </trkpt>
      <trkpt lat="47.8686" lon="-2.63857">
        <ele>121</ele>
        <time>2017-01-15T02:30:38Z</time>
      </trkpt>
      <trkpt lat="47.8686" lon="-2.63842">
        <ele>121</ele>
        <time>2017-01-15T02:32:38Z</time>
      </trkpt>
      <trkpt lat="47.86861" lon="-2.63827">
        <ele>121</ele>
        <time>2017-01-15T02:34:38Z</time>
      </trkpt>
      <trkpt lat="47.86861" lon="-2.63813">
        <ele>121</ele>
        <time>2017-01-15T02:36:38Z</time>
      </trkpt>
      <trkpt lat="47.8686" lon="-2.638">
        <ele>121</ele>
        <time>2017-01-15T02:38:38Z</time>
      </trkpt>
      <trkpt lat="47.8686" lon="-2.63784">
        <ele>121</ele>
        <time>2017-01-15T02:40:38Z</time>
      </trkpt>
      <trkpt lat="47.86859" lon="-2.63769">
        <ele>121</ele>
        <time>2017-01-15T02:42:38Z</time>
      </trkpt>
      <trkpt lat="47.86859" lon="-2.63754">
        <ele>121</ele>
        <time>2017-01-15T02:44:38Z</time>
      </trkpt>
      <trkpt lat="47.86858" lon="-2.63738">
        <ele>121</ele>
        <time>2017-01-15T02:46:38Z</time>
      </trkpt>
      <trkpt lat="47.86856" lon="-2.63722">
        <ele>121</ele>
        <time>2017-01-15T02:48:38Z</time>
      </trkpt>
      <trkpt lat="47.86858" lon="-2.63707">
        <ele>121</ele>
        <time>2017-01-15T02:50:38Z</time>
      </trkpt>
      <trkpt lat="47.86856" lon="-2.63692">
        <ele>121</ele>
        <time>2017-01-15T02:52:38Z</time>
      </trkpt>
      <trkpt lat="47.86855" lon="-2.63676">
        <ele>121</ele>
        <time>2017-01-15T02:54:38Z</time>
      </trkpt>
      <trkpt lat="47.86856" lon="-2.63661">
        <ele>120</ele>
        <time>2017-01-15T02:56:38Z</time>
      </trkpt>
      <trkpt lat="47.86855" lon="-2.63648">
        <ele>120</ele>
        <time>2017-01-15T02:58:38Z</time>
      </trkpt>
      <trkpt lat="47.86855" lon="-2.63633">
        <ele>120</ele>
        <time>2017-01-15T03:00:38Z</time>
      </trkpt>
      <trkpt lat="47.86857" lon="-2.63621">
        <ele>120</ele>
        <time>2017-01-15T03:02:38Z</time>
      </trkpt>
      <trkpt lat="47.86859" lon="-2.63607">
        <ele>120</ele>
        <time>2017-01-15T03:04:38Z</time>
      </trkpt>
      <trkpt lat="47.86863" lon="-2.63595">
        <ele>120</ele>
        <time>2017-01-15T03:06:38Z</time>
      </trkpt>
      <trkpt lat="47.86871" lon="-2.63568">
        <ele>120</ele>
        <time>2017-01-15T03:08:38Z</time>
      </trkpt>
      <trkpt lat="47.86872" lon="-2.63554">
        <ele>120</ele>
        <time>2017-01-15T03:10:38Z</time>
      </trkpt>
      <trkpt lat="47.86874" lon="-2.63539">
        <ele>120</ele>
        <time>2017-01-15T03:12:38Z</time>
      </trkpt>
      <trkpt lat="47.86872" lon="-2.63525">
        <ele>120</ele>
        <time>2017-01-15T03:14:38Z</time>
      </trkpt>
      <trkpt lat="47.86869" lon="-2.63508">
        <ele>120</ele>
        <time>2017-01-15T03:16:38Z</time>
      </trkpt>
      <trkpt lat="47.8686" lon="-2.63479">
        <ele>120</ele>
        <time>2017-01-15T03:18:38Z</time>
      </trkpt>
      <trkpt lat="47.86851" lon="-2.63453">
        <ele>120</ele>
        <time>2017-01-15T03:20:38Z</time>
      </trkpt>
      <trkpt lat="47.86847" lon="-2.6344">
        <ele>121</ele>
        <time>2017-01-15T03:22:38Z</time>
      </trkpt>
      <trkpt lat="47.86848" lon="-2.63424">
        <ele>121</ele>
        <time>2017-01-15T03:24:38Z</time>
      </trkpt>
      <trkpt lat="47.86851" lon="-2.63409">
        <ele>121</ele>
        <time>2017-01-15T03:26:38Z</time>
      </trkpt>
      <trkpt lat="47.86853" lon="-2.63395">
        <ele>121</ele>
        <time>2017-01-15T03:28:38Z</time>
      </trkpt>
      <trkpt lat="47.86857" lon="-2.63382">
        <ele>120</ele>
        <time>2017-01-15T03:30:38Z</time>
      </trkpt>
      <trkpt lat="47.86861" lon="-2.63369">
        <ele>120</ele>
        <time>2017-01-15T03:32:38Z</time>
      </trkpt>
      <trkpt lat="47.86862" lon="-2.63356">
        <ele>120</ele>
        <time>2017-01-15T03:34:38Z</time>
      </trkpt>
      <trkpt lat="47.86865" lon="-2.63342">
        <ele>120</ele>
        <time>2017-01-15T03:36:38Z</time>
      </trkpt>
      <trkpt lat="47.86873" lon="-2.63316">
        <ele>120</ele>
        <time>2017-01-15T03:38:38Z</time>
      </trkpt>
      <trkpt lat="47.86882" lon="-2.63307">
        <ele>120</ele>
        <time>2017-01-15T03:40:38Z</time>
      </trkpt>
      <trkpt lat="47.8689" lon="-2.63303">
        <ele>120</ele>
        <time>2017-01-15T03:42:38Z</time>
      </trkpt>
      <trkpt lat="47.86893" lon="-2.63303">
        <ele>120</ele>
        <time>2017-01-15T03:44:38Z</time>
      </trkpt>
      <trkpt lat="47.8689" lon="-2.63299">
        <ele>120</ele>
        <time>2017-01-15T03:46:38Z</time>
      </trkpt>
      <trkpt lat="47.86877" lon="-2.63284">
        <ele>120</ele>
        <time>2017-01-15T03:48:38Z</time>
      </trkpt>
      <trkpt lat="47.86867" lon="-2.63271">
        <ele>120</ele>
        <time>2017-01-15T03:50:38Z</time>
      </trkpt>
      <trkpt lat="47.86858" lon="-2.63261">
        <ele>120</ele>
        <time>2017-01-15T03:52:38Z</time>
      </trkpt>
      <trkpt lat="47.86851" lon="-2.63247">
        <ele>120</ele>
        <time>2017-01-15T03:54:38Z</time>
      </trkpt>
      <trkpt lat="47.86846" lon="-2.63235">
        <ele>120</ele>
        <time>2017-01-15T03:56:38Z</time>
      </trkpt>
      <trkpt lat="47.86838" lon="-2.63227">
        <ele>120</ele>
        <time>2017-01-15T03:58:38Z</time>
      </trkpt>
      <trkpt lat="47.86829" lon="-2.63222">
        <ele>121</ele>
        <time>2017-01-15T04:00:38Z</time>
      </trkpt>
      <trkpt lat="47.86821" lon="-2.63215">
        <ele>121</ele>
        <time>2017-01-15T04:02:38Z</time>
      </trkpt>
      <trkpt lat="47.86817" lon="-2.632">
        <ele>122</ele>
        <time>2017-01-15T04:04:38Z</time>
      </trkpt>
      <trkpt lat="47.86822" lon="-2.63186">
        <ele>121</ele>
        <time>2017-01-15T04:06:38Z</time>
      </trkpt>
      <trkpt lat="47.86826" lon="-2.63172">
        <ele>121</ele>
        <time>2017-01-15T04:08:38Z</time>
      </trkpt>
      <trkpt lat="47.8683" lon="-2.6316">
        <ele>121</ele>
        <time>2017-01-15T04:10:38Z</time>
      </trkpt>
      <trkpt lat="47.86834" lon="-2.63145">
        <ele>121</ele>
        <time>2017-01-15T04:12:38Z</time>
      </trkpt>
      <trkpt lat="47.86839" lon="-2.63115">
        <ele>122</ele>
        <time>2017-01-15T04:14:38Z</time>
      </trkpt>
      <trkpt lat="47.8684" lon="-2.63102">
        <ele>123</ele>
        <time>2017-01-15T04:16:38Z</time>
      </trkpt>
      <trkpt lat="47.86841" lon="-2.63087">
        <ele>123</ele>
        <time>2017-01-15T04:18:38Z</time>
      </trkpt>
      <trkpt lat="47.8684" lon="-2.63058">
        <ele>125</ele>
        <time>2017-01-15T04:20:38Z</time>
      </trkpt>
      <trkpt lat="47.86839" lon="-2.63045">
        <ele>126</ele>
        <time>2017-01-15T04:22:38Z</time>
      </trkpt>
      <trkpt lat="47.86839" lon="-2.6301">
        <ele>129</ele>
        <time>2017-01-15T04:24:38Z</time>
      </trkpt>
      <trkpt lat="47.8684" lon="-2.62994">
        <ele>131</ele>
        <time>2017-01-15T04:26:38Z</time>
      </trkpt>
      <trkpt lat="47.86844" lon="-2.62965">
        <ele>134</ele>
        <time>2017-01-15T04:28:38Z</time>
      </trkpt>
      <trkpt lat="47.86846" lon="-2.62951">
        <ele>136</ele>
        <time>2017-01-15T04:30:38Z</time>
      </trkpt>
      <trkpt lat="47.86846" lon="-2.62922">
        <ele>139</ele>
        <time>2017-01-15T04:32:38Z</time>
      </trkpt>
      <trkpt lat="47.86845" lon="-2.62905">
        <ele>141</ele>
        <time>2017-01-15T04:34:38Z</time>
      </trkpt>
      <trkpt lat="47.8685" lon="-2.62892">
        <ele>142</ele>
        <time>2017-01-15T04:36:38Z</time>
      </trkpt>
      <trkpt lat="47.86855" lon="-2.6288">
        <ele>143</ele>
        <time>2017-01-15T04:38:38Z</time>
      </trkpt>
      <trkpt lat="47.86859" lon="-2.62866">
        <ele>144</ele>
        <time>2017-01-15T04:40:38Z</time>
      </trkpt>
      <trkpt lat="47.86863" lon="-2.62854">
        <ele>146</ele>
        <time>2017-01-15T04:42:38Z</time>
      </trkpt>
      <trkpt lat="47.86871" lon="-2.62826">
        <ele>148</ele>
        <time>2017-01-15T04:44:38Z</time>
      </trkpt>
      <trkpt lat="47.86875" lon="-2.62801">
        <ele>148</ele>
        <time>2017-01-15T04:46:38Z</time>
      </trkpt>
      <trkpt lat="47.86867" lon="-2.62792">
        <ele>149</ele>
        <time>2017-01-15T04:48:38Z</time>
      </trkpt>
      <trkpt lat="47.86842" lon="-2.62778">
        <ele>149</ele>
        <time>2017-01-15T04:50:38Z</time>
      </trkpt>
      <trkpt lat="47.86828" lon="-2.6277">
        <ele>149</ele>
        <time>2017-01-15T04:52:38Z</time>
      </trkpt>
      <trkpt lat="47.86816" lon="-2.62762">
        <ele>150</ele>
        <time>2017-01-15T04:54:38Z</time>
      </trkpt>
      <trkpt lat="47.86804" lon="-2.62752">
        <ele>151</ele>
        <time>2017-01-15T04:56:38Z</time>
      </trkpt>
      <trkpt lat="47.86792" lon="-2.62744">
        <ele>152</ele>
        <time>2017-01-15T04:58:38Z</time>
      </trkpt>
      <trkpt lat="47.86782" lon="-2.62737">
        <ele>152</ele>
        <time>2017-01-15T05:00:38Z</time>
      </trkpt>
      <trkpt lat="47.86771" lon="-2.62732">
        <ele>153</ele>
        <time>2017-01-15T05:02:38Z</time>
      </trkpt>
      <trkpt lat="47.86759" lon="-2.62726">
        <ele>153</ele>
        <time>2017-01-15T05:04:38Z</time>
      </trkpt>
      <trkpt lat="47.86748" lon="-2.62721">
        <ele>153</ele>
        <time>2017-01-15T05:06:38Z</time>
      </trkpt>
      <trkpt lat="47.86737" lon="-2.62716">
        <ele>153</ele>
        <time>2017-01-15T05:08:38Z</time>
      </trkpt>
      <trkpt lat="47.86727" lon="-2.62708">
        <ele>153</ele>
        <time>2017-01-15T05:10:38Z</time>
      </trkpt>
      <trkpt lat="47.86719" lon="-2.62703">
        <ele>153</ele>
        <time>2017-01-15T05:12:38Z</time>
      </trkpt>
      <trkpt lat="47.86699" lon="-2.62694">
        <ele>153</ele>
        <time>2017-01-15T05:14:38Z</time>
      </trkpt>
      <trkpt lat="47.86691" lon="-2.62684">
        <ele>153</ele>
        <time>2017-01-15T05:16:38Z</time>
      </trkpt>
      <trkpt lat="47.86692" lon="-2.62668">
        <ele>153</ele>
        <time>2017-01-15T05:18:38Z</time>
      </trkpt>
      <trkpt lat="47.86701" lon="-2.62623">
        <ele>155</ele>
        <time>2017-01-15T05:20:38Z</time>
      </trkpt>
      <trkpt lat="47.86705" lon="-2.62597">
        <ele>156</ele>
        <time>2017-01-15T05:22:38Z</time>
      </trkpt>
      <trkpt lat="47.86709" lon="-2.62552">
        <ele>158</ele>
        <time>2017-01-15T05:24:38Z</time>
      </trkpt>
      <trkpt lat="47.86712" lon="-2.62538">
        <ele>158</ele>
        <time>2017-01-15T05:26:38Z</time>
      </trkpt>
      <trkpt lat="47.86715" lon="-2.62525">
        <ele>159</ele>
        <time>2017-01-15T05:28:38Z</time>
      </trkpt>
      <trkpt lat="47.86717" lon="-2.62511">
        <ele>159</ele>
        <time>2017-01-15T05:30:38Z</time>
      </trkpt>
      <trkpt lat="47.86719" lon="-2.62499">
        <ele>159</ele>
        <time>2017-01-15T05:32:38Z</time>
      </trkpt>
      <trkpt lat="47.86722" lon="-2.62486">
        <ele>159</ele>
        <time>2017-01-15T05:34:38Z</time>
      </trkpt>
      <trkpt lat="47.86729" lon="-2.6246">
        <ele>159</ele>
        <time>2017-01-15T05:36:38Z</time>
      </trkpt>
      <trkpt lat="47.86732" lon="-2.62446">
        <ele>159</ele>
        <time>2017-01-15T05:38:38Z</time>
      </trkpt>
      <trkpt lat="47.8674" lon="-2.62418">
        <ele>159</ele>
        <time>2017-01-15T05:40:38Z</time>
      </trkpt>
      <trkpt lat="47.86743" lon="-2.62404">
        <ele>159</ele>
        <time>2017-01-15T05:42:38Z</time>
      </trkpt>
      <trkpt lat="47.86742" lon="-2.6239">
        <ele>159</ele>
        <time>2017-01-15T05:44:38Z</time>
      </trkpt>
      <trkpt lat="47.86734" lon="-2.62381">
        <ele>159</ele>
        <time>2017-01-15T05:46:38Z</time>
      </trkpt>
      <trkpt lat="47.86726" lon="-2.62373">
        <ele>158</ele>
        <time>2017-01-15T05:48:38Z</time>
      </trkpt>
      <trkpt lat="47.86708" lon="-2.62359">
        <ele>158</ele>
        <time>2017-01-15T05:50:38Z</time>
      </trkpt>
      <trkpt lat="47.867" lon="-2.62353">
        <ele>158</ele>
        <time>2017-01-15T05:52:38Z</time>
      </trkpt>
      <trkpt lat="47.86692" lon="-2.62346">
        <ele>158</ele>
        <time>2017-01-15T05:54:38Z</time>
      </trkpt>
      <trkpt lat="47.86683" lon="-2.62339">
        <ele>158</ele>
        <time>2017-01-15T05:56:38Z</time>
      </trkpt>
      <trkpt lat="47.86675" lon="-2.62332">
        <ele>158</ele>
        <time>2017-01-15T05:58:38Z</time>
      </trkpt>
      <trkpt lat="47.86666" lon="-2.62326">
        <ele>158</ele>
        <time>2017-01-15T06:00:38Z</time>
      </trkpt>
      <trkpt lat="47.86658" lon="-2.62322">
        <ele>158</ele>
        <time>2017-01-15T06:02:38Z</time>
      </trkpt>
      <trkpt lat="47.86649" lon="-2.62319">
        <ele>158</ele>
        <time>2017-01-15T06:04:38Z</time>
      </trkpt>
      <trkpt lat="47.8664" lon="-2.62313">
        <ele>158</ele>
        <time>2017-01-15T06:06:38Z</time>
      </trkpt>
      <trkpt lat="47.8663" lon="-2.62309">
        <ele>158</ele>
        <time>2017-01-15T06:08:38Z</time>
      </trkpt>
      <trkpt lat="47.86612" lon="-2.62302">
        <ele>158</ele>
        <time>2017-01-15T06:10:38Z</time>
      </trkpt>
      <trkpt lat="47.86603" lon="-2.62298">
        <ele>158</ele>
        <time>2017-01-15T06:12:38Z</time>
      </trkpt>
      <trkpt lat="47.86593" lon="-2.62292">
        <ele>158</ele>
        <time>2017-01-15T06:14:38Z</time>
      </trkpt>
      <trkpt lat="47.86576" lon="-2.62277">
        <ele>158</ele>
        <time>2017-01-15T06:16:38Z</time>
      </trkpt>
      <trkpt lat="47.86566" lon="-2.62272">
        <ele>158</ele>
        <time>2017-01-15T06:18:38Z</time>
      </trkpt>
      <trkpt lat="47.86556" lon="-2.62265">
        <ele>158</ele>
        <time>2017-01-15T06:20:38Z</time>
      </trkpt>
      <trkpt lat="47.86547" lon="-2.62258">
        <ele>158</ele>
        <time>2017-01-15T06:22:38Z</time>
      </trkpt>
      <trkpt lat="47.86537" lon="-2.62252">
        <ele>158</ele>
        <time>2017-01-15T06:24:38Z</time>
      </trkpt>
      <trkpt lat="47.86527" lon="-2.62249">
        <ele>158</ele>
        <time>2017-01-15T06:26:38Z</time>
      </trkpt>
      <trkpt lat="47.86517" lon="-2.62246">
        <ele>158</ele>
        <time>2017-01-15T06:28:38Z</time>
      </trkpt>
      <trkpt lat="47.86507" lon="-2.62245">
        <ele>158</ele>
        <time>2017-01-15T06:30:38Z</time>
      </trkpt>
      <trkpt lat="47.86495" lon="-2.6224">
        <ele>159</ele>
        <time>2017-01-15T06:32:38Z</time>
      </trkpt>
      <trkpt lat="47.86484" lon="-2.62237">
        <ele>159</ele>
        <time>2017-01-15T06:34:38Z</time>
      </trkpt>
      <trkpt lat="47.86472" lon="-2.62239">
        <ele>160</ele>
        <time>2017-01-15T06:36:38Z</time>
      </trkpt>
      <trkpt lat="47.86446" lon="-2.62228">
        <ele>161</ele>
        <time>2017-01-15T06:38:38Z</time>
      </trkpt>
      <trkpt lat="47.86433" lon="-2.62221">
        <ele>162</ele>
        <time>2017-01-15T06:40:38Z</time>
      </trkpt>
      <trkpt lat="47.86423" lon="-2.62217">
        <ele>163</ele>
        <time>2017-01-15T06:42:38Z</time>
      </trkpt>
      <trkpt lat="47.86412" lon="-2.62213">
        <ele>163</ele>
        <time>2017-01-15T06:44:38Z</time>
      </trkpt>
      <trkpt lat="47.86398" lon="-2.62209">
        <ele>163</ele>
        <time>2017-01-15T06:46:38Z</time>
      </trkpt>
      <trkpt lat="47.86387" lon="-2.62211">
        <ele>163</ele>
        <time>2017-01-15T06:48:38Z</time>
      </trkpt>
      <trkpt lat="47.86374" lon="-2.62206">
        <ele>164</ele>
        <time>2017-01-15T06:50:38Z</time>
      </trkpt>
      <trkpt lat="47.86363" lon="-2.62196">
        <ele>164</ele>
        <time>2017-01-15T06:52:38Z</time>
      </trkpt>
      <trkpt lat="47.86362" lon="-2.62182">
        <ele>164</ele>
        <time>2017-01-15T06:54:38Z</time>
      </trkpt>
      <trkpt lat="47.86362" lon="-2.62168">
        <ele>164</ele>
        <time>2017-01-15T06:56:38Z</time>
      </trkpt>
      <trkpt lat="47.86361" lon="-2.62152">
        <ele>164</ele>
        <time>2017-01-15T06:58:38Z</time>
      </trkpt>
      <trkpt lat="47.86362" lon="-2.62136">
        <ele>165</ele>
        <time>2017-01-15T07:00:38Z</time>
      </trkpt>
      <trkpt lat="47.86364" lon="-2.6212">
        <ele>165</ele>
        <time>2017-01-15T07:02:38Z</time>
      </trkpt>
      <trkpt lat="47.86362" lon="-2.62107">
        <ele>165</ele>
        <time>2017-01-15T07:04:38Z</time>
      </trkpt>
      <trkpt lat="47.86362" lon="-2.62089">
        <ele>165</ele>
        <time>2017-01-15T07:06:38Z</time>
      </trkpt>
      <trkpt lat="47.8636" lon="-2.62071">
        <ele>165</ele>
        <time>2017-01-15T07:08:38Z</time>
      </trkpt>
      <trkpt lat="47.86354" lon="-2.62059">
        <ele>165</ele>
        <time>2017-01-15T07:10:38Z</time>
      </trkpt>
      <trkpt lat="47.86348" lon="-2.62049">
        <ele>165</ele>
        <time>2017-01-15T07:12:38Z</time>
      </trkpt>
      <trkpt lat="47.86341" lon="-2.62041">
        <ele>164</ele>
        <time>2017-01-15T07:14:38Z</time>
      </trkpt>
      <trkpt lat="47.86335" lon="-2.62031">
        <ele>164</ele>
        <time>2017-01-15T07:16:38Z</time>
      </trkpt>
      <trkpt lat="47.86327" lon="-2.62022">
        <ele>164</ele>
        <time>2017-01-15T07:18:38Z</time>
      </trkpt>
      <trkpt lat="47.86319" lon="-2.62014">
        <ele>164</ele>
        <time>2017-01-15T07:20:38Z</time>
      </trkpt>
      <trkpt lat="47.86304" lon="-2.61995">
        <ele>165</ele>
        <time>2017-01-15T07:22:38Z</time>
      </trkpt>
      <trkpt lat="47.86297" lon="-2.61984">
        <ele>165</ele>
        <time>2017-01-15T07:24:38Z</time>
      </trkpt>
      <trkpt lat="47.86289" lon="-2.61974">
        <ele>165</ele>
        <time>2017-01-15T07:26:38Z</time>
      </trkpt>
      <trkpt lat="47.86282" lon="-2.61965">
        <ele>165</ele>
        <time>2017-01-15T07:28:38Z</time>
      </trkpt>
      <trkpt lat="47.86274" lon="-2.61957">
        <ele>165</ele>
        <time>2017-01-15T07:30:38Z</time>
      </trkpt>
      <trkpt lat="47.86266" lon="-2.61948">
        <ele>165</ele>
        <time>2017-01-15T07:32:38Z</time>
      </trkpt>
      <trkpt lat="47.86258" lon="-2.61937">
        <ele>165</ele>
        <time>2017-01-15T07:34:38Z</time>
      </trkpt>
      <trkpt lat="47.86249" lon="-2.61926">
        <ele>165</ele>
        <time>2017-01-15T07:36:38Z</time>
      </trkpt>
      <trkpt lat="47.86239" lon="-2.61916">
        <ele>165</ele>
        <time>2017-01-15T07:38:38Z</time>
      </trkpt>
      <trkpt lat="47.8623" lon="-2.61908">
        <ele>165</ele>
        <time>2017-01-15T07:40:38Z</time>
      </trkpt>
      <trkpt lat="47.86222" lon="-2.61896">
        <ele>165</ele>
        <time>2017-01-15T07:42:38Z</time>
      </trkpt>
      <trkpt lat="47.86214" lon="-2.61887">
        <ele>165</ele>
        <time>2017-01-15T07:44:38Z</time>
      </trkpt>
      <trkpt lat="47.86205" lon="-2.61877">
        <ele>165</ele>
        <time>2017-01-15T07:46:38Z</time>
      </trkpt>
      <trkpt lat="47.86189" lon="-2.61859">
        <ele>165</ele>
        <time>2017-01-15T07:48:38Z</time>
      </trkpt>
      <trkpt lat="47.8618" lon="-2.6185">
        <ele>165</ele>
        <time>2017-01-15T07:50:38Z</time>
      </trkpt>
      <trkpt lat="47.8617" lon="-2.6184">
        <ele>165</ele>
        <time>2017-01-15T07:52:38Z</time>
      </trkpt>
      <trkpt lat="47.86161" lon="-2.61827">
        <ele>165</ele>
        <time>2017-01-15T07:54:38Z</time>
      </trkpt>
      <trkpt lat="47.86152" lon="-2.61816">
        <ele>165</ele>
        <time>2017-01-15T07:56:38Z</time>
      </trkpt>
      <trkpt lat="47.86135" lon="-2.618">
        <ele>166</ele>
        <time>2017-01-15T07:58:38Z</time>
      </trkpt>
      <trkpt lat="47.86127" lon="-2.61788">
        <ele>166</ele>
        <time>2017-01-15T08:00:38Z</time>
      </trkpt>
      <trkpt lat="47.86121" lon="-2.61776">
        <ele>165</ele>
        <time>2017-01-15T08:02:38Z</time>
      </trkpt>
      <trkpt lat="47.86114" lon="-2.61764">
        <ele>165</ele>
        <time>2017-01-15T08:04:38Z</time>
      </trkpt>
      <trkpt lat="47.86106" lon="-2.61753">
        <ele>165</ele>
        <time>2017-01-15T08:06:38Z</time>
      </trkpt>
      <trkpt lat="47.86095" lon="-2.61744">
        <ele>165</ele>
        <time>2017-01-15T08:08:38Z</time>
      </trkpt>
      <trkpt lat="47.86096" lon="-2.61729">
        <ele>164</ele>
        <time>2017-01-15T08:10:38Z</time>
      </trkpt>
      <trkpt lat="47.86101" lon="-2.61715">
        <ele>164</ele>
        <time>2017-01-15T08:12:38Z</time>
      </trkpt>
      <trkpt lat="47.86108" lon="-2.61705">
        <ele>163</ele>
        <time>2017-01-15T08:14:38Z</time>
      </trkpt>
      <trkpt lat="47.86116" lon="-2.61694">
        <ele>163</ele>
        <time>2017-01-15T08:16:38Z</time>
      </trkpt>
      <trkpt lat="47.86123" lon="-2.61685">
        <ele>162</ele>
        <time>2017-01-15T08:18:38Z</time>
      </trkpt>
      <trkpt lat="47.86129" lon="-2.61675">
        <ele>162</ele>
        <time>2017-01-15T08:20:38Z</time>
      </trkpt>
      <trkpt lat="47.86135" lon="-2.61665">
        <ele>161</ele>
        <time>2017-01-15T08:22:38Z</time>
      </trkpt>
      <trkpt lat="47.86139" lon="-2.61652">
        <ele>162</ele>
        <time>2017-01-15T08:24:38Z</time>
      </trkpt>
      <trkpt lat="47.86137" lon="-2.61637">
        <ele>162</ele>
        <time>2017-01-15T08:26:38Z</time>
      </trkpt>
      <trkpt lat="47.86136" lon="-2.61623">
        <ele>162</ele>
        <time>2017-01-15T08:28:38Z</time>
      </trkpt>
      <trkpt lat="47.86134" lon="-2.61606">
        <ele>163</ele>
        <time>2017-01-15T08:30:38Z</time>
      </trkpt>
      <trkpt lat="47.86131" lon="-2.61589">
        <ele>163</ele>
        <time>2017-01-15T08:32:38Z</time>
      </trkpt>
      <trkpt lat="47.86128" lon="-2.61571">
        <ele>162</ele>
        <time>2017-01-15T08:34:38Z</time>
      </trkpt>
      <trkpt lat="47.86126" lon="-2.61552">
        <ele>162</ele>
        <time>2017-01-15T08:36:38Z</time>
      </trkpt>
      <trkpt lat="47.86126" lon="-2.61535">
        <ele>161</ele>
        <time>2017-01-15T08:38:38Z</time>
      </trkpt>
      <trkpt lat="47.86126" lon="-2.6152">
        <ele>161</ele>
        <time>2017-01-15T08:40:38Z</time>
      </trkpt>
      <trkpt lat="47.86122" lon="-2.61503">
        <ele>160</ele>
        <time>2017-01-15T08:42:38Z</time>
      </trkpt>
      <trkpt lat="47.86118" lon="-2.61486">
        <ele>159</ele>
        <time>2017-01-15T08:44:38Z</time>
      </trkpt>
      <trkpt lat="47.86116" lon="-2.61472">
        <ele>158</ele>
        <time>2017-01-15T08:46:38Z</time>
      </trkpt>
      <trkpt lat="47.86113" lon="-2.61459">
        <ele>158</ele>
        <time>2017-01-15T08:48:38Z</time>
      </trkpt>
      <trkpt lat="47.86109" lon="-2.61428">
        <ele>156</ele>
        <time>2017-01-15T08:50:38Z</time>
      </trkpt>
      <trkpt lat="47.86106" lon="-2.61398">
        <ele>155</ele>
        <time>2017-01-15T08:52:38Z</time>
      </trkpt>
      <trkpt lat="47.86103" lon="-2.61382">
        <ele>155</ele>
        <time>2017-01-15T08:54:38Z</time>
      </trkpt>
      <trkpt lat="47.861" lon="-2.61368">
        <ele>154</ele>
        <time>2017-01-15T08:56:38Z</time>
      </trkpt>
      <trkpt lat="47.86093" lon="-2.61336">
        <ele>153</ele>
        <time>2017-01-15T08:58:38Z</time>
      </trkpt>
      <trkpt lat="47.86091" lon="-2.6132">
        <ele>153</ele>
        <time>2017-01-15T09:00:38Z</time>
      </trkpt>
      <trkpt lat="47.86088" lon="-2.61306">
        <ele>153</ele>
        <time>2017-01-15T09:02:38Z</time>
      </trkpt>
      <trkpt lat="47.86085" lon="-2.61291">
        <ele>153</ele>
        <time>2017-01-15T09:04:38Z</time>
      </trkpt>
      <trkpt lat="47.86079" lon="-2.61277">
        <ele>152</ele>
        <time>2017-01-15T09:06:38Z</time>
      </trkpt>
      <trkpt lat="47.86071" lon="-2.61248">
        <ele>152</ele>
        <time>2017-01-15T09:08:38Z</time>
      </trkpt>
      <trkpt lat="47.86066" lon="-2.61235">
        <ele>152</ele>
        <time>2017-01-15T09:10:38Z</time>
      </trkpt>
      <trkpt lat="47.86061" lon="-2.61223">
        <ele>152</ele>
        <time>2017-01-15T09:12:38Z</time>
      </trkpt>
      <trkpt lat="47.86055" lon="-2.6121">
        <ele>152</ele>
        <time>2017-01-15T09:14:38Z</time>
      </trkpt>
      <trkpt lat="47.86049" lon="-2.61196">
        <ele>152</ele>
        <time>2017-01-15T09:16:38Z</time>
      </trkpt>
      <trkpt lat="47.86038" lon="-2.6117">
        <ele>151</ele>
        <time>2017-01-15T09:18:38Z</time>
      </trkpt>
      <trkpt lat="47.8603" lon="-2.61163">
        <ele>151</ele>
        <time>2017-01-15T09:20:38Z</time>
      </trkpt>
      <trkpt lat="47.8602" lon="-2.61163">
        <ele>151</ele>
        <time>2017-01-15T09:22:38Z</time>
      </trkpt>
      <trkpt lat="47.8601" lon="-2.61164">
        <ele>150</ele>
        <time>2017-01-15T09:24:38Z</time>
      </trkpt>
      <trkpt lat="47.86002" lon="-2.61169">
        <ele>150</ele>
        <time>2017-01-15T09:26:38Z</time>
      </trkpt>
      <trkpt lat="47.85989" lon="-2.61193">
        <ele>150</ele>
        <time>2017-01-15T09:28:38Z</time>
      </trkpt>
      <trkpt lat="47.85981" lon="-2.61206">
        <ele>149</ele>
        <time>2017-01-15T09:30:38Z</time>
      </trkpt>
      <trkpt lat="47.85967" lon="-2.61231">
        <ele>149</ele>
        <time>2017-01-15T09:32:38Z</time>
      </trkpt>
      <trkpt lat="47.85959" lon="-2.61243">
        <ele>149</ele>
        <time>2017-01-15T09:34:38Z</time>
      </trkpt>
      <trkpt lat="47.85952" lon="-2.61255">
        <ele>149</ele>
        <time>2017-01-15T09:36:38Z</time>
      </trkpt>
      <trkpt lat="47.85946" lon="-2.61267">
        <ele>149</ele>
        <time>2017-01-15T09:38:38Z</time>
      </trkpt>
      <trkpt lat="47.85932" lon="-2.6129">
        <ele>150</ele>
        <time>2017-01-15T09:40:38Z</time>
      </trkpt>
      <trkpt lat="47.85927" lon="-2.61299">
        <ele>150</ele>
        <time>2017-01-15T09:42:38Z</time>
      </trkpt>
      <trkpt lat="47.85922" lon="-2.61308">
        <ele>150</ele>
        <time>2017-01-15T09:44:38Z</time>
      </trkpt>
      <trkpt lat="47.85918" lon="-2.61322">
        <ele>151</ele>
        <time>2017-01-15T09:46:38Z</time>
      </trkpt>
      <trkpt lat="47.85914" lon="-2.61336">
        <ele>151</ele>
        <time>2017-01-15T09:48:38Z</time>
      </trkpt>
      <trkpt lat="47.85911" lon="-2.61346">
        <ele>151</ele>
        <time>2017-01-15T09:50:38Z</time>
      </trkpt>
      <trkpt lat="47.85905" lon="-2.6136">
        <ele>151</ele>
        <time>2017-01-15T09:52:38Z</time>
      </trkpt>
      <trkpt lat="47.85898" lon="-2.61374">
        <ele>151</ele>
        <time>2017-01-15T09:54:38Z</time>
      </trkpt>
      <trkpt lat="47.85885" lon="-2.61375">
        <ele>151</ele>
        <time>2017-01-15T09:56:38Z</time>
      </trkpt>
      <trkpt lat="47.85876" lon="-2.61366">
        <ele>150</ele>
        <time>2017-01-15T09:58:38Z</time>
      </trkpt>
      <trkpt lat="47.85864" lon="-2.61356">
        <ele>149</ele>
        <time>2017-01-15T10:00:38Z</time>
      </trkpt>
      <trkpt lat="47.85849" lon="-2.61348">
        <ele>148</ele>
        <time>2017-01-15T10:02:38Z</time>
      </trkpt>
      <trkpt lat="47.85838" lon="-2.61345">
        <ele>147</ele>
        <time>2017-01-15T10:04:38Z</time>
      </trkpt>
      <trkpt lat="47.85828" lon="-2.6134">
        <ele>147</ele>
        <time>2017-01-15T10:06:38Z</time>
      </trkpt>
      <trkpt lat="47.85808" lon="-2.61331">
        <ele>146</ele>
        <time>2017-01-15T10:08:38Z</time>
      </trkpt>
      <trkpt lat="47.85787" lon="-2.61326">
        <ele>145</ele>
        <time>2017-01-15T10:10:38Z</time>
      </trkpt>
      <trkpt lat="47.85776" lon="-2.61329">
        <ele>144</ele>
        <time>2017-01-15T10:12:38Z</time>
      </trkpt>
      <trkpt lat="47.85754" lon="-2.61344">
        <ele>143</ele>
        <time>2017-01-15T10:14:38Z</time>
      </trkpt>
      <trkpt lat="47.8574" lon="-2.6135">
        <ele>143</ele>
        <time>2017-01-15T10:16:38Z</time>
      </trkpt>
      <trkpt lat="47.85726" lon="-2.61357">
        <ele>142</ele>
        <time>2017-01-15T10:18:38Z</time>
      </trkpt>
      <trkpt lat="47.85716" lon="-2.6136">
        <ele>142</ele>
        <time>2017-01-15T10:20:38Z</time>
      </trkpt>
      <trkpt lat="47.85703" lon="-2.61363">
        <ele>141</ele>
        <time>2017-01-15T10:22:38Z</time>
      </trkpt>
      <trkpt lat="47.85691" lon="-2.61367">
        <ele>141</ele>
        <time>2017-01-15T10:24:38Z</time>
      </trkpt>
      <trkpt lat="47.85678" lon="-2.6137">
        <ele>140</ele>
        <time>2017-01-15T10:26:38Z</time>
      </trkpt>
      <trkpt lat="47.85664" lon="-2.61373">
        <ele>140</ele>
        <time>2017-01-15T10:28:38Z</time>
      </trkpt>
      <trkpt lat="47.85651" lon="-2.61374">
        <ele>142</ele>
        <time>2017-01-15T10:30:38Z</time>
      </trkpt>
      <trkpt lat="47.85641" lon="-2.61372">
        <ele>143</ele>
        <time>2017-01-15T10:32:38Z</time>
      </trkpt>
      <trkpt lat="47.8563" lon="-2.61373">
        <ele>145</ele>
        <time>2017-01-15T10:34:38Z</time>
      </trkpt>
      <trkpt lat="47.85618" lon="-2.61373">
        <ele>146</ele>
        <time>2017-01-15T10:36:38Z</time>
      </trkpt>
      <trkpt lat="47.85613" lon="-2.61361">
        <ele>147</ele>
        <time>2017-01-15T10:38:38Z</time>
      </trkpt>
      <trkpt lat="47.85619" lon="-2.61336">
        <ele>147</ele>
        <time>2017-01-15T10:40:38Z</time>
      </trkpt>
      <trkpt lat="47.8562" lon="-2.61306">
        <ele>147</ele>
        <time>2017-01-15T10:42:38Z</time>
      </trkpt>
      <trkpt lat="47.85623" lon="-2.6129">
        <ele>146</ele>
        <time>2017-01-15T10:44:38Z</time>
      </trkpt>
      <trkpt lat="47.85626" lon="-2.61273">
        <ele>146</ele>
        <time>2017-01-15T10:46:38Z</time>
      </trkpt>
      <trkpt lat="47.85626" lon="-2.61256">
        <ele>145</ele>
        <time>2017-01-15T10:48:38Z</time>
      </trkpt>
      <trkpt lat="47.85622" lon="-2.6124">
        <ele>145</ele>
        <time>2017-01-15T10:50:38Z</time>
      </trkpt>
      <trkpt lat="47.85616" lon="-2.61224">
        <ele>145</ele>
        <time>2017-01-15T10:52:38Z</time>
      </trkpt>
      <trkpt lat="47.8561" lon="-2.61209">
        <ele>144</ele>
        <time>2017-01-15T10:54:38Z</time>
      </trkpt>
      <trkpt lat="47.856" lon="-2.61197">
        <ele>143</ele>
        <time>2017-01-15T10:56:38Z</time>
      </trkpt>
      <trkpt lat="47.85581" lon="-2.6118">
        <ele>142</ele>
        <time>2017-01-15T10:58:38Z</time>
      </trkpt>
      <trkpt lat="47.8557" lon="-2.61168">
        <ele>141</ele>
        <time>2017-01-15T11:00:38Z</time>
      </trkpt>
      <trkpt lat="47.85559" lon="-2.61157">
        <ele>141</ele>
        <time>2017-01-15T11:02:38Z</time>
      </trkpt>
      <trkpt lat="47.8555" lon="-2.61149">
        <ele>141</ele>
        <time>2017-01-15T11:04:38Z</time>
      </trkpt>
      <trkpt lat="47.8554" lon="-2.61137">
        <ele>141</ele>
        <time>2017-01-15T11:06:38Z</time>
      </trkpt>
      <trkpt lat="47.8553" lon="-2.61126">
        <ele>141</ele>
        <time>2017-01-15T11:08:38Z</time>
      </trkpt>
      <trkpt lat="47.8552" lon="-2.61116">
        <ele>140</ele>
        <time>2017-01-15T11:10:38Z</time>
      </trkpt>
      <trkpt lat="47.85508" lon="-2.61111">
        <ele>141</ele>
        <time>2017-01-15T11:12:38Z</time>
      </trkpt>
      <trkpt lat="47.85495" lon="-2.61114">
        <ele>142</ele>
        <time>2017-01-15T11:14:38Z</time>
      </trkpt>
      <trkpt lat="47.85486" lon="-2.61118">
        <ele>142</ele>
        <time>2017-01-15T11:16:38Z</time>
      </trkpt>
      <trkpt lat="47.85473" lon="-2.61124">
        <ele>143</ele>
        <time>2017-01-15T11:18:38Z</time>
      </trkpt>
      <trkpt lat="47.85448" lon="-2.61134">
        <ele>145</ele>
        <time>2017-01-15T11:20:38Z</time>
      </trkpt>
      <trkpt lat="47.85437" lon="-2.61138">
        <ele>146</ele>
        <time>2017-01-15T11:22:38Z</time>
      </trkpt>
      <trkpt lat="47.85426" lon="-2.61136">
        <ele>146</ele>
        <time>2017-01-15T11:24:38Z</time>
      </trkpt>
      <trkpt lat="47.85416" lon="-2.61126">
        <ele>147</ele>
        <time>2017-01-15T11:26:38Z</time>
      </trkpt>
      <trkpt lat="47.85407" lon="-2.61114">
        <ele>146</ele>
        <time>2017-01-15T11:28:38Z</time>
      </trkpt>
      <trkpt lat="47.85398" lon="-2.61102">
        <ele>146</ele>
        <time>2017-01-15T11:30:38Z</time>
      </trkpt>
      <trkpt lat="47.85391" lon="-2.61091">
        <ele>146</ele>
        <time>2017-01-15T11:32:38Z</time>
      </trkpt>
      <trkpt lat="47.85387" lon="-2.61079">
        <ele>146</ele>
        <time>2017-01-15T11:34:38Z</time>
      </trkpt>
      <trkpt lat="47.85395" lon="-2.61071">
        <ele>146</ele>
        <time>2017-01-15T11:36:38Z</time>
      </trkpt>
      <trkpt lat="47.85415" lon="-2.6107">
        <ele>145</ele>
        <time>2017-01-15T11:38:38Z</time>
      </trkpt>
      <trkpt lat="47.85424" lon="-2.61066">
        <ele>145</ele>
        <time>2017-01-15T11:40:38Z</time>
      </trkpt>
      <trkpt lat="47.85432" lon="-2.61055">
        <ele>144</ele>
        <time>2017-01-15T11:42:38Z</time>
      </trkpt>
      <trkpt lat="47.85439" lon="-2.61042">
        <ele>143</ele>
        <time>2017-01-15T11:44:38Z</time>
      </trkpt>
      <trkpt lat="47.85443" lon="-2.6101">
        <ele>143</ele>
        <time>2017-01-15T11:46:38Z</time>
      </trkpt>
      <trkpt lat="47.85439" lon="-2.60995">
        <ele>143</ele>
        <time>2017-01-15T11:48:38Z</time>
      </trkpt>
      <trkpt lat="47.85433" lon="-2.60981">
        <ele>142</ele>
        <time>2017-01-15T11:50:38Z</time>
      </trkpt>
      <trkpt lat="47.85426" lon="-2.60969">
        <ele>142</ele>
        <time>2017-01-15T11:52:38Z</time>
      </trkpt>
      <trkpt lat="47.85416" lon="-2.60957">
        <ele>141</ele>
        <time>2017-01-15T11:54:38Z</time>
      </trkpt>
      <trkpt lat="47.85408" lon="-2.60949">
        <ele>142</ele>
        <time>2017-01-15T11:56:38Z</time>
      </trkpt>
      <trkpt lat="47.85399" lon="-2.60937">
        <ele>141</ele>
        <time>2017-01-15T11:58:38Z</time>
      </trkpt>
      <trkpt lat="47.85389" lon="-2.60928">
        <ele>142</ele>
        <time>2017-01-15T12:00:38Z</time>
      </trkpt>
      <trkpt lat="47.8538" lon="-2.60915">
        <ele>142</ele>
        <time>2017-01-15T12:02:38Z</time>
      </trkpt>
      <trkpt lat="47.85365" lon="-2.60896">
        <ele>144</ele>
        <time>2017-01-15T12:04:38Z</time>
      </trkpt>
      <trkpt lat="47.85357" lon="-2.60887">
        <ele>144</ele>
        <time>2017-01-15T12:06:38Z</time>
      </trkpt>
      <trkpt lat="47.85342" lon="-2.60867">
        <ele>144</ele>
        <time>2017-01-15T12:08:38Z</time>
      </trkpt>
      <trkpt lat="47.85336" lon="-2.60856">
        <ele>143</ele>
        <time>2017-01-15T12:10:38Z</time>
      </trkpt>
      <trkpt lat="47.85337" lon="-2.60842">
        <ele>142</ele>
        <time>2017-01-15T12:12:38Z</time>
      </trkpt>
      <trkpt lat="47.85339" lon="-2.6083">
        <ele>141</ele>
        <time>2017-01-15T12:14:38Z</time>
      </trkpt>
      <trkpt lat="47.85343" lon="-2.60819">
        <ele>142</ele>
        <time>2017-01-15T12:16:38Z</time>
      </trkpt>
      <trkpt lat="47.85348" lon="-2.60807">
        <ele>142</ele>
        <time>2017-01-15T12:18:38Z</time>
      </trkpt>
      <trkpt lat="47.85348" lon="-2.60793">
        <ele>143</ele>
        <time>2017-01-15T12:20:38Z</time>
      </trkpt>
      <trkpt lat="47.85343" lon="-2.60782">
        <ele>143</ele>
        <time>2017-01-15T12:22:38Z</time>
      </trkpt>
      <trkpt lat="47.85328" lon="-2.6076">
        <ele>143</ele>
        <time>2017-01-15T12:24:38Z</time>
      </trkpt>
      <trkpt lat="47.85318" lon="-2.60748">
        <ele>143</ele>
        <time>2017-01-15T12:26:38Z</time>
      </trkpt>
      <trkpt lat="47.8531" lon="-2.60737">
        <ele>143</ele>
        <time>2017-01-15T12:28:38Z</time>
      </trkpt>
      <trkpt lat="47.85301" lon="-2.60724">
        <ele>143</ele>
        <time>2017-01-15T12:30:38Z</time>
      </trkpt>
      <trkpt lat="47.85293" lon="-2.6071">
        <ele>143</ele>
        <time>2017-01-15T12:32:38Z</time>
      </trkpt>
      <trkpt lat="47.85284" lon="-2.60701">
        <ele>142</ele>
        <time>2017-01-15T12:34:38Z</time>
      </trkpt>
      <trkpt lat="47.85264" lon="-2.60662">
        <ele>141</ele>
        <time>2017-01-15T12:36:38Z</time>
      </trkpt>
      <trkpt lat="47.85257" lon="-2.60648">
        <ele>142</ele>
        <time>2017-01-15T12:38:38Z</time>
      </trkpt>
      <trkpt lat="47.85251" lon="-2.60639">
        <ele>142</ele>
        <time>2017-01-15T12:40:38Z</time>
      </trkpt>
      <trkpt lat="47.85242" lon="-2.60629">
        <ele>142</ele>
        <time>2017-01-15T12:42:38Z</time>
      </trkpt>
      <trkpt lat="47.85234" lon="-2.60619">
        <ele>143</ele>
        <time>2017-01-15T12:44:38Z</time>
      </trkpt>
      <trkpt lat="47.85226" lon="-2.60609">
        <ele>143</ele>
        <time>2017-01-15T12:46:38Z</time>
      </trkpt>
      <trkpt lat="47.85217" lon="-2.60599">
        <ele>144</ele>
        <time>2017-01-15T12:48:38Z</time>
      </trkpt>
      <trkpt lat="47.85209" lon="-2.60592">
        <ele>144</ele>
        <time>2017-01-15T12:50:38Z</time>
      </trkpt>
      <trkpt lat="47.85203" lon="-2.60584">
        <ele>144</ele>
        <time>2017-01-15T12:52:38Z</time>
      </trkpt>
      <trkpt lat="47.85196" lon="-2.60573">
        <ele>144</ele>
        <time>2017-01-15T12:54:38Z</time>
      </trkpt>
      <trkpt lat="47.85186" lon="-2.60545">
        <ele>146</ele>
        <time>2017-01-15T12:56:38Z</time>
      </trkpt>
      <trkpt lat="47.85182" lon="-2.60532">
        <ele>147</ele>
        <time>2017-01-15T12:58:38Z</time>
      </trkpt>
      <trkpt lat="47.85176" lon="-2.60519">
        <ele>148</ele>
        <time>2017-01-15T13:00:38Z</time>
      </trkpt>
      <trkpt lat="47.85172" lon="-2.60505">
        <ele>150</ele>
        <time>2017-01-15T13:02:38Z</time>
      </trkpt>
      <trkpt lat="47.85165" lon="-2.60493">
        <ele>150</ele>
        <time>2017-01-15T13:04:38Z</time>
      </trkpt>
      <trkpt lat="47.8516" lon="-2.60478">
        <ele>150</ele>
        <time>2017-01-15T13:06:38Z</time>
      </trkpt>
      <trkpt lat="47.85155" lon="-2.60465">
        <ele>150</ele>
        <time>2017-01-15T13:08:38Z</time>
      </trkpt>
      <trkpt lat="47.85146" lon="-2.60438">
        <ele>150</ele>
        <time>2017-01-15T13:10:38Z</time>
      </trkpt>
      <trkpt lat="47.85141" lon="-2.60426">
        <ele>150</ele>
        <time>2017-01-15T13:12:38Z</time>
      </trkpt>
      <trkpt lat="47.85135" lon="-2.60414">
        <ele>150</ele>
        <time>2017-01-15T13:14:38Z</time>
      </trkpt>
      <trkpt lat="47.85129" lon="-2.604">
        <ele>150</ele>
        <time>2017-01-15T13:16:38Z</time>
      </trkpt>
      <trkpt lat="47.85125" lon="-2.60385">
        <ele>150</ele>
        <time>2017-01-15T13:18:38Z</time>
      </trkpt>
      <trkpt lat="47.85119" lon="-2.60372">
        <ele>150</ele>
        <time>2017-01-15T13:20:38Z</time>
      </trkpt>
      <trkpt lat="47.85114" lon="-2.60357">
        <ele>150</ele>
        <time>2017-01-15T13:22:38Z</time>
      </trkpt>
      <trkpt lat="47.85109" lon="-2.60344">
        <ele>149</ele>
        <time>2017-01-15T13:24:38Z</time>
      </trkpt>
      <trkpt lat="47.85105" lon="-2.60332">
        <ele>149</ele>
        <time>2017-01-15T13:26:38Z</time>
      </trkpt>
      <trkpt lat="47.851" lon="-2.60318">
        <ele>149</ele>
        <time>2017-01-15T13:28:38Z</time>
      </trkpt>
      <trkpt lat="47.85095" lon="-2.60305">
        <ele>149</ele>
        <time>2017-01-15T13:30:38Z</time>
      </trkpt>
      <trkpt lat="47.85087" lon="-2.60299">
        <ele>148</ele>
        <time>2017-01-15T13:32:38Z</time>
      </trkpt>
      <trkpt lat="47.85067" lon="-2.60296">
        <ele>147</ele>
        <time>2017-01-15T13:34:38Z</time>
      </trkpt>
      <trkpt lat="47.85057" lon="-2.60292">
        <ele>147</ele>
        <time>2017-01-15T13:36:38Z</time>
      </trkpt>
      <trkpt lat="47.85047" lon="-2.60289">
        <ele>146</ele>
        <time>2017-01-15T13:38:38Z</time>
      </trkpt>
      <trkpt lat="47.85038" lon="-2.60282">
        <ele>146</ele>
        <time>2017-01-15T13:40:38Z</time>
      </trkpt>
      <trkpt lat="47.85028" lon="-2.6028">
        <ele>145</ele>
        <time>2017-01-15T13:42:38Z</time>
      </trkpt>
      <trkpt lat="47.85019" lon="-2.60283">
        <ele>145</ele>
        <time>2017-01-15T13:44:38Z</time>
      </trkpt>
      <trkpt lat="47.85009" lon="-2.60284">
        <ele>144</ele>
        <time>2017-01-15T13:46:38Z</time>
      </trkpt>
      <trkpt lat="47.84988" lon="-2.60284">
        <ele>143</ele>
        <time>2017-01-15T13:48:38Z</time>
      </trkpt>
      <trkpt lat="47.84979" lon="-2.60278">
        <ele>142</ele>
        <time>2017-01-15T13:50:38Z</time>
      </trkpt>
      <trkpt lat="47.8497" lon="-2.60277">
        <ele>142</ele>
        <time>2017-01-15T13:52:38Z</time>
      </trkpt>
      <trkpt lat="47.84959" lon="-2.60278">
        <ele>141</ele>
        <time>2017-01-15T13:54:38Z</time>
      </trkpt>
      <trkpt lat="47.84949" lon="-2.60278">
        <ele>141</ele>
        <time>2017-01-15T13:56:38Z</time>
      </trkpt>
      <trkpt lat="47.84926" lon="-2.60277">
        <ele>140</ele>
        <time>2017-01-15T13:58:38Z</time>
      </trkpt>
      <trkpt lat="47.84914" lon="-2.60275">
        <ele>139</ele>
        <time>2017-01-15T14:00:38Z</time>
      </trkpt>
      <trkpt lat="47.84902" lon="-2.6027">
        <ele>138</ele>
        <time>2017-01-15T14:02:38Z</time>
      </trkpt>
      <trkpt lat="47.84889" lon="-2.60261">
        <ele>137</ele>
        <time>2017-01-15T14:04:38Z</time>
      </trkpt>
      <trkpt lat="47.84876" lon="-2.60253">
        <ele>136</ele>
        <time>2017-01-15T14:06:38Z</time>
      </trkpt>
      <trkpt lat="47.84864" lon="-2.60243">
        <ele>136</ele>
        <time>2017-01-15T14:08:38Z</time>
      </trkpt>
      <trkpt lat="47.84852" lon="-2.60232">
        <ele>135</ele>
        <time>2017-01-15T14:10:38Z</time>
      </trkpt>
      <trkpt lat="47.84842" lon="-2.60226">
        <ele>135</ele>
        <time>2017-01-15T14:12:38Z</time>
      </trkpt>
      <trkpt lat="47.84831" lon="-2.60219">
        <ele>134</ele>
        <time>2017-01-15T14:14:38Z</time>
      </trkpt>
      <trkpt lat="47.8482" lon="-2.60213">
        <ele>134</ele>
        <time>2017-01-15T14:16:38Z</time>
      </trkpt>
      <trkpt lat="47.84796" lon="-2.60201">
        <ele>134</ele>
        <time>2017-01-15T14:18:38Z</time>
      </trkpt>
      <trkpt lat="47.84788" lon="-2.60184">
        <ele>134</ele>
        <time>2017-01-15T14:20:38Z</time>
      </trkpt>
      <trkpt lat="47.84782" lon="-2.60171">
        <ele>133</ele>
        <time>2017-01-15T14:22:38Z</time>
      </trkpt>
      <trkpt lat="47.84775" lon="-2.60156">
        <ele>133</ele>
        <time>2017-01-15T14:24:38Z</time>
      </trkpt>
      <trkpt lat="47.84768" lon="-2.60143">
        <ele>133</ele>
        <time>2017-01-15T14:26:38Z</time>
      </trkpt>
      <trkpt lat="47.84761" lon="-2.6013">
        <ele>132</ele>
        <time>2017-01-15T14:28:38Z</time>
      </trkpt>
      <trkpt lat="47.84755" lon="-2.60113">
        <ele>132</ele>
        <time>2017-01-15T14:30:38Z</time>
      </trkpt>
      <trkpt lat="47.84749" lon="-2.60095">
        <ele>132</ele>
        <time>2017-01-15T14:32:38Z</time>
      </trkpt>
      <trkpt lat="47.84743" lon="-2.6007">
        <ele>132</ele>
        <time>2017-01-15T14:34:38Z</time>
      </trkpt>
      <trkpt lat="47.84738" lon="-2.6004">
        <ele>133</ele>
        <time>2017-01-15T14:36:38Z</time>
      </trkpt>
      <trkpt lat="47.84734" lon="-2.6001">
        <ele>134</ele>
        <time>2017-01-15T14:38:38Z</time>
      </trkpt>
      <trkpt lat="47.8473" lon="-2.59994">
        <ele>134</ele>
        <time>2017-01-15T14:40:38Z</time>
      </trkpt>
      <trkpt lat="47.84726" lon="-2.59977">
        <ele>134</ele>
        <time>2017-01-15T14:42:38Z</time>
      </trkpt>
      <trkpt lat="47.84724" lon="-2.59958">
        <ele>135</ele>
        <time>2017-01-15T14:44:38Z</time>
      </trkpt>
      <trkpt lat="47.84719" lon="-2.5992">
        <ele>136</ele>
        <time>2017-01-15T14:46:38Z</time>
      </trkpt>
      <trkpt lat="47.84719" lon="-2.59901">
        <ele>136</ele>
        <time>2017-01-15T14:48:38Z</time>
      </trkpt>
      <trkpt lat="47.84719" lon="-2.59883">
        <ele>137</ele>
        <time>2017-01-15T14:50:38Z</time>
      </trkpt>
      <trkpt lat="47.84722" lon="-2.59867">
        <ele>137</ele>
        <time>2017-01-15T14:52:38Z</time>
      </trkpt>
      <trkpt lat="47.84725" lon="-2.59852">
        <ele>138</ele>
        <time>2017-01-15T14:54:38Z</time>
      </trkpt>
      <trkpt lat="47.84732" lon="-2.59836">
        <ele>140</ele>
        <time>2017-01-15T14:56:38Z</time>
      </trkpt>
      <trkpt lat="47.84744" lon="-2.59822">
        <ele>142</ele>
        <time>2017-01-15T14:58:38Z</time>
      </trkpt>
      <trkpt lat="47.84765" lon="-2.59807">
        <ele>143</ele>
        <time>2017-01-15T15:00:38Z</time>
      </trkpt>
      <trkpt lat="47.84777" lon="-2.598">
        <ele>144</ele>
        <time>2017-01-15T15:02:38Z</time>
      </trkpt>
      <trkpt lat="47.84785" lon="-2.59797">
        <ele>144</ele>
        <time>2017-01-15T15:04:38Z</time>
      </trkpt>
      <trkpt lat="47.84791" lon="-2.59784">
        <ele>144</ele>
        <time>2017-01-15T15:06:38Z</time>
      </trkpt>
      <trkpt lat="47.84796" lon="-2.59765">
        <ele>145</ele>
        <time>2017-01-15T15:08:38Z</time>
      </trkpt>
      <trkpt lat="47.84791" lon="-2.5975">
        <ele>144</ele>
        <time>2017-01-15T15:10:38Z</time>
      </trkpt>
      <trkpt lat="47.84769" lon="-2.59738">
        <ele>143</ele>
        <time>2017-01-15T15:12:38Z</time>
      </trkpt>
      <trkpt lat="47.84757" lon="-2.59732">
        <ele>143</ele>
        <time>2017-01-15T15:14:38Z</time>
      </trkpt>
      <trkpt lat="47.84734" lon="-2.59716">
        <ele>141</ele>
        <time>2017-01-15T15:16:38Z</time>
      </trkpt>
      <trkpt lat="47.84724" lon="-2.59704">
        <ele>140</ele>
        <time>2017-01-15T15:18:38Z</time>
      </trkpt>
      <trkpt lat="47.84709" lon="-2.59677">
        <ele>138</ele>
        <time>2017-01-15T15:20:38Z</time>
      </trkpt>
      <trkpt lat="47.84699" lon="-2.59649">
        <ele>137</ele>
        <time>2017-01-15T15:22:38Z</time>
      </trkpt>
      <trkpt lat="47.84696" lon="-2.59634">
        <ele>137</ele>
        <time>2017-01-15T15:24:38Z</time>
      </trkpt>
      <trkpt lat="47.84695" lon="-2.59619">
        <ele>137</ele>
        <time>2017-01-15T15:26:38Z</time>
      </trkpt>
      <trkpt lat="47.84695" lon="-2.59604">
        <ele>136</ele>
        <time>2017-01-15T15:28:38Z</time>
      </trkpt>
      <trkpt lat="47.84697" lon="-2.59576">
        <ele>137</ele>
        <time>2017-01-15T15:30:38Z</time>
      </trkpt>
      <trkpt lat="47.847" lon="-2.59561">
        <ele>137</ele>
        <time>2017-01-15T15:32:38Z</time>
      </trkpt>
      <trkpt lat="47.84704" lon="-2.59547">
        <ele>138</ele>
        <time>2017-01-15T15:34:38Z</time>
      </trkpt>
      <trkpt lat="47.84706" lon="-2.59533">
        <ele>139</ele>
        <time>2017-01-15T15:36:38Z</time>
      </trkpt>
      <trkpt lat="47.84707" lon="-2.59516">
        <ele>139</ele>
        <time>2017-01-15T15:38:38Z</time>
      </trkpt>
      <trkpt lat="47.84704" lon="-2.59503">
        <ele>139</ele>
        <time>2017-01-15T15:40:38Z</time>
      </trkpt>
      <trkpt lat="47.84698" lon="-2.59489">
        <ele>139</ele>
        <time>2017-01-15T15:42:38Z</time>
      </trkpt>
      <trkpt lat="47.84689" lon="-2.59481">
        <ele>138</ele>
        <time>2017-01-15T15:44:38Z</time>
      </trkpt>
      <trkpt lat="47.84682" lon="-2.59469">
        <ele>138</ele>
        <time>2017-01-15T15:46:38Z</time>
      </trkpt>
      <trkpt lat="47.84677" lon="-2.59455">
        <ele>139</ele>
        <time>2017-01-15T15:48:38Z</time>
      </trkpt>
      <trkpt lat="47.84679" lon="-2.59438">
        <ele>139</ele>
        <time>2017-01-15T15:50:38Z</time>
      </trkpt>
      <trkpt lat="47.8468" lon="-2.59421">
        <ele>140</ele>
        <time>2017-01-15T15:52:38Z</time>
      </trkpt>
      <trkpt lat="47.84679" lon="-2.59406">
        <ele>141</ele>
        <time>2017-01-15T15:54:38Z</time>
      </trkpt>
      <trkpt lat="47.84678" lon="-2.59392">
        <ele>141</ele>
        <time>2017-01-15T15:56:38Z</time>
      </trkpt>
      <trkpt lat="47.84678" lon="-2.59378">
        <ele>142</ele>
        <time>2017-01-15T15:58:38Z</time>
      </trkpt>
      <trkpt lat="47.84675" lon="-2.59362">
        <ele>142</ele>
        <time>2017-01-15T16:00:38Z</time>
      </trkpt>
      <trkpt lat="47.8467" lon="-2.59348">
        <ele>143</ele>
        <time>2017-01-15T16:02:38Z</time>
      </trkpt>
      <trkpt lat="47.84664" lon="-2.59337">
        <ele>143</ele>
        <time>2017-01-15T16:04:38Z</time>
      </trkpt>
      <trkpt lat="47.84664" lon="-2.59321">
        <ele>142</ele>
        <time>2017-01-15T16:06:38Z</time>
      </trkpt>
      <trkpt lat="47.84668" lon="-2.59308">
        <ele>142</ele>
        <time>2017-01-15T16:08:38Z</time>
      </trkpt>
      <trkpt lat="47.84672" lon="-2.59292">
        <ele>142</ele>
        <time>2017-01-15T16:10:38Z</time>
      </trkpt>
      <trkpt lat="47.84675" lon="-2.59279">
        <ele>142</ele>
        <time>2017-01-15T16:12:38Z</time>
      </trkpt>
      <trkpt lat="47.8468" lon="-2.59265">
        <ele>142</ele>
        <time>2017-01-15T16:14:38Z</time>
      </trkpt>
      <trkpt lat="47.84687" lon="-2.59238">
        <ele>142</ele>
        <time>2017-01-15T16:16:38Z</time>
      </trkpt>
      <trkpt lat="47.84689" lon="-2.59225">
        <ele>142</ele>
        <time>2017-01-15T16:18:38Z</time>
      </trkpt>
      <trkpt lat="47.84693" lon="-2.59213">
        <ele>142</ele>
        <time>2017-01-15T16:20:38Z</time>
      </trkpt>
      <trkpt lat="47.84695" lon="-2.592">
        <ele>142</ele>
        <time>2017-01-15T16:22:38Z</time>
      </trkpt>
      <trkpt lat="47.84698" lon="-2.59186">
        <ele>142</ele>
        <time>2017-01-15T16:24:38Z</time>
      </trkpt>
      <trkpt lat="47.847" lon="-2.59174">
        <ele>142</ele>
        <time>2017-01-15T16:26:38Z</time>
      </trkpt>
      <trkpt lat="47.84703" lon="-2.59159">
        <ele>141</ele>
        <time>2017-01-15T16:28:38Z</time>
      </trkpt>
      <trkpt lat="47.84706" lon="-2.59144">
        <ele>141</ele>
        <time>2017-01-15T16:30:38Z</time>
      </trkpt>
      <trkpt lat="47.84707" lon="-2.59129">
        <ele>141</ele>
        <time>2017-01-15T16:32:38Z</time>
      </trkpt>
      <trkpt lat="47.84705" lon="-2.59116">
        <ele>141</ele>
        <time>2017-01-15T16:34:38Z</time>
      </trkpt>
      <trkpt lat="47.84701" lon="-2.59104">
        <ele>140</ele>
        <time>2017-01-15T16:36:38Z</time>
      </trkpt>
      <trkpt lat="47.84696" lon="-2.59091">
        <ele>140</ele>
        <time>2017-01-15T16:38:38Z</time>
      </trkpt>
      <trkpt lat="47.84691" lon="-2.59077">
        <ele>140</ele>
        <time>2017-01-15T16:40:38Z</time>
      </trkpt>
      <trkpt lat="47.84685" lon="-2.59064">
        <ele>139</ele>
        <time>2017-01-15T16:42:38Z</time>
      </trkpt>
      <trkpt lat="47.84679" lon="-2.59052">
        <ele>139</ele>
        <time>2017-01-15T16:44:38Z</time>
      </trkpt>
      <trkpt lat="47.84672" lon="-2.59039">
        <ele>139</ele>
        <time>2017-01-15T16:46:38Z</time>
      </trkpt>
      <trkpt lat="47.84667" lon="-2.59024">
        <ele>139</ele>
        <time>2017-01-15T16:48:38Z</time>
      </trkpt>
      <trkpt lat="47.84664" lon="-2.5901">
        <ele>139</ele>
        <time>2017-01-15T16:50:38Z</time>
      </trkpt>
      <trkpt lat="47.8466" lon="-2.58994">
        <ele>139</ele>
        <time>2017-01-15T16:52:38Z</time>
      </trkpt>
      <trkpt lat="47.84658" lon="-2.58981">
        <ele>139</ele>
        <time>2017-01-15T16:54:38Z</time>
      </trkpt>
      <trkpt lat="47.84654" lon="-2.58969">
        <ele>139</ele>
        <time>2017-01-15T16:56:38Z</time>
      </trkpt>
      <trkpt lat="47.84648" lon="-2.58943">
        <ele>139</ele>
        <time>2017-01-15T16:58:38Z</time>
      </trkpt>
      <trkpt lat="47.84646" lon="-2.58928">
        <ele>139</ele>
        <time>2017-01-15T17:00:38Z</time>
      </trkpt>
      <trkpt lat="47.84644" lon="-2.58913">
        <ele>138</ele>
        <time>2017-01-15T17:02:38Z</time>
      </trkpt>
      <trkpt lat="47.84644" lon="-2.589">
        <ele>138</ele>
        <time>2017-01-15T17:04:38Z</time>
      </trkpt>
      <trkpt lat="47.84645" lon="-2.58873">
        <ele>138</ele>
        <time>2017-01-15T17:06:38Z</time>
      </trkpt>
      <trkpt lat="47.84645" lon="-2.58859">
        <ele>138</ele>
        <time>2017-01-15T17:08:38Z</time>
      </trkpt>
      <trkpt lat="47.84647" lon="-2.58846">
        <ele>137</ele>
        <time>2017-01-15T17:10:38Z</time>
      </trkpt>
      <trkpt lat="47.84645" lon="-2.58832">
        <ele>137</ele>
        <time>2017-01-15T17:12:38Z</time>
      </trkpt>
      <trkpt lat="47.84645" lon="-2.58787">
        <ele>138</ele>
        <time>2017-01-15T17:14:38Z</time>
      </trkpt>
      <trkpt lat="47.84645" lon="-2.58771">
        <ele>138</ele>
        <time>2017-01-15T17:16:38Z</time>
      </trkpt>
      <trkpt lat="47.84645" lon="-2.58757">
        <ele>138</ele>
        <time>2017-01-15T17:18:38Z</time>
      </trkpt>
      <trkpt lat="47.84644" lon="-2.58744">
        <ele>138</ele>
        <time>2017-01-15T17:20:38Z</time>
      </trkpt>
      <trkpt lat="47.84644" lon="-2.58701">
        <ele>138</ele>
        <time>2017-01-15T17:22:38Z</time>
      </trkpt>
      <trkpt lat="47.84644" lon="-2.58686">
        <ele>138</ele>
        <time>2017-01-15T17:24:38Z</time>
      </trkpt>
      <trkpt lat="47.84644" lon="-2.58659">
        <ele>138</ele>
        <time>2017-01-15T17:26:38Z</time>
      </trkpt>
      <trkpt lat="47.84644" lon="-2.58645">
        <ele>138</ele>
        <time>2017-01-15T17:28:38Z</time>
      </trkpt>
      <trkpt lat="47.84644" lon="-2.58632">
        <ele>137</ele>
        <time>2017-01-15T17:30:38Z</time>
      </trkpt>
      <trkpt lat="47.84645" lon="-2.58617">
        <ele>137</ele>
        <time>2017-01-15T17:32:38Z</time>
      </trkpt>
      <trkpt lat="47.84645" lon="-2.58601">
        <ele>137</ele>
        <time>2017-01-15T17:34:38Z</time>
      </trkpt>
      <trkpt lat="47.84646" lon="-2.58587">
        <ele>137</ele>
        <time>2017-01-15T17:36:38Z</time>
      </trkpt>
      <trkpt lat="47.84646" lon="-2.58573">
        <ele>137</ele>
        <time>2017-01-15T17:38:38Z</time>
      </trkpt>
      <trkpt lat="47.84648" lon="-2.58559">
        <ele>136</ele>
        <time>2017-01-15T17:40:38Z</time>
      </trkpt>
      <trkpt lat="47.84653" lon="-2.58515">
        <ele>136</ele>
        <time>2017-01-15T17:42:38Z</time>
      </trkpt>
      <trkpt lat="47.84655" lon="-2.585">
        <ele>136</ele>
        <time>2017-01-15T17:44:38Z</time>
      </trkpt>
      <trkpt lat="47.84657" lon="-2.58485">
        <ele>135</ele>
        <time>2017-01-15T17:46:38Z</time>
      </trkpt>
      <trkpt lat="47.84658" lon="-2.58471">
        <ele>135</ele>
        <time>2017-01-15T17:48:38Z</time>
      </trkpt>
      <trkpt lat="47.84659" lon="-2.58457">
        <ele>135</ele>
        <time>2017-01-15T17:50:38Z</time>
      </trkpt>
      <trkpt lat="47.84657" lon="-2.58441">
        <ele>134</ele>
        <time>2017-01-15T17:52:38Z</time>
      </trkpt>
      <trkpt lat="47.84655" lon="-2.58426">
        <ele>134</ele>
        <time>2017-01-15T17:54:38Z</time>
      </trkpt>
      <trkpt lat="47.84652" lon="-2.5841">
        <ele>133</ele>
        <time>2017-01-15T17:56:38Z</time>
      </trkpt>
      <trkpt lat="47.8465" lon="-2.58399">
        <ele>133</ele>
        <time>2017-01-15T17:58:38Z</time>
      </trkpt>
      <trkpt lat="47.84647" lon="-2.58384">
        <ele>133</ele>
        <time>2017-01-15T18:00:38Z</time>
      </trkpt>
      <trkpt lat="47.84641" lon="-2.58341">
        <ele>132</ele>
        <time>2017-01-15T18:02:38Z</time>
      </trkpt>
      <trkpt lat="47.84639" lon="-2.58326">
        <ele>131</ele>
        <time>2017-01-15T18:04:38Z</time>
      </trkpt>
      <trkpt lat="47.84637" lon="-2.5831">
        <ele>131</ele>
        <time>2017-01-15T18:06:38Z</time>
      </trkpt>
      <trkpt lat="47.84634" lon="-2.58294">
        <ele>131</ele>
        <time>2017-01-15T18:08:38Z</time>
      </trkpt>
      <trkpt lat="47.84632" lon="-2.5828">
        <ele>131</ele>
        <time>2017-01-15T18:10:38Z</time>
      </trkpt>
      <trkpt lat="47.84628" lon="-2.58267">
        <ele>131</ele>
        <time>2017-01-15T18:12:38Z</time>
      </trkpt>
      <trkpt lat="47.84626" lon="-2.58252">
        <ele>132</ele>
        <time>2017-01-15T18:14:38Z</time>
      </trkpt>
      <trkpt lat="47.84625" lon="-2.58238">
        <ele>131</ele>
        <time>2017-01-15T18:16:38Z</time>
      </trkpt>
      <trkpt lat="47.84619" lon="-2.58225">
        <ele>131</ele>
        <time>2017-01-15T18:18:38Z</time>
      </trkpt>
      <trkpt lat="47.84612" lon="-2.58197">
        <ele>131</ele>
        <time>2017-01-15T18:20:38Z</time>
      </trkpt>
      <trkpt lat="47.84606" lon="-2.58186">
        <ele>131</ele>
        <time>2017-01-15T18:22:38Z</time>
      </trkpt>
      <trkpt lat="47.84598" lon="-2.58173">
        <ele>131</ele>
        <time>2017-01-15T18:24:38Z</time>
      </trkpt>
      <trkpt lat="47.84593" lon="-2.58161">
        <ele>131</ele>
        <time>2017-01-15T18:26:38Z</time>
      </trkpt>
      <trkpt lat="47.84589" lon="-2.58147">
        <ele>130</ele>
        <time>2017-01-15T18:28:38Z</time>
      </trkpt>
      <trkpt lat="47.84583" lon="-2.58134">
        <ele>130</ele>
        <time>2017-01-15T18:30:38Z</time>
      </trkpt>
      <trkpt lat="47.84579" lon="-2.5812">
        <ele>130</ele>
        <time>2017-01-15T18:32:38Z</time>
      </trkpt>
      <trkpt lat="47.84576" lon="-2.58108">
        <ele>129</ele>
        <time>2017-01-15T18:34:38Z</time>
      </trkpt>
      <trkpt lat="47.84568" lon="-2.58099">
        <ele>129</ele>
        <time>2017-01-15T18:36:38Z</time>
      </trkpt>
      <trkpt lat="47.8455" lon="-2.58084">
        <ele>128</ele>
        <time>2017-01-15T18:38:38Z</time>
      </trkpt>
      <trkpt lat="47.84545" lon="-2.58071">
        <ele>127</ele>
        <time>2017-01-15T18:40:38Z</time>
      </trkpt>
      <trkpt lat="47.84537" lon="-2.58075">
        <ele>127</ele>
        <time>2017-01-15T18:42:38Z</time>
      </trkpt>
      <trkpt lat="47.8453" lon="-2.58085">
        <ele>127</ele>
        <time>2017-01-15T18:44:38Z</time>
      </trkpt>
      <trkpt lat="47.84521" lon="-2.5809">
        <ele>127</ele>
        <time>2017-01-15T18:46:38Z</time>
      </trkpt>
      <trkpt lat="47.84523" lon="-2.58097">
        <ele>127</ele>
        <time>2017-01-15T18:48:38Z</time>
      </trkpt>
      <trkpt lat="47.84523" lon="-2.58116">
        <ele>128</ele>
        <time>2017-01-15T18:50:38Z</time>
      </trkpt>
      <trkpt lat="47.84518" lon="-2.58133">
        <ele>128</ele>
        <time>2017-01-15T18:52:38Z</time>
      </trkpt>
      <trkpt lat="47.84516" lon="-2.58148">
        <ele>128</ele>
        <time>2017-01-15T18:54:38Z</time>
      </trkpt>
      <trkpt lat="47.84517" lon="-2.58165">
        <ele>129</ele>
        <time>2017-01-15T18:56:38Z</time>
      </trkpt>
      <trkpt lat="47.84513" lon="-2.58179">
        <ele>128</ele>
        <time>2017-01-15T18:58:38Z</time>
      </trkpt>
      <trkpt lat="47.84507" lon="-2.58191">
        <ele>128</ele>
        <time>2017-01-15T19:00:38Z</time>
      </trkpt>
      <trkpt lat="47.84504" lon="-2.58204">
        <ele>128</ele>
        <time>2017-01-15T19:02:38Z</time>
      </trkpt>
      <trkpt lat="47.84492" lon="-2.5821">
        <ele>127</ele>
        <time>2017-01-15T19:04:38Z</time>
      </trkpt>
      <trkpt lat="47.84483" lon="-2.58211">
        <ele>127</ele>
        <time>2017-01-15T19:06:38Z</time>
      </trkpt>
      <trkpt lat="47.84472" lon="-2.58214">
        <ele>127</ele>
        <time>2017-01-15T19:08:38Z</time>
      </trkpt>
      <trkpt lat="47.84451" lon="-2.58223">
        <ele>126</ele>
        <time>2017-01-15T19:10:38Z</time>
      </trkpt>
      <trkpt lat="47.84439" lon="-2.58224">
        <ele>126</ele>
        <time>2017-01-15T19:12:38Z</time>
      </trkpt>
      <trkpt lat="47.84426" lon="-2.58226">
        <ele>125</ele>
        <time>2017-01-15T19:14:38Z</time>
      </trkpt>
      <trkpt lat="47.84414" lon="-2.58228">
        <ele>125</ele>
        <time>2017-01-15T19:16:38Z</time>
      </trkpt>
      <trkpt lat="47.84405" lon="-2.5823">
        <ele>124</ele>
        <time>2017-01-15T19:18:38Z</time>
      </trkpt>
      <trkpt lat="47.84395" lon="-2.58231">
        <ele>123</ele>
        <time>2017-01-15T19:20:38Z</time>
      </trkpt>
      <trkpt lat="47.84383" lon="-2.5823">
        <ele>122</ele>
        <time>2017-01-15T19:22:38Z</time>
      </trkpt>
      <trkpt lat="47.84363" lon="-2.58233">
        <ele>121</ele>
        <time>2017-01-15T19:24:38Z</time>
      </trkpt>
      <trkpt lat="47.84352" lon="-2.58236">
        <ele>120</ele>
        <time>2017-01-15T19:26:38Z</time>
      </trkpt>
      <trkpt lat="47.84334" lon="-2.58237">
        <ele>119</ele>
        <time>2017-01-15T19:28:38Z</time>
      </trkpt>
      <trkpt lat="47.84324" lon="-2.58235">
        <ele>119</ele>
        <time>2017-01-15T19:30:38Z</time>
      </trkpt>
      <trkpt lat="47.84314" lon="-2.58238">
        <ele>118</ele>
        <time>2017-01-15T19:32:38Z</time>
      </trkpt>
      <trkpt lat="47.84308" lon="-2.5824">
        <ele>118</ele>
        <time>2017-01-15T19:34:38Z</time>
      </trkpt>
      <trkpt lat="47.84301" lon="-2.58248">
        <ele>118</ele>
        <time>2017-01-15T19:36:38Z</time>
      </trkpt>
      <trkpt lat="47.84292" lon="-2.58252">
        <ele>118</ele>
        <time>2017-01-15T19:38:38Z</time>
      </trkpt>
      <trkpt lat="47.84283" lon="-2.58261">
        <ele>118</ele>
        <time>2017-01-15T19:40:38Z</time>
      </trkpt>
      <trkpt lat="47.84273" lon="-2.58269">
        <ele>118</ele>
        <time>2017-01-15T19:42:38Z</time>
      </trkpt>
      <trkpt lat="47.84262" lon="-2.58276">
        <ele>118</ele>
        <time>2017-01-15T19:44:38Z</time>
      </trkpt>
      <trkpt lat="47.84253" lon="-2.58284">
        <ele>118</ele>
        <time>2017-01-15T19:46:38Z</time>
      </trkpt>
      <trkpt lat="47.84242" lon="-2.5829">
        <ele>117</ele>
        <time>2017-01-15T19:48:38Z</time>
      </trkpt>
      <trkpt lat="47.84219" lon="-2.58303">
        <ele>116</ele>
        <time>2017-01-15T19:50:38Z</time>
      </trkpt>
      <trkpt lat="47.84205" lon="-2.58309">
        <ele>115</ele>
        <time>2017-01-15T19:52:38Z</time>
      </trkpt>
      <trkpt lat="47.84195" lon="-2.58316">
        <ele>114</ele>
        <time>2017-01-15T19:54:38Z</time>
      </trkpt>
      <trkpt lat="47.84185" lon="-2.58329">
        <ele>114</ele>
        <time>2017-01-15T19:56:38Z</time>
      </trkpt>
      <trkpt lat="47.84175" lon="-2.58343">
        <ele>114</ele>
        <time>2017-01-15T19:58:38Z</time>
      </trkpt>
      <trkpt lat="47.8417" lon="-2.58356">
        <ele>114</ele>
        <time>2017-01-15T20:00:38Z</time>
      </trkpt>
      <trkpt lat="47.8416" lon="-2.58389">
        <ele>114</ele>
        <time>2017-01-15T20:02:38Z</time>
      </trkpt>
      <trkpt lat="47.84156" lon="-2.58408">
        <ele>114</ele>
        <time>2017-01-15T20:04:38Z</time>
      </trkpt>
      <trkpt lat="47.84153" lon="-2.58422">
        <ele>114</ele>
        <time>2017-01-15T20:06:38Z</time>
      </trkpt>
      <trkpt lat="47.84147" lon="-2.58438">
        <ele>114</ele>
        <time>2017-01-15T20:08:38Z</time>
      </trkpt>
      <trkpt lat="47.84143" lon="-2.58451">
        <ele>114</ele>
        <time>2017-01-15T20:10:38Z</time>
      </trkpt>
      <trkpt lat="47.84137" lon="-2.5847">
        <ele>114</ele>
        <time>2017-01-15T20:12:38Z</time>
      </trkpt>
      <trkpt lat="47.84119" lon="-2.58492">
        <ele>113</ele>
        <time>2017-01-15T20:14:38Z</time>
      </trkpt>
      <trkpt lat="47.8411" lon="-2.58499">
        <ele>113</ele>
        <time>2017-01-15T20:16:38Z</time>
      </trkpt>
      <trkpt lat="47.84101" lon="-2.58504">
        <ele>112</ele>
        <time>2017-01-15T20:18:38Z</time>
      </trkpt>
      <trkpt lat="47.84092" lon="-2.5851">
        <ele>111</ele>
        <time>2017-01-15T20:20:38Z</time>
      </trkpt>
      <trkpt lat="47.84082" lon="-2.58515">
        <ele>110</ele>
        <time>2017-01-15T20:22:38Z</time>
      </trkpt>
      <trkpt lat="47.8407" lon="-2.58518">
        <ele>112</ele>
        <time>2017-01-15T20:24:38Z</time>
      </trkpt>
      <trkpt lat="47.84059" lon="-2.58518">
        <ele>114</ele>
        <time>2017-01-15T20:26:38Z</time>
      </trkpt>
      <trkpt lat="47.84051" lon="-2.58528">
        <ele>115</ele>
        <time>2017-01-15T20:28:38Z</time>
      </trkpt>
      <trkpt lat="47.84049" lon="-2.58543">
        <ele>115</ele>
        <time>2017-01-15T20:30:38Z</time>
      </trkpt>
      <trkpt lat="47.84047" lon="-2.58558">
        <ele>115</ele>
        <time>2017-01-15T20:32:38Z</time>
      </trkpt>
      <trkpt lat="47.84047" lon="-2.58574">
        <ele>114</ele>
        <time>2017-01-15T20:34:38Z</time>
      </trkpt>
      <trkpt lat="47.84048" lon="-2.58602">
        <ele>113</ele>
        <time>2017-01-15T20:36:38Z</time>
      </trkpt>
      <trkpt lat="47.84048" lon="-2.58616">
        <ele>113</ele>
        <time>2017-01-15T20:38:38Z</time>
      </trkpt>
      <trkpt lat="47.84047" lon="-2.5863">
        <ele>113</ele>
        <time>2017-01-15T20:40:38Z</time>
      </trkpt>
      <trkpt lat="47.84046" lon="-2.58646">
        <ele>112</ele>
        <time>2017-01-15T20:42:38Z</time>
      </trkpt>
      <trkpt lat="47.84048" lon="-2.58663">
        <ele>112</ele>
        <time>2017-01-15T20:44:38Z</time>
      </trkpt>
      <trkpt lat="47.8405" lon="-2.58677">
        <ele>111</ele>
        <time>2017-01-15T20:46:38Z</time>
      </trkpt>
      <trkpt lat="47.84053" lon="-2.5869">
        <ele>111</ele>
        <time>2017-01-15T20:48:38Z</time>
      </trkpt>
      <trkpt lat="47.84057" lon="-2.58705">
        <ele>111</ele>
        <time>2017-01-15T20:50:38Z</time>
      </trkpt>
      <trkpt lat="47.84059" lon="-2.58724">
        <ele>111</ele>
        <time>2017-01-15T20:52:38Z</time>
      </trkpt>
      <trkpt lat="47.84064" lon="-2.5874">
        <ele>111</ele>
        <time>2017-01-15T20:54:38Z</time>
      </trkpt>
      <trkpt lat="47.8407" lon="-2.58756">
        <ele>111</ele>
        <time>2017-01-15T20:56:38Z</time>
      </trkpt>
      <trkpt lat="47.8408" lon="-2.58768">
        <ele>111</ele>
        <time>2017-01-15T20:58:38Z</time>
      </trkpt>
      <trkpt lat="47.84091" lon="-2.58779">
        <ele>112</ele>
        <time>2017-01-15T21:00:38Z</time>
      </trkpt>
      <trkpt lat="47.841" lon="-2.58792">
        <ele>113</ele>
        <time>2017-01-15T21:02:38Z</time>
      </trkpt>
      <trkpt lat="47.84121" lon="-2.58816">
        <ele>116</ele>
        <time>2017-01-15T21:04:38Z</time>
      </trkpt>
      <trkpt lat="47.84141" lon="-2.58831">
        <ele>118</ele>
        <time>2017-01-15T21:06:38Z</time>
      </trkpt>
      <trkpt lat="47.84149" lon="-2.58836">
        <ele>119</ele>
        <time>2017-01-15T21:08:38Z</time>
      </trkpt>
      <trkpt lat="47.8416" lon="-2.58841">
        <ele>120</ele>
        <time>2017-01-15T21:10:38Z</time>
      </trkpt>
      <trkpt lat="47.84171" lon="-2.58848">
        <ele>121</ele>
        <time>2017-01-15T21:12:38Z</time>
      </trkpt>
      <trkpt lat="47.84183" lon="-2.58856">
        <ele>121</ele>
        <time>2017-01-15T21:14:38Z</time>
      </trkpt>
      <trkpt lat="47.84193" lon="-2.58862">
        <ele>121</ele>
        <time>2017-01-15T21:16:38Z</time>
      </trkpt>
      <trkpt lat="47.84204" lon="-2.58872">
        <ele>122</ele>
        <time>2017-01-15T21:18:38Z</time>
      </trkpt>
      <trkpt lat="47.84216" lon="-2.58883">
        <ele>123</ele>
        <time>2017-01-15T21:20:38Z</time>
      </trkpt>
      <trkpt lat="47.84225" lon="-2.58891">
        <ele>123</ele>
        <time>2017-01-15T21:22:38Z</time>
      </trkpt>
      <trkpt lat="47.84237" lon="-2.58894">
        <ele>124</ele>
        <time>2017-01-15T21:24:38Z</time>
      </trkpt>
      <trkpt lat="47.84247" lon="-2.58899">
        <ele>124</ele>
        <time>2017-01-15T21:26:38Z</time>
      </trkpt>
      <trkpt lat="47.84257" lon="-2.58909">
        <ele>125</ele>
        <time>2017-01-15T21:28:38Z</time>
      </trkpt>
      <trkpt lat="47.84271" lon="-2.58917">
        <ele>125</ele>
        <time>2017-01-15T21:30:38Z</time>
      </trkpt>
      <trkpt lat="47.84283" lon="-2.58927">
        <ele>125</ele>
        <time>2017-01-15T21:32:38Z</time>
      </trkpt>
      <trkpt lat="47.84297" lon="-2.5894">
        <ele>125</ele>
        <time>2017-01-15T21:34:38Z</time>
      </trkpt>
      <trkpt lat="47.84306" lon="-2.58949">
        <ele>126</ele>
        <time>2017-01-15T21:36:38Z</time>
      </trkpt>
      <trkpt lat="47.84321" lon="-2.58976">
        <ele>126</ele>
        <time>2017-01-15T21:38:38Z</time>
      </trkpt>
      <trkpt lat="47.84326" lon="-2.58993">
        <ele>126</ele>
        <time>2017-01-15T21:40:38Z</time>
      </trkpt>
      <trkpt lat="47.84331" lon="-2.59018">
        <ele>126</ele>
        <time>2017-01-15T21:42:38Z</time>
      </trkpt>
      <trkpt lat="47.84334" lon="-2.59041">
        <ele>126</ele>
        <time>2017-01-15T21:44:38Z</time>
      </trkpt>
      <trkpt lat="47.84334" lon="-2.59061">
        <ele>127</ele>
        <time>2017-01-15T21:46:38Z</time>
      </trkpt>
      <trkpt lat="47.84333" lon="-2.5908">
        <ele>127</ele>
        <time>2017-01-15T21:48:38Z</time>
      </trkpt>
      <trkpt lat="47.84329" lon="-2.59094">
        <ele>127</ele>
        <time>2017-01-15T21:50:38Z</time>
      </trkpt>
      <trkpt lat="47.84327" lon="-2.59108">
        <ele>127</ele>
        <time>2017-01-15T21:52:38Z</time>
      </trkpt>
      <trkpt lat="47.84322" lon="-2.59124">
        <ele>128</ele>
        <time>2017-01-15T21:54:38Z</time>
      </trkpt>
      <trkpt lat="47.84315" lon="-2.59138">
        <ele>128</ele>
        <time>2017-01-15T21:56:38Z</time>
      </trkpt>
      <trkpt lat="47.84304" lon="-2.59155">
        <ele>130</ele>
        <time>2017-01-15T21:58:38Z</time>
      </trkpt>
      <trkpt lat="47.84294" lon="-2.59181">
        <ele>131</ele>
        <time>2017-01-15T22:00:38Z</time>
      </trkpt>
      <trkpt lat="47.84286" lon="-2.59205">
        <ele>131</ele>
        <time>2017-01-15T22:02:38Z</time>
      </trkpt>
      <trkpt lat="47.84278" lon="-2.59232">
        <ele>131</ele>
        <time>2017-01-15T22:04:38Z</time>
      </trkpt>
      <trkpt lat="47.84259" lon="-2.59296">
        <ele>131</ele>
        <time>2017-01-15T22:06:38Z</time>
      </trkpt>
      <trkpt lat="47.84251" lon="-2.59318">
        <ele>131</ele>
        <time>2017-01-15T22:08:38Z</time>
      </trkpt>
      <trkpt lat="47.84243" lon="-2.59331">
        <ele>131</ele>
        <time>2017-01-15T22:10:38Z</time>
      </trkpt>
      <trkpt lat="47.84234" lon="-2.59341">
        <ele>131</ele>
        <time>2017-01-15T22:12:38Z</time>
      </trkpt>
      <trkpt lat="47.84225" lon="-2.59348">
        <ele>131</ele>
        <time>2017-01-15T22:14:38Z</time>
      </trkpt>
      <trkpt lat="47.84206" lon="-2.59357">
        <ele>132</ele>
        <time>2017-01-15T22:16:38Z</time>
      </trkpt>
      <trkpt lat="47.84169" lon="-2.59375">
        <ele>133</ele>
        <time>2017-01-15T22:18:38Z</time>
      </trkpt>
      <trkpt lat="47.8416" lon="-2.5938">
        <ele>133</ele>
        <time>2017-01-15T22:20:38Z</time>
      </trkpt>
      <trkpt lat="47.84137" lon="-2.59391">
        <ele>133</ele>
        <time>2017-01-15T22:22:38Z</time>
      </trkpt>
      <trkpt lat="47.84124" lon="-2.59396">
        <ele>132</ele>
        <time>2017-01-15T22:24:38Z</time>
      </trkpt>
      <trkpt lat="47.84112" lon="-2.59402">
        <ele>132</ele>
        <time>2017-01-15T22:26:38Z</time>
      </trkpt>
      <trkpt lat="47.841" lon="-2.59409">
        <ele>132</ele>
        <time>2017-01-15T22:28:38Z</time>
      </trkpt>
      <trkpt lat="47.8408" lon="-2.5942">
        <ele>132</ele>
        <time>2017-01-15T22:30:38Z</time>
      </trkpt>
      <trkpt lat="47.84072" lon="-2.59425">
        <ele>132</ele>
        <time>2017-01-15T22:32:38Z</time>
      </trkpt>
      <trkpt lat="47.84063" lon="-2.59429">
        <ele>133</ele>
        <time>2017-01-15T22:34:38Z</time>
      </trkpt>
      <trkpt lat="47.84054" lon="-2.59433">
        <ele>133</ele>
        <time>2017-01-15T22:36:38Z</time>
      </trkpt>
      <trkpt lat="47.84045" lon="-2.59441">
        <ele>134</ele>
        <time>2017-01-15T22:38:38Z</time>
      </trkpt>
      <trkpt lat="47.84035" lon="-2.59446">
        <ele>134</ele>
        <time>2017-01-15T22:40:38Z</time>
      </trkpt>
      <trkpt lat="47.84026" lon="-2.59449">
        <ele>134</ele>
        <time>2017-01-15T22:42:38Z</time>
      </trkpt>
      <trkpt lat="47.84007" lon="-2.59461">
        <ele>135</ele>
        <time>2017-01-15T22:44:38Z</time>
      </trkpt>
      <trkpt lat="47.83972" lon="-2.5948">
        <ele>138</ele>
        <time>2017-01-15T22:46:38Z</time>
      </trkpt>
      <trkpt lat="47.83961" lon="-2.59485">
        <ele>139</ele>
        <time>2017-01-15T22:48:38Z</time>
      </trkpt>
      <trkpt lat="47.8395" lon="-2.59492">
        <ele>140</ele>
        <time>2017-01-15T22:50:38Z</time>
      </trkpt>
      <trkpt lat="47.83937" lon="-2.59499">
        <ele>141</ele>
        <time>2017-01-15T22:52:38Z</time>
      </trkpt>
      <trkpt lat="47.83926" lon="-2.59504">
        <ele>142</ele>
        <time>2017-01-15T22:54:38Z</time>
      </trkpt>
      <trkpt lat="47.83903" lon="-2.59517">
        <ele>143</ele>
        <time>2017-01-15T22:56:38Z</time>
      </trkpt>
      <trkpt lat="47.83883" lon="-2.59528">
        <ele>143</ele>
        <time>2017-01-15T22:58:38Z</time>
      </trkpt>
      <trkpt lat="47.83874" lon="-2.59532">
        <ele>143</ele>
        <time>2017-01-15T23:00:38Z</time>
      </trkpt>
      <trkpt lat="47.83865" lon="-2.59535">
        <ele>144</ele>
        <time>2017-01-15T23:02:38Z</time>
      </trkpt>
      <trkpt lat="47.83856" lon="-2.59541">
        <ele>144</ele>
        <time>2017-01-15T23:04:38Z</time>
      </trkpt>
      <trkpt lat="47.83847" lon="-2.59547">
        <ele>144</ele>
        <time>2017-01-15T23:06:38Z</time>
      </trkpt>
      <trkpt lat="47.83838" lon="-2.59552">
        <ele>144</ele>
        <time>2017-01-15T23:08:38Z</time>
      </trkpt>
      <trkpt lat="47.83829" lon="-2.59556">
        <ele>144</ele>
        <time>2017-01-15T23:10:38Z</time>
      </trkpt>
      <trkpt lat="47.8382" lon="-2.59559">
        <ele>144</ele>
        <time>2017-01-15T23:12:38Z</time>
      </trkpt>
      <trkpt lat="47.8381" lon="-2.59567">
        <ele>144</ele>
        <time>2017-01-15T23:14:38Z</time>
      </trkpt>
      <trkpt lat="47.83798" lon="-2.59573">
        <ele>144</ele>
        <time>2017-01-15T23:16:38Z</time>
      </trkpt>
      <trkpt lat="47.83789" lon="-2.59582">
        <ele>144</ele>
        <time>2017-01-15T23:18:38Z</time>
      </trkpt>
      <trkpt lat="47.8379" lon="-2.59596">
        <ele>143</ele>
        <time>2017-01-15T23:20:38Z</time>
      </trkpt>
      <trkpt lat="47.83796" lon="-2.59607">
        <ele>143</ele>
        <time>2017-01-15T23:22:38Z</time>
      </trkpt>
      <trkpt lat="47.83802" lon="-2.59619">
        <ele>143</ele>
        <time>2017-01-15T23:24:38Z</time>
      </trkpt>
      <trkpt lat="47.8381" lon="-2.59631">
        <ele>143</ele>
        <time>2017-01-15T23:26:38Z</time>
      </trkpt>
      <trkpt lat="47.83817" lon="-2.59643">
        <ele>143</ele>
        <time>2017-01-15T23:28:38Z</time>
      </trkpt>
      <trkpt lat="47.83827" lon="-2.59665">
        <ele>143</ele>
        <time>2017-01-15T23:30:38Z</time>
      </trkpt>
      <trkpt lat="47.83834" lon="-2.59674">
        <ele>143</ele>
        <time>2017-01-15T23:32:38Z</time>
      </trkpt>
      <trkpt lat="47.83847" lon="-2.59696">
        <ele>142</ele>
        <time>2017-01-15T23:34:38Z</time>
      </trkpt>
      <trkpt lat="47.83854" lon="-2.59709">
        <ele>142</ele>
        <time>2017-01-15T23:36:38Z</time>
      </trkpt>
      <trkpt lat="47.83866" lon="-2.59733">
        <ele>142</ele>
        <time>2017-01-15T23:38:38Z</time>
      </trkpt>
      <trkpt lat="47.83878" lon="-2.59754">
        <ele>141</ele>
        <time>2017-01-15T23:40:38Z</time>
      </trkpt>
      <trkpt lat="47.83885" lon="-2.59764">
        <ele>140</ele>
        <time>2017-01-15T23:42:38Z</time>
      </trkpt>
      <trkpt lat="47.83899" lon="-2.59788">
        <ele>139</ele>
        <time>2017-01-15T23:44:38Z</time>
      </trkpt>
      <trkpt lat="47.83906" lon="-2.598">
        <ele>138</ele>
        <time>2017-01-15T23:46:38Z</time>
      </trkpt>
      <trkpt lat="47.83913" lon="-2.59812">
        <ele>138</ele>
        <time>2017-01-15T23:48:38Z</time>
      </trkpt>
      <trkpt lat="47.83919" lon="-2.59824">
        <ele>137</ele>
        <time>2017-01-15T23:50:38Z</time>
      </trkpt>
      <trkpt lat="47.83931" lon="-2.59845">
        <ele>137</ele>
        <time>2017-01-15T23:52:38Z</time>
      </trkpt>
      <trkpt lat="47.83937" lon="-2.59855">
        <ele>137</ele>
        <time>2017-01-15T23:54:38Z</time>
      </trkpt>
      <trkpt lat="47.83943" lon="-2.59865">
        <ele>137</ele>
        <time>2017-01-15T23:56:38Z</time>
      </trkpt>
      <trkpt lat="47.83951" lon="-2.59875">
        <ele>137</ele>
        <time>2017-01-15T23:58:38Z</time>
      </trkpt>
      <trkpt lat="47.83957" lon="-2.59883">
        <ele>137</ele>
        <time>2017-01-16T00:00:38Z</time>
      </trkpt>
      <trkpt lat="47.83966" lon="-2.59891">
        <ele>137</ele>
        <time>2017-01-16T00:02:38Z</time>
      </trkpt>
      <trkpt lat="47.83974" lon="-2.59901">
        <ele>138</ele>
        <time>2017-01-16T00:04:38Z</time>
      </trkpt>
      <trkpt lat="47.83981" lon="-2.59912">
        <ele>138</ele>
        <time>2017-01-16T00:06:38Z</time>
      </trkpt>
      <trkpt lat="47.83986" lon="-2.59924">
        <ele>139</ele>
        <time>2017-01-16T00:08:38Z</time>
      </trkpt>
      <trkpt lat="47.83988" lon="-2.5994">
        <ele>139</ele>
        <time>2017-01-16T00:10:38Z</time>
      </trkpt>
      <trkpt lat="47.83989" lon="-2.59956">
        <ele>140</ele>
        <time>2017-01-16T00:12:38Z</time>
      </trkpt>
      <trkpt lat="47.83985" lon="-2.59989">
        <ele>141</ele>
        <time>2017-01-16T00:14:38Z</time>
      </trkpt>
      <trkpt lat="47.83981" lon="-2.60002">
        <ele>141</ele>
        <time>2017-01-16T00:16:38Z</time>
      </trkpt>
      <trkpt lat="47.83976" lon="-2.60015">
        <ele>141</ele>
        <time>2017-01-16T00:18:38Z</time>
      </trkpt>
      <trkpt lat="47.83951" lon="-2.60068">
        <ele>140</ele>
        <time>2017-01-16T00:20:38Z</time>
      </trkpt>
      <trkpt lat="47.83945" lon="-2.60084">
        <ele>140</ele>
        <time>2017-01-16T00:22:38Z</time>
      </trkpt>
      <trkpt lat="47.83938" lon="-2.601">
        <ele>140</ele>
        <time>2017-01-16T00:24:38Z</time>
      </trkpt>
      <trkpt lat="47.83932" lon="-2.60117">
        <ele>139</ele>
        <time>2017-01-16T00:26:38Z</time>
      </trkpt>
      <trkpt lat="47.83903" lon="-2.60185">
        <ele>139</ele>
        <time>2017-01-16T00:28:38Z</time>
      </trkpt>
      <trkpt lat="47.83896" lon="-2.60201">
        <ele>139</ele>
        <time>2017-01-16T00:30:38Z</time>
      </trkpt>
      <trkpt lat="47.83891" lon="-2.60212">
        <ele>139</ele>
        <time>2017-01-16T00:32:38Z</time>
      </trkpt>
      <trkpt lat="47.83882" lon="-2.60249">
        <ele>139</ele>
        <time>2017-01-16T00:34:38Z</time>
      </trkpt>
      <trkpt lat="47.83878" lon="-2.60262">
        <ele>139</ele>
        <time>2017-01-16T00:36:38Z</time>
      </trkpt>
      <trkpt lat="47.83871" lon="-2.6029">
        <ele>139</ele>
        <time>2017-01-16T00:38:38Z</time>
      </trkpt>
      <trkpt lat="47.83866" lon="-2.60309">
        <ele>139</ele>
        <time>2017-01-16T00:40:38Z</time>
      </trkpt>
      <trkpt lat="47.83861" lon="-2.60325">
        <ele>138</ele>
        <time>2017-01-16T00:42:38Z</time>
      </trkpt>
      <trkpt lat="47.83855" lon="-2.6034">
        <ele>138</ele>
        <time>2017-01-16T00:44:38Z</time>
      </trkpt>
      <trkpt lat="47.83851" lon="-2.60356">
        <ele>137</ele>
        <time>2017-01-16T00:46:38Z</time>
      </trkpt>
      <trkpt lat="47.83846" lon="-2.60373">
        <ele>137</ele>
        <time>2017-01-16T00:48:38Z</time>
      </trkpt>
      <trkpt lat="47.83836" lon="-2.60404">
        <ele>135</ele>
        <time>2017-01-16T00:50:38Z</time>
      </trkpt>
      <trkpt lat="47.83828" lon="-2.60431">
        <ele>134</ele>
        <time>2017-01-16T00:52:38Z</time>
      </trkpt>
      <trkpt lat="47.83824" lon="-2.60444">
        <ele>134</ele>
        <time>2017-01-16T00:54:38Z</time>
      </trkpt>
      <trkpt lat="47.83815" lon="-2.6047">
        <ele>133</ele>
        <time>2017-01-16T00:56:38Z</time>
      </trkpt>
      <trkpt lat="47.83811" lon="-2.60485">
        <ele>133</ele>
        <time>2017-01-16T00:58:38Z</time>
      </trkpt>
      <trkpt lat="47.83794" lon="-2.60549">
        <ele>132</ele>
        <time>2017-01-16T01:00:38Z</time>
      </trkpt>
      <trkpt lat="47.83789" lon="-2.60566">
        <ele>132</ele>
        <time>2017-01-16T01:02:38Z</time>
      </trkpt>
      <trkpt lat="47.83783" lon="-2.60584">
        <ele>131</ele>
        <time>2017-01-16T01:04:38Z</time>
      </trkpt>
      <trkpt lat="47.83779" lon="-2.60602">
        <ele>130</ele>
        <time>2017-01-16T01:06:38Z</time>
      </trkpt>
      <trkpt lat="47.83771" lon="-2.60635">
        <ele>129</ele>
        <time>2017-01-16T01:08:38Z</time>
      </trkpt>
      <trkpt lat="47.83763" lon="-2.60666">
        <ele>128</ele>
        <time>2017-01-16T01:10:38Z</time>
      </trkpt>
      <trkpt lat="47.83755" lon="-2.60695">
        <ele>127</ele>
        <time>2017-01-16T01:12:38Z</time>
      </trkpt>
      <trkpt lat="47.83748" lon="-2.60723">
        <ele>126</ele>
        <time>2017-01-16T01:14:38Z</time>
      </trkpt>
      <trkpt lat="47.83741" lon="-2.60748">
        <ele>126</ele>
        <time>2017-01-16T01:16:38Z</time>
      </trkpt>
      <trkpt lat="47.83736" lon="-2.60764">
        <ele>126</ele>
        <time>2017-01-16T01:18:38Z</time>
      </trkpt>
      <trkpt lat="47.83736" lon="-2.60777">
        <ele>126</ele>
        <time>2017-01-16T01:20:38Z</time>
      </trkpt>
      <trkpt lat="47.83743" lon="-2.60785">
        <ele>125</ele>
        <time>2017-01-16T01:22:38Z</time>
      </trkpt>
      <trkpt lat="47.83753" lon="-2.60788">
        <ele>125</ele>
        <time>2017-01-16T01:24:38Z</time>
      </trkpt>
      <trkpt lat="47.83763" lon="-2.60789">
        <ele>126</ele>
        <time>2017-01-16T01:26:38Z</time>
      </trkpt>
      <trkpt lat="47.83774" lon="-2.6079">
        <ele>126</ele>
        <time>2017-01-16T01:28:38Z</time>
      </trkpt>
      <trkpt lat="47.83785" lon="-2.60793">
        <ele>126</ele>
        <time>2017-01-16T01:30:38Z</time>
      </trkpt>
      <trkpt lat="47.83804" lon="-2.60797">
        <ele>127</ele>
        <time>2017-01-16T01:32:38Z</time>
      </trkpt>
      <trkpt lat="47.83813" lon="-2.60799">
        <ele>127</ele>
        <time>2017-01-16T01:34:38Z</time>
      </trkpt>
      <trkpt lat="47.83834" lon="-2.60802">
        <ele>127</ele>
        <time>2017-01-16T01:36:38Z</time>
      </trkpt>
      <trkpt lat="47.83844" lon="-2.60805">
        <ele>127</ele>
        <time>2017-01-16T01:38:38Z</time>
      </trkpt>
      <trkpt lat="47.83854" lon="-2.60809">
        <ele>127</ele>
        <time>2017-01-16T01:40:38Z</time>
      </trkpt>
      <trkpt lat="47.83865" lon="-2.60811">
        <ele>128</ele>
        <time>2017-01-16T01:42:38Z</time>
      </trkpt>
      <trkpt lat="47.83876" lon="-2.60814">
        <ele>128</ele>
        <time>2017-01-16T01:44:38Z</time>
      </trkpt>
      <trkpt lat="47.83885" lon="-2.60816">
        <ele>128</ele>
        <time>2017-01-16T01:46:38Z</time>
      </trkpt>
      <trkpt lat="47.83895" lon="-2.60816">
        <ele>128</ele>
        <time>2017-01-16T01:48:38Z</time>
      </trkpt>
      <trkpt lat="47.83904" lon="-2.60819">
        <ele>129</ele>
        <time>2017-01-16T01:50:38Z</time>
      </trkpt>
      <trkpt lat="47.83913" lon="-2.6082">
        <ele>129</ele>
        <time>2017-01-16T01:52:38Z</time>
      </trkpt>
      <trkpt lat="47.83923" lon="-2.60821">
        <ele>129</ele>
        <time>2017-01-16T01:54:38Z</time>
      </trkpt>
      <trkpt lat="47.83934" lon="-2.60824">
        <ele>129</ele>
        <time>2017-01-16T01:56:38Z</time>
      </trkpt>
      <trkpt lat="47.83943" lon="-2.60827">
        <ele>129</ele>
        <time>2017-01-16T01:58:38Z</time>
      </trkpt>
      <trkpt lat="47.83954" lon="-2.60829">
        <ele>129</ele>
        <time>2017-01-16T02:00:38Z</time>
      </trkpt>
      <trkpt lat="47.83966" lon="-2.60831">
        <ele>130</ele>
        <time>2017-01-16T02:02:38Z</time>
      </trkpt>
      <trkpt lat="47.83976" lon="-2.60834">
        <ele>130</ele>
        <time>2017-01-16T02:04:38Z</time>
      </trkpt>
      <trkpt lat="47.83985" lon="-2.60839">
        <ele>130</ele>
        <time>2017-01-16T02:06:38Z</time>
      </trkpt>
      <trkpt lat="47.83994" lon="-2.60847">
        <ele>130</ele>
        <time>2017-01-16T02:08:38Z</time>
      </trkpt>
      <trkpt lat="47.83998" lon="-2.6086">
        <ele>130</ele>
        <time>2017-01-16T02:10:38Z</time>
      </trkpt>
      <trkpt lat="47.83997" lon="-2.60877">
        <ele>130</ele>
        <time>2017-01-16T02:12:38Z</time>
      </trkpt>
      <trkpt lat="47.83995" lon="-2.60892">
        <ele>130</ele>
        <time>2017-01-16T02:14:38Z</time>
      </trkpt>
      <trkpt lat="47.83993" lon="-2.60907">
        <ele>130</ele>
        <time>2017-01-16T02:16:38Z</time>
      </trkpt>
      <trkpt lat="47.83989" lon="-2.60939">
        <ele>130</ele>
        <time>2017-01-16T02:18:38Z</time>
      </trkpt>
      <trkpt lat="47.83989" lon="-2.60957">
        <ele>131</ele>
        <time>2017-01-16T02:20:38Z</time>
      </trkpt>
      <trkpt lat="47.83984" lon="-2.61003">
        <ele>132</ele>
        <time>2017-01-16T02:22:38Z</time>
      </trkpt>
      <trkpt lat="47.8398" lon="-2.61049">
        <ele>133</ele>
        <time>2017-01-16T02:24:38Z</time>
      </trkpt>
      <trkpt lat="47.8398" lon="-2.61066">
        <ele>133</ele>
        <time>2017-01-16T02:26:38Z</time>
      </trkpt>
      <trkpt lat="47.83977" lon="-2.61114">
        <ele>134</ele>
        <time>2017-01-16T02:28:38Z</time>
      </trkpt>
      <trkpt lat="47.83977" lon="-2.61146">
        <ele>135</ele>
        <time>2017-01-16T02:30:38Z</time>
      </trkpt>
      <trkpt lat="47.83977" lon="-2.61162">
        <ele>135</ele>
        <time>2017-01-16T02:32:38Z</time>
      </trkpt>
      <trkpt lat="47.83976" lon="-2.61176">
        <ele>135</ele>
        <time>2017-01-16T02:34:38Z</time>
      </trkpt>
      <trkpt lat="47.83976" lon="-2.61191">
        <ele>136</ele>
        <time>2017-01-16T02:36:38Z</time>
      </trkpt>
      <trkpt lat="47.83974" lon="-2.61221">
        <ele>136</ele>
        <time>2017-01-16T02:38:38Z</time>
      </trkpt>
      <trkpt lat="47.83973" lon="-2.61234">
        <ele>136</ele>
        <time>2017-01-16T02:40:38Z</time>
      </trkpt>
      <trkpt lat="47.83973" lon="-2.61251">
        <ele>137</ele>
        <time>2017-01-16T02:42:38Z</time>
      </trkpt>
      <trkpt lat="47.83972" lon="-2.61266">
        <ele>137</ele>
        <time>2017-01-16T02:44:38Z</time>
      </trkpt>
      <trkpt lat="47.83962" lon="-2.6131">
        <ele>137</ele>
        <time>2017-01-16T02:46:38Z</time>
      </trkpt>
      <trkpt lat="47.83958" lon="-2.61324">
        <ele>137</ele>
        <time>2017-01-16T02:48:38Z</time>
      </trkpt>
      <trkpt lat="47.83954" lon="-2.61338">
        <ele>137</ele>
        <time>2017-01-16T02:50:38Z</time>
      </trkpt>
      <trkpt lat="47.8395" lon="-2.61351">
        <ele>137</ele>
        <time>2017-01-16T02:52:38Z</time>
      </trkpt>
      <trkpt lat="47.8394" lon="-2.61353">
        <ele>137</ele>
        <time>2017-01-16T02:54:38Z</time>
      </trkpt>
      <trkpt lat="47.83917" lon="-2.61345">
        <ele>136</ele>
        <time>2017-01-16T02:56:38Z</time>
      </trkpt>
      <trkpt lat="47.83905" lon="-2.61342">
        <ele>136</ele>
        <time>2017-01-16T02:58:38Z</time>
      </trkpt>
      <trkpt lat="47.83895" lon="-2.61336">
        <ele>135</ele>
        <time>2017-01-16T03:00:38Z</time>
      </trkpt>
      <trkpt lat="47.83886" lon="-2.61335">
        <ele>135</ele>
        <time>2017-01-16T03:02:38Z</time>
      </trkpt>
      <trkpt lat="47.83877" lon="-2.61328">
        <ele>135</ele>
        <time>2017-01-16T03:04:38Z</time>
      </trkpt>
      <trkpt lat="47.83868" lon="-2.61317">
        <ele>134</ele>
        <time>2017-01-16T03:06:38Z</time>
      </trkpt>
      <trkpt lat="47.83856" lon="-2.61287">
        <ele>133</ele>
        <time>2017-01-16T03:08:38Z</time>
      </trkpt>
      <trkpt lat="47.83851" lon="-2.61272">
        <ele>133</ele>
        <time>2017-01-16T03:10:38Z</time>
      </trkpt>
      <trkpt lat="47.83846" lon="-2.61257">
        <ele>132</ele>
        <time>2017-01-16T03:12:38Z</time>
      </trkpt>
      <trkpt lat="47.83843" lon="-2.6124">
        <ele>132</ele>
        <time>2017-01-16T03:14:38Z</time>
      </trkpt>
      <trkpt lat="47.83839" lon="-2.61226">
        <ele>132</ele>
        <time>2017-01-16T03:16:38Z</time>
      </trkpt>
      <trkpt lat="47.83832" lon="-2.61211">
        <ele>131</ele>
        <time>2017-01-16T03:18:38Z</time>
      </trkpt>
      <trkpt lat="47.83826" lon="-2.612">
        <ele>131</ele>
        <time>2017-01-16T03:20:38Z</time>
      </trkpt>
      <trkpt lat="47.83817" lon="-2.6119">
        <ele>130</ele>
        <time>2017-01-16T03:22:38Z</time>
      </trkpt>
      <trkpt lat="47.83807" lon="-2.61182">
        <ele>130</ele>
        <time>2017-01-16T03:24:38Z</time>
      </trkpt>
      <trkpt lat="47.83798" lon="-2.61178">
        <ele>129</ele>
        <time>2017-01-16T03:26:38Z</time>
      </trkpt>
      <trkpt lat="47.83789" lon="-2.61174">
        <ele>129</ele>
        <time>2017-01-16T03:28:38Z</time>
      </trkpt>
      <trkpt lat="47.8378" lon="-2.6117">
        <ele>129</ele>
        <time>2017-01-16T03:30:38Z</time>
      </trkpt>
      <trkpt lat="47.8377" lon="-2.61167">
        <ele>128</ele>
        <time>2017-01-16T03:32:38Z</time>
      </trkpt>
      <trkpt lat="47.83761" lon="-2.61164">
        <ele>128</ele>
        <time>2017-01-16T03:34:38Z</time>
      </trkpt>
      <trkpt lat="47.83751" lon="-2.61162">
        <ele>128</ele>
        <time>2017-01-16T03:36:38Z</time>
      </trkpt>
      <trkpt lat="47.8373" lon="-2.6116">
        <ele>128</ele>
        <time>2017-01-16T03:38:38Z</time>
      </trkpt>
      <trkpt lat="47.83718" lon="-2.61159">
        <ele>128</ele>
        <time>2017-01-16T03:40:38Z</time>
      </trkpt>
      <trkpt lat="47.83709" lon="-2.61156">
        <ele>128</ele>
        <time>2017-01-16T03:42:38Z</time>
      </trkpt>
      <trkpt lat="47.83687" lon="-2.61153">
        <ele>128</ele>
        <time>2017-01-16T03:44:38Z</time>
      </trkpt>
      <trkpt lat="47.83676" lon="-2.61154">
        <ele>128</ele>
        <time>2017-01-16T03:46:38Z</time>
      </trkpt>
      <trkpt lat="47.83665" lon="-2.61152">
        <ele>128</ele>
        <time>2017-01-16T03:48:38Z</time>
      </trkpt>
      <trkpt lat="47.83652" lon="-2.61152">
        <ele>128</ele>
        <time>2017-01-16T03:50:38Z</time>
      </trkpt>
      <trkpt lat="47.8364" lon="-2.61148">
        <ele>128</ele>
        <time>2017-01-16T03:52:38Z</time>
      </trkpt>
      <trkpt lat="47.83616" lon="-2.61146">
        <ele>128</ele>
        <time>2017-01-16T03:54:38Z</time>
      </trkpt>
      <trkpt lat="47.83603" lon="-2.61145">
        <ele>128</ele>
        <time>2017-01-16T03:56:38Z</time>
      </trkpt>
      <trkpt lat="47.83583" lon="-2.61145">
        <ele>128</ele>
        <time>2017-01-16T03:58:38Z</time>
      </trkpt>
      <trkpt lat="47.83572" lon="-2.61149">
        <ele>128</ele>
        <time>2017-01-16T04:00:38Z</time>
      </trkpt>
      <trkpt lat="47.83565" lon="-2.61152">
        <ele>128</ele>
        <time>2017-01-16T04:02:38Z</time>
      </trkpt>
      <trkpt lat="47.83558" lon="-2.61148">
        <ele>127</ele>
        <time>2017-01-16T04:04:38Z</time>
      </trkpt>
      <trkpt lat="47.83553" lon="-2.61134">
        <ele>127</ele>
        <time>2017-01-16T04:06:38Z</time>
      </trkpt>
      <trkpt lat="47.83548" lon="-2.61119">
        <ele>126</ele>
        <time>2017-01-16T04:08:38Z</time>
      </trkpt>
      <trkpt lat="47.83539" lon="-2.6109">
        <ele>125</ele>
        <time>2017-01-16T04:10:38Z</time>
      </trkpt>
      <trkpt lat="47.83534" lon="-2.61073">
        <ele>125</ele>
        <time>2017-01-16T04:12:38Z</time>
      </trkpt>
      <trkpt lat="47.8353" lon="-2.61058">
        <ele>125</ele>
        <time>2017-01-16T04:14:38Z</time>
      </trkpt>
      <trkpt lat="47.83525" lon="-2.61044">
        <ele>125</ele>
        <time>2017-01-16T04:16:38Z</time>
      </trkpt>
      <trkpt lat="47.83513" lon="-2.61042">
        <ele>125</ele>
        <time>2017-01-16T04:18:38Z</time>
      </trkpt>
      <trkpt lat="47.835" lon="-2.61044">
        <ele>125</ele>
        <time>2017-01-16T04:20:38Z</time>
      </trkpt>
      <trkpt lat="47.8349" lon="-2.61048">
        <ele>125</ele>
        <time>2017-01-16T04:22:38Z</time>
      </trkpt>
      <trkpt lat="47.83479" lon="-2.61051">
        <ele>125</ele>
        <time>2017-01-16T04:24:38Z</time>
      </trkpt>
      <trkpt lat="47.83469" lon="-2.61051">
        <ele>124</ele>
        <time>2017-01-16T04:26:38Z</time>
      </trkpt>
      <trkpt lat="47.83459" lon="-2.61051">
        <ele>124</ele>
        <time>2017-01-16T04:28:38Z</time>
      </trkpt>
      <trkpt lat="47.83448" lon="-2.61046">
        <ele>124</ele>
        <time>2017-01-16T04:30:38Z</time>
      </trkpt>
      <trkpt lat="47.83426" lon="-2.61029">
        <ele>124</ele>
        <time>2017-01-16T04:32:38Z</time>
      </trkpt>
      <trkpt lat="47.83405" lon="-2.61013">
        <ele>124</ele>
        <time>2017-01-16T04:34:38Z</time>
      </trkpt>
      <trkpt lat="47.83396" lon="-2.61013">
        <ele>124</ele>
        <time>2017-01-16T04:36:38Z</time>
      </trkpt>
      <trkpt lat="47.83348" lon="-2.60976">
        <ele>125</ele>
        <time>2017-01-16T04:38:38Z</time>
      </trkpt>
      <trkpt lat="47.83327" lon="-2.60982">
        <ele>125</ele>
        <time>2017-01-16T04:40:38Z</time>
      </trkpt>
      <trkpt lat="47.83362" lon="-2.61187">
        <ele>126</ele>
        <time>2017-01-16T04:42:38Z</time>
      </trkpt>
      <trkpt lat="47.83362" lon="-2.61201">
        <ele>127</ele>
        <time>2017-01-16T04:44:38Z</time>
      </trkpt>
      <trkpt lat="47.83359" lon="-2.61215">
        <ele>127</ele>
        <time>2017-01-16T04:46:38Z</time>
      </trkpt>
      <trkpt lat="47.83359" lon="-2.61231">
        <ele>128</ele>
        <time>2017-01-16T04:48:38Z</time>
      </trkpt>
      <trkpt lat="47.83359" lon="-2.61246">
        <ele>128</ele>
        <time>2017-01-16T04:50:38Z</time>
      </trkpt>
      <trkpt lat="47.83359" lon="-2.61261">
        <ele>128</ele>
        <time>2017-01-16T04:52:38Z</time>
      </trkpt>
      <trkpt lat="47.83359" lon="-2.61277">
        <ele>128</ele>
        <time>2017-01-16T04:54:38Z</time>
      </trkpt>
      <trkpt lat="47.83357" lon="-2.61291">
        <ele>129</ele>
        <time>2017-01-16T04:56:38Z</time>
      </trkpt>
      <trkpt lat="47.83357" lon="-2.61307">
        <ele>129</ele>
        <time>2017-01-16T04:58:38Z</time>
      </trkpt>
      <trkpt lat="47.83357" lon="-2.61321">
        <ele>129</ele>
        <time>2017-01-16T05:00:38Z</time>
      </trkpt>
      <trkpt lat="47.83356" lon="-2.61336">
        <ele>129</ele>
        <time>2017-01-16T05:02:38Z</time>
      </trkpt>
      <trkpt lat="47.83356" lon="-2.6135">
        <ele>129</ele>
        <time>2017-01-16T05:04:38Z</time>
      </trkpt>
      <trkpt lat="47.83356" lon="-2.61364">
        <ele>129</ele>
        <time>2017-01-16T05:06:38Z</time>
      </trkpt>
      <trkpt lat="47.83363" lon="-2.61377">
        <ele>128</ele>
        <time>2017-01-16T05:08:38Z</time>
      </trkpt>
      <trkpt lat="47.83374" lon="-2.61381">
        <ele>128</ele>
        <time>2017-01-16T05:10:38Z</time>
      </trkpt>
      <trkpt lat="47.83384" lon="-2.61383">
        <ele>129</ele>
        <time>2017-01-16T05:12:38Z</time>
      </trkpt>
      <trkpt lat="47.83394" lon="-2.61385">
        <ele>129</ele>
        <time>2017-01-16T05:14:38Z</time>
      </trkpt>
      <trkpt lat="47.83406" lon="-2.61388">
        <ele>129</ele>
        <time>2017-01-16T05:16:38Z</time>
      </trkpt>
      <trkpt lat="47.83416" lon="-2.61393">
        <ele>129</ele>
        <time>2017-01-16T05:18:38Z</time>
      </trkpt>
      <trkpt lat="47.83425" lon="-2.61399">
        <ele>129</ele>
        <time>2017-01-16T05:20:38Z</time>
      </trkpt>
      <trkpt lat="47.83434" lon="-2.61408">
        <ele>129</ele>
        <time>2017-01-16T05:22:38Z</time>
      </trkpt>
      <trkpt lat="47.83438" lon="-2.61439">
        <ele>129</ele>
        <time>2017-01-16T05:24:38Z</time>
      </trkpt>
      <trkpt lat="47.83438" lon="-2.61453">
        <ele>129</ele>
        <time>2017-01-16T05:26:38Z</time>
      </trkpt>
      <trkpt lat="47.83436" lon="-2.6147">
        <ele>129</ele>
        <time>2017-01-16T05:28:38Z</time>
      </trkpt>
      <trkpt lat="47.83434" lon="-2.61485">
        <ele>130</ele>
        <time>2017-01-16T05:30:38Z</time>
      </trkpt>
      <trkpt lat="47.83428" lon="-2.61531">
        <ele>129</ele>
        <time>2017-01-16T05:32:38Z</time>
      </trkpt>
      <trkpt lat="47.83429" lon="-2.61545">
        <ele>129</ele>
        <time>2017-01-16T05:34:38Z</time>
      </trkpt>
      <trkpt lat="47.83435" lon="-2.61559">
        <ele>128</ele>
        <time>2017-01-16T05:36:38Z</time>
      </trkpt>
      <trkpt lat="47.83437" lon="-2.61575">
        <ele>128</ele>
        <time>2017-01-16T05:38:38Z</time>
      </trkpt>
      <trkpt lat="47.83436" lon="-2.61591">
        <ele>127</ele>
        <time>2017-01-16T05:40:38Z</time>
      </trkpt>
      <trkpt lat="47.83435" lon="-2.61608">
        <ele>126</ele>
        <time>2017-01-16T05:42:38Z</time>
      </trkpt>
      <trkpt lat="47.83432" lon="-2.61624">
        <ele>125</ele>
        <time>2017-01-16T05:44:38Z</time>
      </trkpt>
      <trkpt lat="47.8343" lon="-2.61639">
        <ele>125</ele>
        <time>2017-01-16T05:46:38Z</time>
      </trkpt>
      <trkpt lat="47.83428" lon="-2.61654">
        <ele>124</ele>
        <time>2017-01-16T05:48:38Z</time>
      </trkpt>
      <trkpt lat="47.83426" lon="-2.61669">
        <ele>123</ele>
        <time>2017-01-16T05:50:38Z</time>
      </trkpt>
      <trkpt lat="47.83426" lon="-2.61685">
        <ele>122</ele>
        <time>2017-01-16T05:52:38Z</time>
      </trkpt>
      <trkpt lat="47.83422" lon="-2.617">
        <ele>121</ele>
        <time>2017-01-16T05:54:38Z</time>
      </trkpt>
      <trkpt lat="47.83414" lon="-2.6171">
        <ele>120</ele>
        <time>2017-01-16T05:56:38Z</time>
      </trkpt>
      <trkpt lat="47.83406" lon="-2.61714">
        <ele>119</ele>
        <time>2017-01-16T05:58:38Z</time>
      </trkpt>
      <trkpt lat="47.83392" lon="-2.61717">
        <ele>118</ele>
        <time>2017-01-16T06:00:38Z</time>
      </trkpt>
      <trkpt lat="47.8338" lon="-2.61719">
        <ele>118</ele>
        <time>2017-01-16T06:02:38Z</time>
      </trkpt>
      <trkpt lat="47.83369" lon="-2.61719">
        <ele>117</ele>
        <time>2017-01-16T06:04:38Z</time>
      </trkpt>
      <trkpt lat="47.8336" lon="-2.61714">
        <ele>117</ele>
        <time>2017-01-16T06:06:38Z</time>
      </trkpt>
      <trkpt lat="47.83347" lon="-2.61708">
        <ele>117</ele>
        <time>2017-01-16T06:08:38Z</time>
      </trkpt>
      <trkpt lat="47.83334" lon="-2.61707">
        <ele>116</ele>
        <time>2017-01-16T06:10:38Z</time>
      </trkpt>
      <trkpt lat="47.83324" lon="-2.61715">
        <ele>115</ele>
        <time>2017-01-16T06:12:38Z</time>
      </trkpt>
      <trkpt lat="47.83318" lon="-2.61728">
        <ele>114</ele>
        <time>2017-01-16T06:14:38Z</time>
      </trkpt>
      <trkpt lat="47.83306" lon="-2.61754">
        <ele>112</ele>
        <time>2017-01-16T06:16:38Z</time>
      </trkpt>
      <trkpt lat="47.833" lon="-2.61767">
        <ele>111</ele>
        <time>2017-01-16T06:18:38Z</time>
      </trkpt>
      <trkpt lat="47.83293" lon="-2.61783">
        <ele>110</ele>
        <time>2017-01-16T06:20:38Z</time>
      </trkpt>
      <trkpt lat="47.83287" lon="-2.61795">
        <ele>110</ele>
        <time>2017-01-16T06:22:38Z</time>
      </trkpt>
      <trkpt lat="47.83283" lon="-2.61807">
        <ele>109</ele>
        <time>2017-01-16T06:24:38Z</time>
      </trkpt>
      <trkpt lat="47.83277" lon="-2.6182">
        <ele>108</ele>
        <time>2017-01-16T06:26:38Z</time>
      </trkpt>
      <trkpt lat="47.83272" lon="-2.61833">
        <ele>107</ele>
        <time>2017-01-16T06:28:38Z</time>
      </trkpt>
      <trkpt lat="47.83266" lon="-2.61846">
        <ele>107</ele>
        <time>2017-01-16T06:30:38Z</time>
      </trkpt>
      <trkpt lat="47.8326" lon="-2.6186">
        <ele>107</ele>
        <time>2017-01-16T06:32:38Z</time>
      </trkpt>
      <trkpt lat="47.83251" lon="-2.61872">
        <ele>107</ele>
        <time>2017-01-16T06:34:38Z</time>
      </trkpt>
      <trkpt lat="47.83244" lon="-2.61885">
        <ele>108</ele>
        <time>2017-01-16T06:36:38Z</time>
      </trkpt>
      <trkpt lat="47.83237" lon="-2.61898">
        <ele>108</ele>
        <time>2017-01-16T06:38:38Z</time>
      </trkpt>
      <trkpt lat="47.83231" lon="-2.61911">
        <ele>109</ele>
        <time>2017-01-16T06:40:38Z</time>
      </trkpt>
      <trkpt lat="47.83231" lon="-2.61927">
        <ele>109</ele>
        <time>2017-01-16T06:42:38Z</time>
      </trkpt>
      <trkpt lat="47.83221" lon="-2.61986">
        <ele>112</ele>
        <time>2017-01-16T06:44:38Z</time>
      </trkpt>
      <trkpt lat="47.83205" lon="-2.61947">
        <ele>114</ele>
        <time>2017-01-16T06:46:38Z</time>
      </trkpt>
      <trkpt lat="47.83186" lon="-2.61935">
        <ele>116</ele>
        <time>2017-01-16T06:48:38Z</time>
      </trkpt>
      <trkpt lat="47.83155" lon="-2.61935">
        <ele>121</ele>
        <time>2017-01-16T06:50:38Z</time>
      </trkpt>
      <trkpt lat="47.83144" lon="-2.61934">
        <ele>122</ele>
        <time>2017-01-16T06:52:38Z</time>
      </trkpt>
      <trkpt lat="47.83131" lon="-2.61935">
        <ele>123</ele>
        <time>2017-01-16T06:54:38Z</time>
      </trkpt>
      <trkpt lat="47.83097" lon="-2.61933">
        <ele>127</ele>
        <time>2017-01-16T06:56:38Z</time>
      </trkpt>
      <trkpt lat="47.83072" lon="-2.61924">
        <ele>129</ele>
        <time>2017-01-16T06:58:38Z</time>
      </trkpt>
      <trkpt lat="47.83063" lon="-2.61914">
        <ele>129</ele>
        <time>2017-01-16T07:00:38Z</time>
      </trkpt>
      <trkpt lat="47.83054" lon="-2.61905">
        <ele>130</ele>
        <time>2017-01-16T07:02:38Z</time>
      </trkpt>
      <trkpt lat="47.83046" lon="-2.61895">
        <ele>130</ele>
        <time>2017-01-16T07:04:38Z</time>
      </trkpt>
      <trkpt lat="47.83037" lon="-2.61887">
        <ele>130</ele>
        <time>2017-01-16T07:06:38Z</time>
      </trkpt>
      <trkpt lat="47.83029" lon="-2.61878">
        <ele>130</ele>
        <time>2017-01-16T07:08:38Z</time>
      </trkpt>
      <trkpt lat="47.83022" lon="-2.6187">
        <ele>130</ele>
        <time>2017-01-16T07:10:38Z</time>
      </trkpt>
      <trkpt lat="47.83015" lon="-2.6186">
        <ele>130</ele>
        <time>2017-01-16T07:12:38Z</time>
      </trkpt>
      <trkpt lat="47.82999" lon="-2.61841">
        <ele>129</ele>
        <time>2017-01-16T07:14:38Z</time>
      </trkpt>
      <trkpt lat="47.8299" lon="-2.6183">
        <ele>129</ele>
        <time>2017-01-16T07:16:38Z</time>
      </trkpt>
      <trkpt lat="47.82973" lon="-2.61812">
        <ele>128</ele>
        <time>2017-01-16T07:18:38Z</time>
      </trkpt>
      <trkpt lat="47.82964" lon="-2.61802">
        <ele>128</ele>
        <time>2017-01-16T07:20:38Z</time>
      </trkpt>
      <trkpt lat="47.82954" lon="-2.61793">
        <ele>128</ele>
        <time>2017-01-16T07:22:38Z</time>
      </trkpt>
      <trkpt lat="47.82946" lon="-2.61783">
        <ele>127</ele>
        <time>2017-01-16T07:24:38Z</time>
      </trkpt>
      <trkpt lat="47.82937" lon="-2.61774">
        <ele>127</ele>
        <time>2017-01-16T07:26:38Z</time>
      </trkpt>
      <trkpt lat="47.8293" lon="-2.61763">
        <ele>127</ele>
        <time>2017-01-16T07:28:38Z</time>
      </trkpt>
      <trkpt lat="47.82921" lon="-2.61754">
        <ele>126</ele>
        <time>2017-01-16T07:30:38Z</time>
      </trkpt>
      <trkpt lat="47.82913" lon="-2.61744">
        <ele>126</ele>
        <time>2017-01-16T07:32:38Z</time>
      </trkpt>
      <trkpt lat="47.82905" lon="-2.61736">
        <ele>125</ele>
        <time>2017-01-16T07:34:38Z</time>
      </trkpt>
      <trkpt lat="47.82896" lon="-2.61727">
        <ele>124</ele>
        <time>2017-01-16T07:36:38Z</time>
      </trkpt>
      <trkpt lat="47.82887" lon="-2.61716">
        <ele>124</ele>
        <time>2017-01-16T07:38:38Z</time>
      </trkpt>
      <trkpt lat="47.8288" lon="-2.61703">
        <ele>123</ele>
        <time>2017-01-16T07:40:38Z</time>
      </trkpt>
      <trkpt lat="47.82874" lon="-2.6169">
        <ele>123</ele>
        <time>2017-01-16T07:42:38Z</time>
      </trkpt>
      <trkpt lat="47.82861" lon="-2.61681">
        <ele>122</ele>
        <time>2017-01-16T07:44:38Z</time>
      </trkpt>
      <trkpt lat="47.82849" lon="-2.61674">
        <ele>120</ele>
        <time>2017-01-16T07:46:38Z</time>
      </trkpt>
      <trkpt lat="47.82836" lon="-2.61669">
        <ele>118</ele>
        <time>2017-01-16T07:48:38Z</time>
      </trkpt>
      <trkpt lat="47.82826" lon="-2.61664">
        <ele>118</ele>
        <time>2017-01-16T07:50:38Z</time>
      </trkpt>
      <trkpt lat="47.82818" lon="-2.61656">
        <ele>117</ele>
        <time>2017-01-16T07:52:38Z</time>
      </trkpt>
      <trkpt lat="47.82808" lon="-2.61648">
        <ele>117</ele>
        <time>2017-01-16T07:54:38Z</time>
      </trkpt>
      <trkpt lat="47.82796" lon="-2.61644">
        <ele>117</ele>
        <time>2017-01-16T07:56:38Z</time>
      </trkpt>
      <trkpt lat="47.8277" lon="-2.61639">
        <ele>115</ele>
        <time>2017-01-16T07:58:38Z</time>
      </trkpt>
      <trkpt lat="47.82756" lon="-2.61633">
        <ele>115</ele>
        <time>2017-01-16T08:00:38Z</time>
      </trkpt>
      <trkpt lat="47.82744" lon="-2.61631">
        <ele>113</ele>
        <time>2017-01-16T08:02:38Z</time>
      </trkpt>
      <trkpt lat="47.82733" lon="-2.61632">
        <ele>112</ele>
        <time>2017-01-16T08:04:38Z</time>
      </trkpt>
      <trkpt lat="47.82725" lon="-2.61641">
        <ele>110</ele>
        <time>2017-01-16T08:06:38Z</time>
      </trkpt>
      <trkpt lat="47.82722" lon="-2.61658">
        <ele>108</ele>
        <time>2017-01-16T08:08:38Z</time>
      </trkpt>
      <trkpt lat="47.82718" lon="-2.61673">
        <ele>106</ele>
        <time>2017-01-16T08:10:38Z</time>
      </trkpt>
      <trkpt lat="47.82718" lon="-2.61688">
        <ele>106</ele>
        <time>2017-01-16T08:12:38Z</time>
      </trkpt>
      <trkpt lat="47.82714" lon="-2.61703">
        <ele>105</ele>
        <time>2017-01-16T08:14:38Z</time>
      </trkpt>
      <trkpt lat="47.82711" lon="-2.61718">
        <ele>105</ele>
        <time>2017-01-16T08:16:38Z</time>
      </trkpt>
      <trkpt lat="47.82708" lon="-2.61733">
        <ele>104</ele>
        <time>2017-01-16T08:18:38Z</time>
      </trkpt>
      <trkpt lat="47.82706" lon="-2.61748">
        <ele>104</ele>
        <time>2017-01-16T08:20:38Z</time>
      </trkpt>
      <trkpt lat="47.82703" lon="-2.61762">
        <ele>103</ele>
        <time>2017-01-16T08:22:38Z</time>
      </trkpt>
      <trkpt lat="47.82698" lon="-2.61775">
        <ele>103</ele>
        <time>2017-01-16T08:24:38Z</time>
      </trkpt>
      <trkpt lat="47.82689" lon="-2.61786">
        <ele>102</ele>
        <time>2017-01-16T08:26:38Z</time>
      </trkpt>
      <trkpt lat="47.82679" lon="-2.61789">
        <ele>101</ele>
        <time>2017-01-16T08:28:38Z</time>
      </trkpt>
      <trkpt lat="47.82669" lon="-2.6179">
        <ele>100</ele>
        <time>2017-01-16T08:30:38Z</time>
      </trkpt>
      <trkpt lat="47.82658" lon="-2.61794">
        <ele>99</ele>
        <time>2017-01-16T08:32:38Z</time>
      </trkpt>
      <trkpt lat="47.82648" lon="-2.61794">
        <ele>98</ele>
        <time>2017-01-16T08:34:38Z</time>
      </trkpt>
      <trkpt lat="47.82628" lon="-2.61799">
        <ele>97</ele>
        <time>2017-01-16T08:36:38Z</time>
      </trkpt>
      <trkpt lat="47.82617" lon="-2.618">
        <ele>96</ele>
        <time>2017-01-16T08:38:38Z</time>
      </trkpt>
      <trkpt lat="47.82597" lon="-2.61804">
        <ele>94</ele>
        <time>2017-01-16T08:40:38Z</time>
      </trkpt>
      <trkpt lat="47.82586" lon="-2.61809">
        <ele>94</ele>
        <time>2017-01-16T08:42:38Z</time>
      </trkpt>
      <trkpt lat="47.82577" lon="-2.61814">
        <ele>93</ele>
        <time>2017-01-16T08:44:38Z</time>
      </trkpt>
      <trkpt lat="47.82569" lon="-2.61821">
        <ele>93</ele>
        <time>2017-01-16T08:46:38Z</time>
      </trkpt>
      <trkpt lat="47.82561" lon="-2.61832">
        <ele>93</ele>
        <time>2017-01-16T08:48:38Z</time>
      </trkpt>
      <trkpt lat="47.82551" lon="-2.61845">
        <ele>92</ele>
        <time>2017-01-16T08:50:38Z</time>
      </trkpt>
      <trkpt lat="47.82547" lon="-2.6186">
        <ele>92</ele>
        <time>2017-01-16T08:52:38Z</time>
      </trkpt>
      <trkpt lat="47.82547" lon="-2.61874">
        <ele>92</ele>
        <time>2017-01-16T08:54:38Z</time>
      </trkpt>
      <trkpt lat="47.82547" lon="-2.61889">
        <ele>92</ele>
        <time>2017-01-16T08:56:38Z</time>
      </trkpt>
      <trkpt lat="47.82548" lon="-2.61904">
        <ele>92</ele>
        <time>2017-01-16T08:58:38Z</time>
      </trkpt>
      <trkpt lat="47.82551" lon="-2.61921">
        <ele>91</ele>
        <time>2017-01-16T09:00:38Z</time>
      </trkpt>
      <trkpt lat="47.82553" lon="-2.61958">
        <ele>89</ele>
        <time>2017-01-16T09:02:38Z</time>
      </trkpt>
      <trkpt lat="47.82556" lon="-2.61976">
        <ele>88</ele>
        <time>2017-01-16T09:04:38Z</time>
      </trkpt>
      <trkpt lat="47.82558" lon="-2.61991">
        <ele>88</ele>
        <time>2017-01-16T09:06:38Z</time>
      </trkpt>
      <trkpt lat="47.8257" lon="-2.62016">
        <ele>89</ele>
        <time>2017-01-16T09:08:38Z</time>
      </trkpt>
      <trkpt lat="47.82576" lon="-2.62032">
        <ele>89</ele>
        <time>2017-01-16T09:10:38Z</time>
      </trkpt>
      <trkpt lat="47.82582" lon="-2.6205">
        <ele>90</ele>
        <time>2017-01-16T09:12:38Z</time>
      </trkpt>
      <trkpt lat="47.82585" lon="-2.62072">
        <ele>90</ele>
        <time>2017-01-16T09:14:38Z</time>
      </trkpt>
      <trkpt lat="47.82582" lon="-2.62092">
        <ele>90</ele>
        <time>2017-01-16T09:16:38Z</time>
      </trkpt>
      <trkpt lat="47.8258" lon="-2.6211">
        <ele>91</ele>
        <time>2017-01-16T09:18:38Z</time>
      </trkpt>
      <trkpt lat="47.82575" lon="-2.62126">
        <ele>90</ele>
        <time>2017-01-16T09:20:38Z</time>
      </trkpt>
      <trkpt lat="47.82572" lon="-2.62149">
        <ele>91</ele>
        <time>2017-01-16T09:22:38Z</time>
      </trkpt>
      <trkpt lat="47.82567" lon="-2.62167">
        <ele>91</ele>
        <time>2017-01-16T09:24:38Z</time>
      </trkpt>
      <trkpt lat="47.82564" lon="-2.62187">
        <ele>90</ele>
        <time>2017-01-16T09:26:38Z</time>
      </trkpt>
      <trkpt lat="47.82559" lon="-2.62212">
        <ele>90</ele>
        <time>2017-01-16T09:28:38Z</time>
      </trkpt>
      <trkpt lat="47.82551" lon="-2.62228">
        <ele>89</ele>
        <time>2017-01-16T09:30:38Z</time>
      </trkpt>
      <trkpt lat="47.82546" lon="-2.62246">
        <ele>89</ele>
        <time>2017-01-16T09:32:38Z</time>
      </trkpt>
      <trkpt lat="47.82542" lon="-2.62264">
        <ele>88</ele>
        <time>2017-01-16T09:34:38Z</time>
      </trkpt>
      <trkpt lat="47.82535" lon="-2.62283">
        <ele>87</ele>
        <time>2017-01-16T09:36:38Z</time>
      </trkpt>
      <trkpt lat="47.82534" lon="-2.62302">
        <ele>87</ele>
        <time>2017-01-16T09:38:38Z</time>
      </trkpt>
      <trkpt lat="47.82539" lon="-2.62338">
        <ele>87</ele>
        <time>2017-01-16T09:40:38Z</time>
      </trkpt>
      <trkpt lat="47.82546" lon="-2.62355">
        <ele>87</ele>
        <time>2017-01-16T09:42:38Z</time>
      </trkpt>
      <trkpt lat="47.82556" lon="-2.62369">
        <ele>87</ele>
        <time>2017-01-16T09:44:38Z</time>
      </trkpt>
      <trkpt lat="47.82564" lon="-2.62382">
        <ele>86</ele>
        <time>2017-01-16T09:46:38Z</time>
      </trkpt>
      <trkpt lat="47.82551" lon="-2.62384">
        <ele>84</ele>
        <time>2017-01-16T09:48:38Z</time>
      </trkpt>
      <trkpt lat="47.82538" lon="-2.6238">
        <ele>83</ele>
        <time>2017-01-16T09:50:38Z</time>
      </trkpt>
      <trkpt lat="47.82519" lon="-2.6238">
        <ele>81</ele>
        <time>2017-01-16T09:52:38Z</time>
      </trkpt>
      <trkpt lat="47.8249" lon="-2.62365">
        <ele>78</ele>
        <time>2017-01-16T09:54:38Z</time>
      </trkpt>
      <trkpt lat="47.82469" lon="-2.62348">
        <ele>76</ele>
        <time>2017-01-16T09:56:38Z</time>
      </trkpt>
      <trkpt lat="47.82446" lon="-2.62332">
        <ele>75</ele>
        <time>2017-01-16T09:58:38Z</time>
      </trkpt>
      <trkpt lat="47.82435" lon="-2.62325">
        <ele>73</ele>
        <time>2017-01-16T10:00:38Z</time>
      </trkpt>
      <trkpt lat="47.82424" lon="-2.62317">
        <ele>72</ele>
        <time>2017-01-16T10:02:38Z</time>
      </trkpt>
      <trkpt lat="47.82412" lon="-2.62315">
        <ele>72</ele>
        <time>2017-01-16T10:04:38Z</time>
      </trkpt>
      <trkpt lat="47.82401" lon="-2.62318">
        <ele>71</ele>
        <time>2017-01-16T10:06:38Z</time>
      </trkpt>
      <trkpt lat="47.824" lon="-2.62339">
        <ele>70</ele>
        <time>2017-01-16T10:08:38Z</time>
      </trkpt>
      <trkpt lat="47.82399" lon="-2.62354">
        <ele>69</ele>
        <time>2017-01-16T10:10:38Z</time>
      </trkpt>
      <trkpt lat="47.82389" lon="-2.62364">
        <ele>68</ele>
        <time>2017-01-16T10:12:38Z</time>
      </trkpt>
      <trkpt lat="47.82378" lon="-2.62367">
        <ele>67</ele>
        <time>2017-01-16T10:14:38Z</time>
      </trkpt>
      <trkpt lat="47.82355" lon="-2.62376">
        <ele>66</ele>
        <time>2017-01-16T10:16:38Z</time>
      </trkpt>
      <trkpt lat="47.82345" lon="-2.62384">
        <ele>65</ele>
        <time>2017-01-16T10:18:38Z</time>
      </trkpt>
      <trkpt lat="47.82336" lon="-2.62392">
        <ele>63</ele>
        <time>2017-01-16T10:20:38Z</time>
      </trkpt>
      <trkpt lat="47.82326" lon="-2.624">
        <ele>64</ele>
        <time>2017-01-16T10:22:38Z</time>
      </trkpt>
      <trkpt lat="47.82317" lon="-2.6241">
        <ele>64</ele>
        <time>2017-01-16T10:24:38Z</time>
      </trkpt>
      <trkpt lat="47.82309" lon="-2.62422">
        <ele>64</ele>
        <time>2017-01-16T10:26:38Z</time>
      </trkpt>
      <trkpt lat="47.82302" lon="-2.62435">
        <ele>64</ele>
        <time>2017-01-16T10:28:38Z</time>
      </trkpt>
      <trkpt lat="47.82292" lon="-2.62447">
        <ele>65</ele>
        <time>2017-01-16T10:30:38Z</time>
      </trkpt>
      <trkpt lat="47.82284" lon="-2.62462">
        <ele>64</ele>
        <time>2017-01-16T10:32:38Z</time>
      </trkpt>
      <trkpt lat="47.82274" lon="-2.62472">
        <ele>64</ele>
        <time>2017-01-16T10:34:38Z</time>
      </trkpt>
      <trkpt lat="47.82263" lon="-2.62484">
        <ele>63</ele>
        <time>2017-01-16T10:36:38Z</time>
      </trkpt>
      <trkpt lat="47.82254" lon="-2.62491">
        <ele>63</ele>
        <time>2017-01-16T10:38:38Z</time>
      </trkpt>
      <trkpt lat="47.82235" lon="-2.62497">
        <ele>65</ele>
        <time>2017-01-16T10:40:38Z</time>
      </trkpt>
      <trkpt lat="47.82225" lon="-2.62501">
        <ele>67</ele>
        <time>2017-01-16T10:42:38Z</time>
      </trkpt>
      <trkpt lat="47.82215" lon="-2.62508">
        <ele>68</ele>
        <time>2017-01-16T10:44:38Z</time>
      </trkpt>
      <trkpt lat="47.82208" lon="-2.62516">
        <ele>68</ele>
        <time>2017-01-16T10:46:38Z</time>
      </trkpt>
      <trkpt lat="47.82199" lon="-2.62525">
        <ele>68</ele>
        <time>2017-01-16T10:48:38Z</time>
      </trkpt>
      <trkpt lat="47.82191" lon="-2.62534">
        <ele>68</ele>
        <time>2017-01-16T10:50:38Z</time>
      </trkpt>
      <trkpt lat="47.82181" lon="-2.62546">
        <ele>67</ele>
        <time>2017-01-16T10:52:38Z</time>
      </trkpt>
      <trkpt lat="47.82172" lon="-2.62555">
        <ele>66</ele>
        <time>2017-01-16T10:54:38Z</time>
      </trkpt>
      <trkpt lat="47.82163" lon="-2.6257">
        <ele>64</ele>
        <time>2017-01-16T10:56:38Z</time>
      </trkpt>
      <trkpt lat="47.82153" lon="-2.6258">
        <ele>63</ele>
        <time>2017-01-16T10:58:38Z</time>
      </trkpt>
      <trkpt lat="47.82146" lon="-2.62591">
        <ele>62</ele>
        <time>2017-01-16T11:00:38Z</time>
      </trkpt>
      <trkpt lat="47.82137" lon="-2.62599">
        <ele>62</ele>
        <time>2017-01-16T11:02:38Z</time>
      </trkpt>
      <trkpt lat="47.82127" lon="-2.62608">
        <ele>62</ele>
        <time>2017-01-16T11:04:38Z</time>
      </trkpt>
      <trkpt lat="47.82118" lon="-2.62616">
        <ele>61</ele>
        <time>2017-01-16T11:06:38Z</time>
      </trkpt>
      <trkpt lat="47.82109" lon="-2.62626">
        <ele>61</ele>
        <time>2017-01-16T11:08:38Z</time>
      </trkpt>
      <trkpt lat="47.82099" lon="-2.62633">
        <ele>61</ele>
        <time>2017-01-16T11:10:38Z</time>
      </trkpt>
      <trkpt lat="47.82089" lon="-2.6264">
        <ele>61</ele>
        <time>2017-01-16T11:12:38Z</time>
      </trkpt>
      <trkpt lat="47.82078" lon="-2.62649">
        <ele>60</ele>
        <time>2017-01-16T11:14:38Z</time>
      </trkpt>
      <trkpt lat="47.82069" lon="-2.62659">
        <ele>60</ele>
        <time>2017-01-16T11:16:38Z</time>
      </trkpt>
      <trkpt lat="47.82062" lon="-2.62672">
        <ele>59</ele>
        <time>2017-01-16T11:18:38Z</time>
      </trkpt>
      <trkpt lat="47.82055" lon="-2.62686">
        <ele>59</ele>
        <time>2017-01-16T11:20:38Z</time>
      </trkpt>
      <trkpt lat="47.82046" lon="-2.62699">
        <ele>59</ele>
        <time>2017-01-16T11:22:38Z</time>
      </trkpt>
      <trkpt lat="47.82043" lon="-2.62715">
        <ele>58</ele>
        <time>2017-01-16T11:24:38Z</time>
      </trkpt>
      <trkpt lat="47.82042" lon="-2.6273">
        <ele>57</ele>
        <time>2017-01-16T11:26:38Z</time>
      </trkpt>
      <trkpt lat="47.82039" lon="-2.62746">
        <ele>56</ele>
        <time>2017-01-16T11:28:38Z</time>
      </trkpt>
      <trkpt lat="47.82034" lon="-2.62762">
        <ele>56</ele>
        <time>2017-01-16T11:30:38Z</time>
      </trkpt>
      <trkpt lat="47.82028" lon="-2.62773">
        <ele>56</ele>
        <time>2017-01-16T11:32:38Z</time>
      </trkpt>
      <trkpt lat="47.82018" lon="-2.62779">
        <ele>56</ele>
        <time>2017-01-16T11:34:38Z</time>
      </trkpt>
      <trkpt lat="47.81996" lon="-2.62789">
        <ele>56</ele>
        <time>2017-01-16T11:36:38Z</time>
      </trkpt>
      <trkpt lat="47.81985" lon="-2.62792">
        <ele>55</ele>
        <time>2017-01-16T11:38:38Z</time>
      </trkpt>
      <trkpt lat="47.81974" lon="-2.62791">
        <ele>55</ele>
        <time>2017-01-16T11:40:38Z</time>
      </trkpt>
      <trkpt lat="47.81962" lon="-2.62788">
        <ele>54</ele>
        <time>2017-01-16T11:42:38Z</time>
      </trkpt>
      <trkpt lat="47.81951" lon="-2.62785">
        <ele>54</ele>
        <time>2017-01-16T11:44:38Z</time>
      </trkpt>
      <trkpt lat="47.81929" lon="-2.62775">
        <ele>54</ele>
        <time>2017-01-16T11:46:38Z</time>
      </trkpt>
      <trkpt lat="47.81918" lon="-2.62771">
        <ele>53</ele>
        <time>2017-01-16T11:48:38Z</time>
      </trkpt>
      <trkpt lat="47.81905" lon="-2.62766">
        <ele>53</ele>
        <time>2017-01-16T11:50:38Z</time>
      </trkpt>
      <trkpt lat="47.81893" lon="-2.62761">
        <ele>54</ele>
        <time>2017-01-16T11:52:38Z</time>
      </trkpt>
      <trkpt lat="47.81882" lon="-2.62754">
        <ele>54</ele>
        <time>2017-01-16T11:54:38Z</time>
      </trkpt>
      <trkpt lat="47.8187" lon="-2.62754">
        <ele>54</ele>
        <time>2017-01-16T11:56:38Z</time>
      </trkpt>
      <trkpt lat="47.81856" lon="-2.62752">
        <ele>55</ele>
        <time>2017-01-16T11:58:38Z</time>
      </trkpt>
      <trkpt lat="47.81843" lon="-2.62746">
        <ele>55</ele>
        <time>2017-01-16T12:00:38Z</time>
      </trkpt>
      <trkpt lat="47.81832" lon="-2.62743">
        <ele>56</ele>
        <time>2017-01-16T12:02:38Z</time>
      </trkpt>
      <trkpt lat="47.81822" lon="-2.62739">
        <ele>57</ele>
        <time>2017-01-16T12:04:38Z</time>
      </trkpt>
      <trkpt lat="47.81812" lon="-2.62736">
        <ele>59</ele>
        <time>2017-01-16T12:06:38Z</time>
      </trkpt>
      <trkpt lat="47.81802" lon="-2.62735">
        <ele>60</ele>
        <time>2017-01-16T12:08:38Z</time>
      </trkpt>
      <trkpt lat="47.81781" lon="-2.62735">
        <ele>62</ele>
        <time>2017-01-16T12:10:38Z</time>
      </trkpt>
      <trkpt lat="47.81758" lon="-2.62735">
        <ele>64</ele>
        <time>2017-01-16T12:12:38Z</time>
      </trkpt>
      <trkpt lat="47.81733" lon="-2.62732">
        <ele>65</ele>
        <time>2017-01-16T12:14:38Z</time>
      </trkpt>
      <trkpt lat="47.81719" lon="-2.62733">
        <ele>64</ele>
        <time>2017-01-16T12:16:38Z</time>
      </trkpt>
      <trkpt lat="47.81708" lon="-2.62729">
        <ele>64</ele>
        <time>2017-01-16T12:18:38Z</time>
      </trkpt>
      <trkpt lat="47.81688" lon="-2.62728">
        <ele>64</ele>
        <time>2017-01-16T12:20:38Z</time>
      </trkpt>
      <trkpt lat="47.81655" lon="-2.62728">
        <ele>63</ele>
        <time>2017-01-16T12:22:38Z</time>
      </trkpt>
      <trkpt lat="47.81645" lon="-2.6273">
        <ele>62</ele>
        <time>2017-01-16T12:24:38Z</time>
      </trkpt>
      <trkpt lat="47.81639" lon="-2.62741">
        <ele>61</ele>
        <time>2017-01-16T12:26:38Z</time>
      </trkpt>
      <trkpt lat="47.81643" lon="-2.62754">
        <ele>60</ele>
        <time>2017-01-16T12:28:38Z</time>
      </trkpt>
      <trkpt lat="47.81651" lon="-2.62766">
        <ele>59</ele>
        <time>2017-01-16T12:30:38Z</time>
      </trkpt>
      <trkpt lat="47.81658" lon="-2.62778">
        <ele>58</ele>
        <time>2017-01-16T12:32:38Z</time>
      </trkpt>
      <trkpt lat="47.81668" lon="-2.62789">
        <ele>58</ele>
        <time>2017-01-16T12:34:38Z</time>
      </trkpt>
      <trkpt lat="47.81676" lon="-2.628">
        <ele>57</ele>
        <time>2017-01-16T12:36:38Z</time>
      </trkpt>
      <trkpt lat="47.81696" lon="-2.62818">
        <ele>55</ele>
        <time>2017-01-16T12:38:38Z</time>
      </trkpt>
      <trkpt lat="47.81705" lon="-2.62825">
        <ele>54</ele>
        <time>2017-01-16T12:40:38Z</time>
      </trkpt>
      <trkpt lat="47.81712" lon="-2.62837">
        <ele>53</ele>
        <time>2017-01-16T12:42:38Z</time>
      </trkpt>
      <trkpt lat="47.81744" lon="-2.62878">
        <ele>48</ele>
        <time>2017-01-16T12:44:38Z</time>
      </trkpt>
      <trkpt lat="47.81753" lon="-2.62891">
        <ele>47</ele>
        <time>2017-01-16T12:46:38Z</time>
      </trkpt>
      <trkpt lat="47.81761" lon="-2.62899">
        <ele>46</ele>
        <time>2017-01-16T12:48:38Z</time>
      </trkpt>
      <trkpt lat="47.81769" lon="-2.6291">
        <ele>45</ele>
        <time>2017-01-16T12:50:38Z</time>
      </trkpt>
      <trkpt lat="47.81773" lon="-2.62925">
        <ele>45</ele>
        <time>2017-01-16T12:52:38Z</time>
      </trkpt>
      <trkpt lat="47.81776" lon="-2.6294">
        <ele>44</ele>
        <time>2017-01-16T12:54:38Z</time>
      </trkpt>
      <trkpt lat="47.81783" lon="-2.62953">
        <ele>45</ele>
        <time>2017-01-16T12:56:38Z</time>
      </trkpt>
      <trkpt lat="47.81788" lon="-2.62965">
        <ele>45</ele>
        <time>2017-01-16T12:58:38Z</time>
      </trkpt>
      <trkpt lat="47.81793" lon="-2.6298">
        <ele>45</ele>
        <time>2017-01-16T13:00:38Z</time>
      </trkpt>
      <trkpt lat="47.818" lon="-2.62992">
        <ele>45</ele>
        <time>2017-01-16T13:02:38Z</time>
      </trkpt>
      <trkpt lat="47.81804" lon="-2.63005">
        <ele>45</ele>
        <time>2017-01-16T13:04:38Z</time>
      </trkpt>
      <trkpt lat="47.81811" lon="-2.63018">
        <ele>45</ele>
        <time>2017-01-16T13:06:38Z</time>
      </trkpt>
      <trkpt lat="47.81816" lon="-2.63034">
        <ele>45</ele>
        <time>2017-01-16T13:08:38Z</time>
      </trkpt>
      <trkpt lat="47.81821" lon="-2.63048">
        <ele>45</ele>
        <time>2017-01-16T13:10:38Z</time>
      </trkpt>
      <trkpt lat="47.81827" lon="-2.63061">
        <ele>45</ele>
        <time>2017-01-16T13:12:38Z</time>
      </trkpt>
      <trkpt lat="47.81833" lon="-2.63074">
        <ele>45</ele>
        <time>2017-01-16T13:14:38Z</time>
      </trkpt>
      <trkpt lat="47.8184" lon="-2.63087">
        <ele>46</ele>
        <time>2017-01-16T13:16:38Z</time>
      </trkpt>
      <trkpt lat="47.81847" lon="-2.63102">
        <ele>46</ele>
        <time>2017-01-16T13:18:38Z</time>
      </trkpt>
      <trkpt lat="47.81862" lon="-2.63126">
        <ele>48</ele>
        <time>2017-01-16T13:20:38Z</time>
      </trkpt>
      <trkpt lat="47.81869" lon="-2.63137">
        <ele>48</ele>
        <time>2017-01-16T13:22:38Z</time>
      </trkpt>
      <trkpt lat="47.81875" lon="-2.6315">
        <ele>49</ele>
        <time>2017-01-16T13:24:38Z</time>
      </trkpt>
      <trkpt lat="47.8188" lon="-2.63165">
        <ele>49</ele>
        <time>2017-01-16T13:26:38Z</time>
      </trkpt>
      <trkpt lat="47.81885" lon="-2.63179">
        <ele>49</ele>
        <time>2017-01-16T13:28:38Z</time>
      </trkpt>
      <trkpt lat="47.8189" lon="-2.6319">
        <ele>50</ele>
        <time>2017-01-16T13:30:38Z</time>
      </trkpt>
      <trkpt lat="47.81907" lon="-2.6323">
        <ele>50</ele>
        <time>2017-01-16T13:32:38Z</time>
      </trkpt>
      <trkpt lat="47.81912" lon="-2.63245">
        <ele>50</ele>
        <time>2017-01-16T13:34:38Z</time>
      </trkpt>
      <trkpt lat="47.8192" lon="-2.63254">
        <ele>50</ele>
        <time>2017-01-16T13:36:38Z</time>
      </trkpt>
      <trkpt lat="47.81926" lon="-2.63266">
        <ele>50</ele>
        <time>2017-01-16T13:38:38Z</time>
      </trkpt>
      <trkpt lat="47.81941" lon="-2.63288">
        <ele>51</ele>
        <time>2017-01-16T13:40:38Z</time>
      </trkpt>
      <trkpt lat="47.81953" lon="-2.633">
        <ele>52</ele>
        <time>2017-01-16T13:42:38Z</time>
      </trkpt>
      <trkpt lat="47.81963" lon="-2.63312">
        <ele>53</ele>
        <time>2017-01-16T13:44:38Z</time>
      </trkpt>
      <trkpt lat="47.81974" lon="-2.63327">
        <ele>53</ele>
        <time>2017-01-16T13:46:38Z</time>
      </trkpt>
      <trkpt lat="47.81992" lon="-2.63349">
        <ele>54</ele>
        <time>2017-01-16T13:48:38Z</time>
      </trkpt>
      <trkpt lat="47.82" lon="-2.63358">
        <ele>55</ele>
        <time>2017-01-16T13:50:38Z</time>
      </trkpt>
      <trkpt lat="47.82005" lon="-2.63373">
        <ele>54</ele>
        <time>2017-01-16T13:52:38Z</time>
      </trkpt>
      <trkpt lat="47.82009" lon="-2.63389">
        <ele>54</ele>
        <time>2017-01-16T13:54:38Z</time>
      </trkpt>
      <trkpt lat="47.82013" lon="-2.63405">
        <ele>53</ele>
        <time>2017-01-16T13:56:38Z</time>
      </trkpt>
      <trkpt lat="47.82014" lon="-2.6342">
        <ele>52</ele>
        <time>2017-01-16T13:58:38Z</time>
      </trkpt>
      <trkpt lat="47.82016" lon="-2.63435">
        <ele>52</ele>
        <time>2017-01-16T14:00:38Z</time>
      </trkpt>
      <trkpt lat="47.82018" lon="-2.63452">
        <ele>52</ele>
        <time>2017-01-16T14:02:38Z</time>
      </trkpt>
      <trkpt lat="47.82019" lon="-2.63482">
        <ele>52</ele>
        <time>2017-01-16T14:04:38Z</time>
      </trkpt>
      <trkpt lat="47.82021" lon="-2.63499">
        <ele>52</ele>
        <time>2017-01-16T14:06:38Z</time>
      </trkpt>
      <trkpt lat="47.82024" lon="-2.63514">
        <ele>51</ele>
        <time>2017-01-16T14:08:38Z</time>
      </trkpt>
      <trkpt lat="47.82026" lon="-2.6353">
        <ele>51</ele>
        <time>2017-01-16T14:10:38Z</time>
      </trkpt>
      <trkpt lat="47.82028" lon="-2.63545">
        <ele>51</ele>
        <time>2017-01-16T14:12:38Z</time>
      </trkpt>
      <trkpt lat="47.8203" lon="-2.63563">
        <ele>50</ele>
        <time>2017-01-16T14:14:38Z</time>
      </trkpt>
      <trkpt lat="47.82032" lon="-2.63587">
        <ele>50</ele>
        <time>2017-01-16T14:16:38Z</time>
      </trkpt>
      <trkpt lat="47.82038" lon="-2.63593">
        <ele>50</ele>
        <time>2017-01-16T14:18:38Z</time>
      </trkpt>
      <trkpt lat="47.82033" lon="-2.63602">
        <ele>49</ele>
        <time>2017-01-16T14:20:38Z</time>
      </trkpt>
      <trkpt lat="47.82035" lon="-2.63618">
        <ele>49</ele>
        <time>2017-01-16T14:22:38Z</time>
      </trkpt>
      <trkpt lat="47.82036" lon="-2.63632">
        <ele>49</ele>
        <time>2017-01-16T14:24:38Z</time>
      </trkpt>
      <trkpt lat="47.82037" lon="-2.63646">
        <ele>48</ele>
        <time>2017-01-16T14:26:38Z</time>
      </trkpt>
      <trkpt lat="47.82039" lon="-2.63661">
        <ele>48</ele>
        <time>2017-01-16T14:28:38Z</time>
      </trkpt>
      <trkpt lat="47.82043" lon="-2.63677">
        <ele>48</ele>
        <time>2017-01-16T14:30:38Z</time>
      </trkpt>
      <trkpt lat="47.82045" lon="-2.63691">
        <ele>49</ele>
        <time>2017-01-16T14:32:38Z</time>
      </trkpt>
      <trkpt lat="47.82049" lon="-2.6371">
        <ele>49</ele>
        <time>2017-01-16T14:34:38Z</time>
      </trkpt>
      <trkpt lat="47.82051" lon="-2.63724">
        <ele>50</ele>
        <time>2017-01-16T14:36:38Z</time>
      </trkpt>
      <trkpt lat="47.82054" lon="-2.63739">
        <ele>51</ele>
        <time>2017-01-16T14:38:38Z</time>
      </trkpt>
      <trkpt lat="47.82055" lon="-2.63757">
        <ele>51</ele>
        <time>2017-01-16T14:40:38Z</time>
      </trkpt>
      <trkpt lat="47.82058" lon="-2.63771">
        <ele>52</ele>
        <time>2017-01-16T14:42:38Z</time>
      </trkpt>
      <trkpt lat="47.82061" lon="-2.63785">
        <ele>53</ele>
        <time>2017-01-16T14:44:38Z</time>
      </trkpt>
      <trkpt lat="47.82063" lon="-2.63801">
        <ele>53</ele>
        <time>2017-01-16T14:46:38Z</time>
      </trkpt>
      <trkpt lat="47.82067" lon="-2.63815">
        <ele>54</ele>
        <time>2017-01-16T14:48:38Z</time>
      </trkpt>
      <trkpt lat="47.8207" lon="-2.63829">
        <ele>55</ele>
        <time>2017-01-16T14:50:38Z</time>
      </trkpt>
      <trkpt lat="47.82074" lon="-2.63843">
        <ele>56</ele>
        <time>2017-01-16T14:52:38Z</time>
      </trkpt>
      <trkpt lat="47.82076" lon="-2.63858">
        <ele>56</ele>
        <time>2017-01-16T14:54:38Z</time>
      </trkpt>
      <trkpt lat="47.82079" lon="-2.63872">
        <ele>56</ele>
        <time>2017-01-16T14:56:38Z</time>
      </trkpt>
      <trkpt lat="47.82083" lon="-2.63884">
        <ele>56</ele>
        <time>2017-01-16T14:58:38Z</time>
      </trkpt>
      <trkpt lat="47.82085" lon="-2.63898">
        <ele>56</ele>
        <time>2017-01-16T15:00:38Z</time>
      </trkpt>
      <trkpt lat="47.82086" lon="-2.63912">
        <ele>55</ele>
        <time>2017-01-16T15:02:38Z</time>
      </trkpt>
      <trkpt lat="47.82087" lon="-2.63941">
        <ele>55</ele>
        <time>2017-01-16T15:04:38Z</time>
      </trkpt>
      <trkpt lat="47.82086" lon="-2.63957">
        <ele>55</ele>
        <time>2017-01-16T15:06:38Z</time>
      </trkpt>
      <trkpt lat="47.82081" lon="-2.63971">
        <ele>55</ele>
        <time>2017-01-16T15:08:38Z</time>
      </trkpt>
      <trkpt lat="47.82074" lon="-2.6398">
        <ele>54</ele>
        <time>2017-01-16T15:10:38Z</time>
      </trkpt>
      <trkpt lat="47.82064" lon="-2.63984">
        <ele>53</ele>
        <time>2017-01-16T15:12:38Z</time>
      </trkpt>
      <trkpt lat="47.82054" lon="-2.63989">
        <ele>52</ele>
        <time>2017-01-16T15:14:38Z</time>
      </trkpt>
      <trkpt lat="47.82043" lon="-2.63991">
        <ele>52</ele>
        <time>2017-01-16T15:16:38Z</time>
      </trkpt>
      <trkpt lat="47.8203" lon="-2.63991">
        <ele>50</ele>
        <time>2017-01-16T15:18:38Z</time>
      </trkpt>
      <trkpt lat="47.82021" lon="-2.63996">
        <ele>50</ele>
        <time>2017-01-16T15:20:38Z</time>
      </trkpt>
      <trkpt lat="47.82012" lon="-2.63997">
        <ele>49</ele>
        <time>2017-01-16T15:22:38Z</time>
      </trkpt>
      <trkpt lat="47.82003" lon="-2.64">
        <ele>48</ele>
        <time>2017-01-16T15:24:38Z</time>
      </trkpt>
      <trkpt lat="47.81984" lon="-2.64005">
        <ele>47</ele>
        <time>2017-01-16T15:26:38Z</time>
      </trkpt>
      <trkpt lat="47.81974" lon="-2.64005">
        <ele>47</ele>
        <time>2017-01-16T15:28:38Z</time>
      </trkpt>
      <trkpt lat="47.81964" lon="-2.64006">
        <ele>46</ele>
        <time>2017-01-16T15:30:38Z</time>
      </trkpt>
      <trkpt lat="47.81955" lon="-2.64006">
        <ele>46</ele>
        <time>2017-01-16T15:32:38Z</time>
      </trkpt>
      <trkpt lat="47.81944" lon="-2.64007">
        <ele>45</ele>
        <time>2017-01-16T15:34:38Z</time>
      </trkpt>
      <trkpt lat="47.81935" lon="-2.6401">
        <ele>45</ele>
        <time>2017-01-16T15:36:38Z</time>
      </trkpt>
      <trkpt lat="47.81925" lon="-2.64012">
        <ele>45</ele>
        <time>2017-01-16T15:38:38Z</time>
      </trkpt>
      <trkpt lat="47.81914" lon="-2.64014">
        <ele>44</ele>
        <time>2017-01-16T15:40:38Z</time>
      </trkpt>
      <trkpt lat="47.81894" lon="-2.64019">
        <ele>44</ele>
        <time>2017-01-16T15:42:38Z</time>
      </trkpt>
      <trkpt lat="47.81885" lon="-2.64023">
        <ele>44</ele>
        <time>2017-01-16T15:44:38Z</time>
      </trkpt>
      <trkpt lat="47.81877" lon="-2.64025">
        <ele>44</ele>
        <time>2017-01-16T15:46:38Z</time>
      </trkpt>
      <trkpt lat="47.81867" lon="-2.64028">
        <ele>44</ele>
        <time>2017-01-16T15:48:38Z</time>
      </trkpt>
      <trkpt lat="47.81856" lon="-2.64031">
        <ele>44</ele>
        <time>2017-01-16T15:50:38Z</time>
      </trkpt>
      <trkpt lat="47.81846" lon="-2.64035">
        <ele>44</ele>
        <time>2017-01-16T15:52:38Z</time>
      </trkpt>
      <trkpt lat="47.81837" lon="-2.64039">
        <ele>44</ele>
        <time>2017-01-16T15:54:38Z</time>
      </trkpt>
      <trkpt lat="47.81827" lon="-2.64044">
        <ele>43</ele>
        <time>2017-01-16T15:56:38Z</time>
      </trkpt>
      <trkpt lat="47.81816" lon="-2.6405">
        <ele>43</ele>
        <time>2017-01-16T15:58:38Z</time>
      </trkpt>
      <trkpt lat="47.81807" lon="-2.64057">
        <ele>43</ele>
        <time>2017-01-16T16:00:38Z</time>
      </trkpt>
      <trkpt lat="47.81798" lon="-2.64063">
        <ele>43</ele>
        <time>2017-01-16T16:02:38Z</time>
      </trkpt>
      <trkpt lat="47.81788" lon="-2.64071">
        <ele>43</ele>
        <time>2017-01-16T16:04:38Z</time>
      </trkpt>
      <trkpt lat="47.81773" lon="-2.64088">
        <ele>43</ele>
        <time>2017-01-16T16:06:38Z</time>
      </trkpt>
      <trkpt lat="47.81765" lon="-2.64098">
        <ele>43</ele>
        <time>2017-01-16T16:08:38Z</time>
      </trkpt>
      <trkpt lat="47.81759" lon="-2.6411">
        <ele>43</ele>
        <time>2017-01-16T16:10:38Z</time>
      </trkpt>
      <trkpt lat="47.81754" lon="-2.64124">
        <ele>44</ele>
        <time>2017-01-16T16:12:38Z</time>
      </trkpt>
      <trkpt lat="47.81756" lon="-2.64145">
        <ele>44</ele>
        <time>2017-01-16T16:14:38Z</time>
      </trkpt>
      <trkpt lat="47.8176" lon="-2.6416">
        <ele>44</ele>
        <time>2017-01-16T16:16:38Z</time>
      </trkpt>
      <trkpt lat="47.81764" lon="-2.64175">
        <ele>45</ele>
        <time>2017-01-16T16:18:38Z</time>
      </trkpt>
      <trkpt lat="47.81765" lon="-2.64191">
        <ele>45</ele>
        <time>2017-01-16T16:20:38Z</time>
      </trkpt>
      <trkpt lat="47.81768" lon="-2.64206">
        <ele>46</ele>
        <time>2017-01-16T16:22:38Z</time>
      </trkpt>
      <trkpt lat="47.8177" lon="-2.64222">
        <ele>46</ele>
        <time>2017-01-16T16:24:38Z</time>
      </trkpt>
      <trkpt lat="47.81772" lon="-2.64238">
        <ele>47</ele>
        <time>2017-01-16T16:26:38Z</time>
      </trkpt>
      <trkpt lat="47.81774" lon="-2.64255">
        <ele>48</ele>
        <time>2017-01-16T16:28:38Z</time>
      </trkpt>
      <trkpt lat="47.81777" lon="-2.64269">
        <ele>48</ele>
        <time>2017-01-16T16:30:38Z</time>
      </trkpt>
      <trkpt lat="47.81782" lon="-2.64284">
        <ele>48</ele>
        <time>2017-01-16T16:32:38Z</time>
      </trkpt>
      <trkpt lat="47.81786" lon="-2.64296">
        <ele>49</ele>
        <time>2017-01-16T16:34:38Z</time>
      </trkpt>
      <trkpt lat="47.81789" lon="-2.64308">
        <ele>49</ele>
        <time>2017-01-16T16:36:38Z</time>
      </trkpt>
      <trkpt lat="47.81792" lon="-2.64324">
        <ele>49</ele>
        <time>2017-01-16T16:38:38Z</time>
      </trkpt>
      <trkpt lat="47.81794" lon="-2.64339">
        <ele>50</ele>
        <time>2017-01-16T16:40:38Z</time>
      </trkpt>
      <trkpt lat="47.81796" lon="-2.64353">
        <ele>50</ele>
        <time>2017-01-16T16:42:38Z</time>
      </trkpt>
      <trkpt lat="47.81797" lon="-2.64368">
        <ele>50</ele>
        <time>2017-01-16T16:44:38Z</time>
      </trkpt>
      <trkpt lat="47.81801" lon="-2.64382">
        <ele>51</ele>
        <time>2017-01-16T16:46:38Z</time>
      </trkpt>
      <trkpt lat="47.81807" lon="-2.64411">
        <ele>52</ele>
        <time>2017-01-16T16:48:38Z</time>
      </trkpt>
      <trkpt lat="47.81809" lon="-2.64425">
        <ele>52</ele>
        <time>2017-01-16T16:50:38Z</time>
      </trkpt>
      <trkpt lat="47.81811" lon="-2.64438">
        <ele>52</ele>
        <time>2017-01-16T16:52:38Z</time>
      </trkpt>
      <trkpt lat="47.81813" lon="-2.64453">
        <ele>52</ele>
        <time>2017-01-16T16:54:38Z</time>
      </trkpt>
      <trkpt lat="47.81815" lon="-2.64466">
        <ele>52</ele>
        <time>2017-01-16T16:56:38Z</time>
      </trkpt>
      <trkpt lat="47.81816" lon="-2.64484">
        <ele>52</ele>
        <time>2017-01-16T16:58:38Z</time>
      </trkpt>
      <trkpt lat="47.81817" lon="-2.645">
        <ele>52</ele>
        <time>2017-01-16T17:00:38Z</time>
      </trkpt>
      <trkpt lat="47.81819" lon="-2.64516">
        <ele>52</ele>
        <time>2017-01-16T17:02:38Z</time>
      </trkpt>
      <trkpt lat="47.81821" lon="-2.64545">
        <ele>51</ele>
        <time>2017-01-16T17:04:38Z</time>
      </trkpt>
      <trkpt lat="47.81822" lon="-2.64561">
        <ele>51</ele>
        <time>2017-01-16T17:06:38Z</time>
      </trkpt>
      <trkpt lat="47.81823" lon="-2.64589">
        <ele>50</ele>
        <time>2017-01-16T17:08:38Z</time>
      </trkpt>
      <trkpt lat="47.81824" lon="-2.64605">
        <ele>50</ele>
        <time>2017-01-16T17:10:38Z</time>
      </trkpt>
      <trkpt lat="47.81825" lon="-2.64622">
        <ele>50</ele>
        <time>2017-01-16T17:12:38Z</time>
      </trkpt>
      <trkpt lat="47.81826" lon="-2.64635">
        <ele>49</ele>
        <time>2017-01-16T17:14:38Z</time>
      </trkpt>
      <trkpt lat="47.8183" lon="-2.64665">
        <ele>49</ele>
        <time>2017-01-16T17:16:38Z</time>
      </trkpt>
      <trkpt lat="47.8183" lon="-2.64681">
        <ele>49</ele>
        <time>2017-01-16T17:18:38Z</time>
      </trkpt>
      <trkpt lat="47.81832" lon="-2.64712">
        <ele>49</ele>
        <time>2017-01-16T17:20:38Z</time>
      </trkpt>
      <trkpt lat="47.81833" lon="-2.64726">
        <ele>49</ele>
        <time>2017-01-16T17:22:38Z</time>
      </trkpt>
      <trkpt lat="47.81833" lon="-2.6474">
        <ele>49</ele>
        <time>2017-01-16T17:24:38Z</time>
      </trkpt>
      <trkpt lat="47.81835" lon="-2.64756">
        <ele>49</ele>
        <time>2017-01-16T17:26:38Z</time>
      </trkpt>
      <trkpt lat="47.81838" lon="-2.64787">
        <ele>48</ele>
        <time>2017-01-16T17:28:38Z</time>
      </trkpt>
      <trkpt lat="47.81842" lon="-2.64816">
        <ele>47</ele>
        <time>2017-01-16T17:30:38Z</time>
      </trkpt>
      <trkpt lat="47.81845" lon="-2.64832">
        <ele>46</ele>
        <time>2017-01-16T17:32:38Z</time>
      </trkpt>
      <trkpt lat="47.81848" lon="-2.64847">
        <ele>46</ele>
        <time>2017-01-16T17:34:38Z</time>
      </trkpt>
      <trkpt lat="47.81851" lon="-2.64861">
        <ele>45</ele>
        <time>2017-01-16T17:36:38Z</time>
      </trkpt>
      <trkpt lat="47.81855" lon="-2.64889">
        <ele>44</ele>
        <time>2017-01-16T17:38:38Z</time>
      </trkpt>
      <trkpt lat="47.81856" lon="-2.64903">
        <ele>43</ele>
        <time>2017-01-16T17:40:38Z</time>
      </trkpt>
      <trkpt lat="47.8186" lon="-2.64917">
        <ele>43</ele>
        <time>2017-01-16T17:42:38Z</time>
      </trkpt>
      <trkpt lat="47.81864" lon="-2.64931">
        <ele>43</ele>
        <time>2017-01-16T17:44:38Z</time>
      </trkpt>
      <trkpt lat="47.81867" lon="-2.64947">
        <ele>44</ele>
        <time>2017-01-16T17:46:38Z</time>
      </trkpt>
      <trkpt lat="47.81872" lon="-2.64961">
        <ele>44</ele>
        <time>2017-01-16T17:48:38Z</time>
      </trkpt>
      <trkpt lat="47.81877" lon="-2.64974">
        <ele>45</ele>
        <time>2017-01-16T17:50:38Z</time>
      </trkpt>
      <trkpt lat="47.81882" lon="-2.64987">
        <ele>46</ele>
        <time>2017-01-16T17:52:38Z</time>
      </trkpt>
      <trkpt lat="47.81887" lon="-2.65003">
        <ele>46</ele>
        <time>2017-01-16T17:54:38Z</time>
      </trkpt>
      <trkpt lat="47.81893" lon="-2.65019">
        <ele>46</ele>
        <time>2017-01-16T17:56:38Z</time>
      </trkpt>
      <trkpt lat="47.819" lon="-2.65034">
        <ele>47</ele>
        <time>2017-01-16T17:58:38Z</time>
      </trkpt>
      <trkpt lat="47.81909" lon="-2.6505">
        <ele>47</ele>
        <time>2017-01-16T18:00:38Z</time>
      </trkpt>
      <trkpt lat="47.81919" lon="-2.65065">
        <ele>47</ele>
        <time>2017-01-16T18:02:38Z</time>
      </trkpt>
      <trkpt lat="47.81937" lon="-2.65088">
        <ele>48</ele>
        <time>2017-01-16T18:04:38Z</time>
      </trkpt>
      <trkpt lat="47.81948" lon="-2.65099">
        <ele>48</ele>
        <time>2017-01-16T18:06:38Z</time>
      </trkpt>
      <trkpt lat="47.81959" lon="-2.65105">
        <ele>49</ele>
        <time>2017-01-16T18:08:38Z</time>
      </trkpt>
      <trkpt lat="47.81967" lon="-2.65112">
        <ele>49</ele>
        <time>2017-01-16T18:10:38Z</time>
      </trkpt>
      <trkpt lat="47.81976" lon="-2.65127">
        <ele>49</ele>
        <time>2017-01-16T18:12:38Z</time>
      </trkpt>
      <trkpt lat="47.81983" lon="-2.65138">
        <ele>49</ele>
        <time>2017-01-16T18:14:38Z</time>
      </trkpt>
      <trkpt lat="47.82" lon="-2.65164">
        <ele>48</ele>
        <time>2017-01-16T18:16:38Z</time>
      </trkpt>
      <trkpt lat="47.82017" lon="-2.65189">
        <ele>49</ele>
        <time>2017-01-16T18:18:38Z</time>
      </trkpt>
      <trkpt lat="47.82023" lon="-2.65201">
        <ele>49</ele>
        <time>2017-01-16T18:20:38Z</time>
      </trkpt>
      <trkpt lat="47.82032" lon="-2.6521">
        <ele>50</ele>
        <time>2017-01-16T18:22:38Z</time>
      </trkpt>
      <trkpt lat="47.82041" lon="-2.65223">
        <ele>50</ele>
        <time>2017-01-16T18:24:38Z</time>
      </trkpt>
      <trkpt lat="47.82051" lon="-2.65233">
        <ele>51</ele>
        <time>2017-01-16T18:26:38Z</time>
      </trkpt>
      <trkpt lat="47.82062" lon="-2.65245">
        <ele>51</ele>
        <time>2017-01-16T18:28:38Z</time>
      </trkpt>
      <trkpt lat="47.8207" lon="-2.65256">
        <ele>51</ele>
        <time>2017-01-16T18:30:38Z</time>
      </trkpt>
      <trkpt lat="47.82079" lon="-2.65267">
        <ele>52</ele>
        <time>2017-01-16T18:32:38Z</time>
      </trkpt>
      <trkpt lat="47.82085" lon="-2.6528">
        <ele>52</ele>
        <time>2017-01-16T18:34:38Z</time>
      </trkpt>
      <trkpt lat="47.82094" lon="-2.65291">
        <ele>52</ele>
        <time>2017-01-16T18:36:38Z</time>
      </trkpt>
      <trkpt lat="47.82103" lon="-2.653">
        <ele>52</ele>
        <time>2017-01-16T18:38:38Z</time>
      </trkpt>
      <trkpt lat="47.82109" lon="-2.65313">
        <ele>52</ele>
        <time>2017-01-16T18:40:38Z</time>
      </trkpt>
      <trkpt lat="47.82116" lon="-2.65326">
        <ele>52</ele>
        <time>2017-01-16T18:42:38Z</time>
      </trkpt>
      <trkpt lat="47.82129" lon="-2.65357">
        <ele>51</ele>
        <time>2017-01-16T18:44:38Z</time>
      </trkpt>
      <trkpt lat="47.82135" lon="-2.65371">
        <ele>51</ele>
        <time>2017-01-16T18:46:38Z</time>
      </trkpt>
      <trkpt lat="47.8214" lon="-2.65383">
        <ele>50</ele>
        <time>2017-01-16T18:48:38Z</time>
      </trkpt>
      <trkpt lat="47.82148" lon="-2.65394">
        <ele>50</ele>
        <time>2017-01-16T18:50:38Z</time>
      </trkpt>
      <trkpt lat="47.82154" lon="-2.65407">
        <ele>49</ele>
        <time>2017-01-16T18:52:38Z</time>
      </trkpt>
      <trkpt lat="47.8216" lon="-2.65418">
        <ele>48</ele>
        <time>2017-01-16T18:54:38Z</time>
      </trkpt>
      <trkpt lat="47.82164" lon="-2.65435">
        <ele>47</ele>
        <time>2017-01-16T18:56:38Z</time>
      </trkpt>
      <trkpt lat="47.82183" lon="-2.6547">
        <ele>47</ele>
        <time>2017-01-16T18:58:38Z</time>
      </trkpt>
      <trkpt lat="47.82193" lon="-2.65464">
        <ele>49</ele>
        <time>2017-01-16T19:00:38Z</time>
      </trkpt>
      <trkpt lat="47.82201" lon="-2.65452">
        <ele>50</ele>
        <time>2017-01-16T19:02:38Z</time>
      </trkpt>
      <trkpt lat="47.82209" lon="-2.65444">
        <ele>51</ele>
        <time>2017-01-16T19:04:38Z</time>
      </trkpt>
      <trkpt lat="47.82214" lon="-2.65432">
        <ele>52</ele>
        <time>2017-01-16T19:06:38Z</time>
      </trkpt>
      <trkpt lat="47.82225" lon="-2.65426">
        <ele>53</ele>
        <time>2017-01-16T19:08:38Z</time>
      </trkpt>
      <trkpt lat="47.82237" lon="-2.65415">
        <ele>55</ele>
        <time>2017-01-16T19:10:38Z</time>
      </trkpt>
      <trkpt lat="47.82249" lon="-2.65408">
        <ele>56</ele>
        <time>2017-01-16T19:12:38Z</time>
      </trkpt>
      <trkpt lat="47.8226" lon="-2.65402">
        <ele>58</ele>
        <time>2017-01-16T19:14:38Z</time>
      </trkpt>
      <trkpt lat="47.82271" lon="-2.65395">
        <ele>59</ele>
        <time>2017-01-16T19:16:38Z</time>
      </trkpt>
      <trkpt lat="47.82281" lon="-2.65389">
        <ele>60</ele>
        <time>2017-01-16T19:18:38Z</time>
      </trkpt>
      <trkpt lat="47.82292" lon="-2.65391">
        <ele>61</ele>
        <time>2017-01-16T19:20:38Z</time>
      </trkpt>
      <trkpt lat="47.82302" lon="-2.65391">
        <ele>61</ele>
        <time>2017-01-16T19:22:38Z</time>
      </trkpt>
      <trkpt lat="47.82314" lon="-2.65389">
        <ele>62</ele>
        <time>2017-01-16T19:24:38Z</time>
      </trkpt>
      <trkpt lat="47.82324" lon="-2.65388">
        <ele>63</ele>
        <time>2017-01-16T19:26:38Z</time>
      </trkpt>
      <trkpt lat="47.82336" lon="-2.6539">
        <ele>64</ele>
        <time>2017-01-16T19:28:38Z</time>
      </trkpt>
      <trkpt lat="47.82345" lon="-2.65396">
        <ele>64</ele>
        <time>2017-01-16T19:30:38Z</time>
      </trkpt>
      <trkpt lat="47.82352" lon="-2.65406">
        <ele>64</ele>
        <time>2017-01-16T19:32:38Z</time>
      </trkpt>
      <trkpt lat="47.82355" lon="-2.6542">
        <ele>64</ele>
        <time>2017-01-16T19:34:38Z</time>
      </trkpt>
      <trkpt lat="47.82354" lon="-2.65435">
        <ele>64</ele>
        <time>2017-01-16T19:36:38Z</time>
      </trkpt>
      <trkpt lat="47.82353" lon="-2.6545">
        <ele>64</ele>
        <time>2017-01-16T19:38:38Z</time>
      </trkpt>
      <trkpt lat="47.82353" lon="-2.65466">
        <ele>65</ele>
        <time>2017-01-16T19:40:38Z</time>
      </trkpt>
      <trkpt lat="47.82355" lon="-2.65502">
        <ele>65</ele>
        <time>2017-01-16T19:42:38Z</time>
      </trkpt>
      <trkpt lat="47.82355" lon="-2.65518">
        <ele>65</ele>
        <time>2017-01-16T19:44:38Z</time>
      </trkpt>
      <trkpt lat="47.82355" lon="-2.65538">
        <ele>65</ele>
        <time>2017-01-16T19:46:38Z</time>
      </trkpt>
      <trkpt lat="47.82356" lon="-2.65555">
        <ele>66</ele>
        <time>2017-01-16T19:48:38Z</time>
      </trkpt>
      <trkpt lat="47.82357" lon="-2.65571">
        <ele>66</ele>
        <time>2017-01-16T19:50:38Z</time>
      </trkpt>
      <trkpt lat="47.82358" lon="-2.65586">
        <ele>66</ele>
        <time>2017-01-16T19:52:38Z</time>
      </trkpt>
      <trkpt lat="47.82359" lon="-2.65601">
        <ele>66</ele>
        <time>2017-01-16T19:54:38Z</time>
      </trkpt>
      <trkpt lat="47.82358" lon="-2.65618">
        <ele>65</ele>
        <time>2017-01-16T19:56:38Z</time>
      </trkpt>
      <trkpt lat="47.82358" lon="-2.65636">
        <ele>65</ele>
        <time>2017-01-16T19:58:38Z</time>
      </trkpt>
      <trkpt lat="47.8236" lon="-2.65653">
        <ele>65</ele>
        <time>2017-01-16T20:00:38Z</time>
      </trkpt>
      <trkpt lat="47.82363" lon="-2.65668">
        <ele>64</ele>
        <time>2017-01-16T20:02:38Z</time>
      </trkpt>
      <trkpt lat="47.82364" lon="-2.65684">
        <ele>64</ele>
        <time>2017-01-16T20:04:38Z</time>
      </trkpt>
      <trkpt lat="47.82367" lon="-2.65701">
        <ele>64</ele>
        <time>2017-01-16T20:06:38Z</time>
      </trkpt>
      <trkpt lat="47.82371" lon="-2.65713">
        <ele>64</ele>
        <time>2017-01-16T20:08:38Z</time>
      </trkpt>
      <trkpt lat="47.82378" lon="-2.65722">
        <ele>64</ele>
        <time>2017-01-16T20:10:38Z</time>
      </trkpt>
      <trkpt lat="47.82389" lon="-2.65728">
        <ele>65</ele>
        <time>2017-01-16T20:12:38Z</time>
      </trkpt>
      <trkpt lat="47.82399" lon="-2.65731">
        <ele>65</ele>
        <time>2017-01-16T20:14:38Z</time>
      </trkpt>
      <trkpt lat="47.82411" lon="-2.65733">
        <ele>66</ele>
        <time>2017-01-16T20:16:38Z</time>
      </trkpt>
      <trkpt lat="47.82421" lon="-2.65736">
        <ele>66</ele>
        <time>2017-01-16T20:18:38Z</time>
      </trkpt>
      <trkpt lat="47.82431" lon="-2.65741">
        <ele>66</ele>
        <time>2017-01-16T20:20:38Z</time>
      </trkpt>
      <trkpt lat="47.82441" lon="-2.65743">
        <ele>66</ele>
        <time>2017-01-16T20:22:38Z</time>
      </trkpt>
      <trkpt lat="47.82451" lon="-2.65747">
        <ele>65</ele>
        <time>2017-01-16T20:24:38Z</time>
      </trkpt>
      <trkpt lat="47.8246" lon="-2.65749">
        <ele>65</ele>
        <time>2017-01-16T20:26:38Z</time>
      </trkpt>
      <trkpt lat="47.82471" lon="-2.65753">
        <ele>64</ele>
        <time>2017-01-16T20:28:38Z</time>
      </trkpt>
      <trkpt lat="47.82482" lon="-2.65755">
        <ele>64</ele>
        <time>2017-01-16T20:30:38Z</time>
      </trkpt>
      <trkpt lat="47.82494" lon="-2.65758">
        <ele>63</ele>
        <time>2017-01-16T20:32:38Z</time>
      </trkpt>
      <trkpt lat="47.82518" lon="-2.65767">
        <ele>62</ele>
        <time>2017-01-16T20:34:38Z</time>
      </trkpt>
      <trkpt lat="47.82541" lon="-2.65778">
        <ele>60</ele>
        <time>2017-01-16T20:36:38Z</time>
      </trkpt>
      <trkpt lat="47.82553" lon="-2.65785">
        <ele>60</ele>
        <time>2017-01-16T20:38:38Z</time>
      </trkpt>
      <trkpt lat="47.82562" lon="-2.6579">
        <ele>59</ele>
        <time>2017-01-16T20:40:38Z</time>
      </trkpt>
      <trkpt lat="47.8257" lon="-2.65798">
        <ele>59</ele>
        <time>2017-01-16T20:42:38Z</time>
      </trkpt>
      <trkpt lat="47.82577" lon="-2.65809">
        <ele>59</ele>
        <time>2017-01-16T20:44:38Z</time>
      </trkpt>
      <trkpt lat="47.82586" lon="-2.65818">
        <ele>59</ele>
        <time>2017-01-16T20:46:38Z</time>
      </trkpt>
      <trkpt lat="47.82595" lon="-2.65825">
        <ele>60</ele>
        <time>2017-01-16T20:48:38Z</time>
      </trkpt>
      <trkpt lat="47.82604" lon="-2.65835">
        <ele>60</ele>
        <time>2017-01-16T20:50:38Z</time>
      </trkpt>
      <trkpt lat="47.82615" lon="-2.65843">
        <ele>61</ele>
        <time>2017-01-16T20:52:38Z</time>
      </trkpt>
      <trkpt lat="47.82624" lon="-2.65854">
        <ele>62</ele>
        <time>2017-01-16T20:54:38Z</time>
      </trkpt>
      <trkpt lat="47.82631" lon="-2.65859">
        <ele>62</ele>
        <time>2017-01-16T20:56:38Z</time>
      </trkpt>
      <trkpt lat="47.82634" lon="-2.65846">
        <ele>62</ele>
        <time>2017-01-16T20:58:38Z</time>
      </trkpt>
      <trkpt lat="47.82635" lon="-2.65822">
        <ele>62</ele>
        <time>2017-01-16T21:00:38Z</time>
      </trkpt>
      <trkpt lat="47.82651" lon="-2.65809">
        <ele>63</ele>
        <time>2017-01-16T21:02:38Z</time>
      </trkpt>
      <trkpt lat="47.82668" lon="-2.65798">
        <ele>63</ele>
        <time>2017-01-16T21:04:38Z</time>
      </trkpt>
      <trkpt lat="47.82683" lon="-2.65795">
        <ele>65</ele>
        <time>2017-01-16T21:06:38Z</time>
      </trkpt>
      <trkpt lat="47.827" lon="-2.65789">
        <ele>66</ele>
        <time>2017-01-16T21:08:38Z</time>
      </trkpt>
      <trkpt lat="47.82714" lon="-2.65777">
        <ele>67</ele>
        <time>2017-01-16T21:10:38Z</time>
      </trkpt>
      <trkpt lat="47.82732" lon="-2.65755">
        <ele>68</ele>
        <time>2017-01-16T21:12:38Z</time>
      </trkpt>
      <trkpt lat="47.82745" lon="-2.65739">
        <ele>69</ele>
        <time>2017-01-16T21:14:38Z</time>
      </trkpt>
      <trkpt lat="47.82774" lon="-2.65746">
        <ele>71</ele>
        <time>2017-01-16T21:16:38Z</time>
      </trkpt>
      <trkpt lat="47.82794" lon="-2.65743">
        <ele>73</ele>
        <time>2017-01-16T21:18:38Z</time>
      </trkpt>
      <trkpt lat="47.82814" lon="-2.65744">
        <ele>74</ele>
        <time>2017-01-16T21:20:38Z</time>
      </trkpt>
      <trkpt lat="47.82829" lon="-2.65751">
        <ele>76</ele>
        <time>2017-01-16T21:22:38Z</time>
      </trkpt>
      <trkpt lat="47.82848" lon="-2.65757">
        <ele>77</ele>
        <time>2017-01-16T21:24:38Z</time>
      </trkpt>
      <trkpt lat="47.82868" lon="-2.65768">
        <ele>78</ele>
        <time>2017-01-16T21:26:38Z</time>
      </trkpt>
      <trkpt lat="47.8288" lon="-2.65778">
        <ele>79</ele>
        <time>2017-01-16T21:28:38Z</time>
      </trkpt>
      <trkpt lat="47.82902" lon="-2.65775">
        <ele>80</ele>
        <time>2017-01-16T21:30:38Z</time>
      </trkpt>
      <trkpt lat="47.82915" lon="-2.6576">
        <ele>80</ele>
        <time>2017-01-16T21:32:38Z</time>
      </trkpt>
      <trkpt lat="47.8293" lon="-2.65749">
        <ele>79</ele>
        <time>2017-01-16T21:34:38Z</time>
      </trkpt>
      <trkpt lat="47.82943" lon="-2.65742">
        <ele>80</ele>
        <time>2017-01-16T21:36:38Z</time>
      </trkpt>
      <trkpt lat="47.82956" lon="-2.65742">
        <ele>80</ele>
        <time>2017-01-16T21:38:38Z</time>
      </trkpt>
      <trkpt lat="47.82975" lon="-2.65748">
        <ele>80</ele>
        <time>2017-01-16T21:40:38Z</time>
      </trkpt>
      <trkpt lat="47.82988" lon="-2.65762">
        <ele>81</ele>
        <time>2017-01-16T21:42:38Z</time>
      </trkpt>
      <trkpt lat="47.82995" lon="-2.65776">
        <ele>82</ele>
        <time>2017-01-16T21:44:38Z</time>
      </trkpt>
      <trkpt lat="47.83" lon="-2.65793">
        <ele>84</ele>
        <time>2017-01-16T21:46:38Z</time>
      </trkpt>
      <trkpt lat="47.83004" lon="-2.65809">
        <ele>86</ele>
        <time>2017-01-16T21:48:38Z</time>
      </trkpt>
      <trkpt lat="47.83009" lon="-2.65828">
        <ele>88</ele>
        <time>2017-01-16T21:50:38Z</time>
      </trkpt>
      <trkpt lat="47.83017" lon="-2.65854">
        <ele>89</ele>
        <time>2017-01-16T21:52:38Z</time>
      </trkpt>
      <trkpt lat="47.83025" lon="-2.65875">
        <ele>90</ele>
        <time>2017-01-16T21:54:38Z</time>
      </trkpt>
      <trkpt lat="47.83033" lon="-2.65892">
        <ele>92</ele>
        <time>2017-01-16T21:56:38Z</time>
      </trkpt>
      <trkpt lat="47.83046" lon="-2.65911">
        <ele>93</ele>
        <time>2017-01-16T21:58:38Z</time>
      </trkpt>
      <trkpt lat="47.83046" lon="-2.65929">
        <ele>93</ele>
        <time>2017-01-16T22:00:38Z</time>
      </trkpt>
      <trkpt lat="47.83045" lon="-2.65946">
        <ele>94</ele>
        <time>2017-01-16T22:02:38Z</time>
      </trkpt>
      <trkpt lat="47.83039" lon="-2.65977">
        <ele>94</ele>
        <time>2017-01-16T22:04:38Z</time>
      </trkpt>
      <trkpt lat="47.83034" lon="-2.66008">
        <ele>95</ele>
        <time>2017-01-16T22:06:38Z</time>
      </trkpt>
      <trkpt lat="47.83033" lon="-2.66026">
        <ele>95</ele>
        <time>2017-01-16T22:08:38Z</time>
      </trkpt>
      <trkpt lat="47.8303" lon="-2.66061">
        <ele>96</ele>
        <time>2017-01-16T22:10:38Z</time>
      </trkpt>
      <trkpt lat="47.83027" lon="-2.66093">
        <ele>96</ele>
        <time>2017-01-16T22:12:38Z</time>
      </trkpt>
      <trkpt lat="47.83026" lon="-2.66109">
        <ele>96</ele>
        <time>2017-01-16T22:14:38Z</time>
      </trkpt>
      <trkpt lat="47.83025" lon="-2.66124">
        <ele>96</ele>
        <time>2017-01-16T22:16:38Z</time>
      </trkpt>
      <trkpt lat="47.83024" lon="-2.6614">
        <ele>95</ele>
        <time>2017-01-16T22:18:38Z</time>
      </trkpt>
      <trkpt lat="47.83021" lon="-2.6617">
        <ele>95</ele>
        <time>2017-01-16T22:20:38Z</time>
      </trkpt>
      <trkpt lat="47.8302" lon="-2.66185">
        <ele>95</ele>
        <time>2017-01-16T22:22:38Z</time>
      </trkpt>
      <trkpt lat="47.83015" lon="-2.66218">
        <ele>95</ele>
        <time>2017-01-16T22:24:38Z</time>
      </trkpt>
      <trkpt lat="47.83014" lon="-2.66247">
        <ele>95</ele>
        <time>2017-01-16T22:26:38Z</time>
      </trkpt>
      <trkpt lat="47.83015" lon="-2.66262">
        <ele>95</ele>
        <time>2017-01-16T22:28:38Z</time>
      </trkpt>
      <trkpt lat="47.83018" lon="-2.66277">
        <ele>95</ele>
        <time>2017-01-16T22:30:38Z</time>
      </trkpt>
      <trkpt lat="47.83022" lon="-2.6629">
        <ele>95</ele>
        <time>2017-01-16T22:32:38Z</time>
      </trkpt>
      <trkpt lat="47.83026" lon="-2.66304">
        <ele>95</ele>
        <time>2017-01-16T22:34:38Z</time>
      </trkpt>
      <trkpt lat="47.83031" lon="-2.66317">
        <ele>95</ele>
        <time>2017-01-16T22:36:38Z</time>
      </trkpt>
      <trkpt lat="47.83041" lon="-2.66344">
        <ele>96</ele>
        <time>2017-01-16T22:38:38Z</time>
      </trkpt>
      <trkpt lat="47.83045" lon="-2.66357">
        <ele>96</ele>
        <time>2017-01-16T22:40:38Z</time>
      </trkpt>
      <trkpt lat="47.83044" lon="-2.66372">
        <ele>96</ele>
        <time>2017-01-16T22:42:38Z</time>
      </trkpt>
      <trkpt lat="47.83036" lon="-2.66381">
        <ele>96</ele>
        <time>2017-01-16T22:44:38Z</time>
      </trkpt>
      <trkpt lat="47.83029" lon="-2.66387">
        <ele>96</ele>
        <time>2017-01-16T22:46:38Z</time>
      </trkpt>
      <trkpt lat="47.83012" lon="-2.66402">
        <ele>95</ele>
        <time>2017-01-16T22:48:38Z</time>
      </trkpt>
      <trkpt lat="47.83005" lon="-2.66409">
        <ele>95</ele>
        <time>2017-01-16T22:50:38Z</time>
      </trkpt>
      <trkpt lat="47.82996" lon="-2.66417">
        <ele>95</ele>
        <time>2017-01-16T22:52:38Z</time>
      </trkpt>
      <trkpt lat="47.82989" lon="-2.66428">
        <ele>94</ele>
        <time>2017-01-16T22:54:38Z</time>
      </trkpt>
      <trkpt lat="47.82981" lon="-2.66438">
        <ele>93</ele>
        <time>2017-01-16T22:56:38Z</time>
      </trkpt>
      <trkpt lat="47.82973" lon="-2.66445">
        <ele>93</ele>
        <time>2017-01-16T22:58:38Z</time>
      </trkpt>
      <trkpt lat="47.82965" lon="-2.66453">
        <ele>92</ele>
        <time>2017-01-16T23:00:38Z</time>
      </trkpt>
      <trkpt lat="47.82959" lon="-2.66462">
        <ele>92</ele>
        <time>2017-01-16T23:02:38Z</time>
      </trkpt>
      <trkpt lat="47.82961" lon="-2.6648">
        <ele>91</ele>
        <time>2017-01-16T23:04:38Z</time>
      </trkpt>
      <trkpt lat="47.82962" lon="-2.66496">
        <ele>91</ele>
        <time>2017-01-16T23:06:38Z</time>
      </trkpt>
      <trkpt lat="47.82962" lon="-2.66511">
        <ele>91</ele>
        <time>2017-01-16T23:08:38Z</time>
      </trkpt>
      <trkpt lat="47.82961" lon="-2.66527">
        <ele>91</ele>
        <time>2017-01-16T23:10:38Z</time>
      </trkpt>
      <trkpt lat="47.82961" lon="-2.66543">
        <ele>91</ele>
        <time>2017-01-16T23:12:38Z</time>
      </trkpt>
      <trkpt lat="47.82963" lon="-2.66558">
        <ele>91</ele>
        <time>2017-01-16T23:14:38Z</time>
      </trkpt>
      <trkpt lat="47.82966" lon="-2.66573">
        <ele>91</ele>
        <time>2017-01-16T23:16:38Z</time>
      </trkpt>
      <trkpt lat="47.82966" lon="-2.66604">
        <ele>90</ele>
        <time>2017-01-16T23:18:38Z</time>
      </trkpt>
      <trkpt lat="47.82967" lon="-2.66636">
        <ele>88</ele>
        <time>2017-01-16T23:20:38Z</time>
      </trkpt>
      <trkpt lat="47.82968" lon="-2.66652">
        <ele>88</ele>
        <time>2017-01-16T23:22:38Z</time>
      </trkpt>
      <trkpt lat="47.8297" lon="-2.66666">
        <ele>87</ele>
        <time>2017-01-16T23:24:38Z</time>
      </trkpt>
      <trkpt lat="47.82971" lon="-2.66682">
        <ele>86</ele>
        <time>2017-01-16T23:26:38Z</time>
      </trkpt>
      <trkpt lat="47.82973" lon="-2.66695">
        <ele>86</ele>
        <time>2017-01-16T23:28:38Z</time>
      </trkpt>
      <trkpt lat="47.82975" lon="-2.66709">
        <ele>85</ele>
        <time>2017-01-16T23:30:38Z</time>
      </trkpt>
      <trkpt lat="47.82977" lon="-2.66722">
        <ele>84</ele>
        <time>2017-01-16T23:32:38Z</time>
      </trkpt>
      <trkpt lat="47.82979" lon="-2.66737">
        <ele>83</ele>
        <time>2017-01-16T23:34:38Z</time>
      </trkpt>
      <trkpt lat="47.82982" lon="-2.66752">
        <ele>83</ele>
        <time>2017-01-16T23:36:38Z</time>
      </trkpt>
      <trkpt lat="47.82985" lon="-2.66766">
        <ele>81</ele>
        <time>2017-01-16T23:38:38Z</time>
      </trkpt>
      <trkpt lat="47.82991" lon="-2.66776">
        <ele>79</ele>
        <time>2017-01-16T23:40:38Z</time>
      </trkpt>
      <trkpt lat="47.83" lon="-2.6678">
        <ele>79</ele>
        <time>2017-01-16T23:42:38Z</time>
      </trkpt>
      <trkpt lat="47.83011" lon="-2.66783">
        <ele>79</ele>
        <time>2017-01-16T23:44:38Z</time>
      </trkpt>
      <trkpt lat="47.83021" lon="-2.66789">
        <ele>79</ele>
        <time>2017-01-16T23:46:38Z</time>
      </trkpt>
      <trkpt lat="47.8303" lon="-2.66792">
        <ele>79</ele>
        <time>2017-01-16T23:48:38Z</time>
      </trkpt>
      <trkpt lat="47.83041" lon="-2.66792">
        <ele>79</ele>
        <time>2017-01-16T23:50:38Z</time>
      </trkpt>
      <trkpt lat="47.83051" lon="-2.66793">
        <ele>80</ele>
        <time>2017-01-16T23:52:38Z</time>
      </trkpt>
      <trkpt lat="47.83061" lon="-2.66795">
        <ele>80</ele>
        <time>2017-01-16T23:54:38Z</time>
      </trkpt>
      <trkpt lat="47.83072" lon="-2.66796">
        <ele>81</ele>
        <time>2017-01-16T23:56:38Z</time>
      </trkpt>
      <trkpt lat="47.83083" lon="-2.66798">
        <ele>81</ele>
        <time>2017-01-16T23:58:38Z</time>
      </trkpt>
      <trkpt lat="47.83103" lon="-2.66804">
        <ele>80</ele>
        <time>2017-01-17T00:00:38Z</time>
      </trkpt>
      <trkpt lat="47.83113" lon="-2.66809">
        <ele>80</ele>
        <time>2017-01-17T00:02:38Z</time>
      </trkpt>
      <trkpt lat="47.83119" lon="-2.6682">
        <ele>79</ele>
        <time>2017-01-17T00:04:38Z</time>
      </trkpt>
      <trkpt lat="47.83124" lon="-2.66833">
        <ele>78</ele>
        <time>2017-01-17T00:06:38Z</time>
      </trkpt>
      <trkpt lat="47.8313" lon="-2.66845">
        <ele>79</ele>
        <time>2017-01-17T00:08:38Z</time>
      </trkpt>
      <trkpt lat="47.83137" lon="-2.66854">
        <ele>80</ele>
        <time>2017-01-17T00:10:38Z</time>
      </trkpt>
      <trkpt lat="47.83144" lon="-2.66863">
        <ele>81</ele>
        <time>2017-01-17T00:12:38Z</time>
      </trkpt>
      <trkpt lat="47.83149" lon="-2.66876">
        <ele>82</ele>
        <time>2017-01-17T00:14:38Z</time>
      </trkpt>
      <trkpt lat="47.83156" lon="-2.66891">
        <ele>83</ele>
        <time>2017-01-17T00:16:38Z</time>
      </trkpt>
      <trkpt lat="47.83164" lon="-2.66904">
        <ele>85</ele>
        <time>2017-01-17T00:18:38Z</time>
      </trkpt>
      <trkpt lat="47.83172" lon="-2.66917">
        <ele>86</ele>
        <time>2017-01-17T00:20:38Z</time>
      </trkpt>
      <trkpt lat="47.83175" lon="-2.66934">
        <ele>87</ele>
        <time>2017-01-17T00:22:38Z</time>
      </trkpt>
      <trkpt lat="47.83181" lon="-2.66951">
        <ele>88</ele>
        <time>2017-01-17T00:24:38Z</time>
      </trkpt>
      <trkpt lat="47.83184" lon="-2.66974">
        <ele>89</ele>
        <time>2017-01-17T00:26:38Z</time>
      </trkpt>
      <trkpt lat="47.83188" lon="-2.66991">
        <ele>90</ele>
        <time>2017-01-17T00:28:38Z</time>
      </trkpt>
      <trkpt lat="47.8319" lon="-2.67011">
        <ele>90</ele>
        <time>2017-01-17T00:30:38Z</time>
      </trkpt>
      <trkpt lat="47.83193" lon="-2.67027">
        <ele>90</ele>
        <time>2017-01-17T00:32:38Z</time>
      </trkpt>
      <trkpt lat="47.83193" lon="-2.67042">
        <ele>90</ele>
        <time>2017-01-17T00:34:38Z</time>
      </trkpt>
      <trkpt lat="47.83195" lon="-2.67055">
        <ele>90</ele>
        <time>2017-01-17T00:36:38Z</time>
      </trkpt>
      <trkpt lat="47.83202" lon="-2.67089">
        <ele>90</ele>
        <time>2017-01-17T00:38:38Z</time>
      </trkpt>
      <trkpt lat="47.83205" lon="-2.67106">
        <ele>90</ele>
        <time>2017-01-17T00:40:38Z</time>
      </trkpt>
      <trkpt lat="47.83208" lon="-2.67119">
        <ele>90</ele>
        <time>2017-01-17T00:42:38Z</time>
      </trkpt>
      <trkpt lat="47.83212" lon="-2.67136">
        <ele>90</ele>
        <time>2017-01-17T00:44:38Z</time>
      </trkpt>
      <trkpt lat="47.83214" lon="-2.67154">
        <ele>90</ele>
        <time>2017-01-17T00:46:38Z</time>
      </trkpt>
      <trkpt lat="47.83215" lon="-2.6717">
        <ele>90</ele>
        <time>2017-01-17T00:48:38Z</time>
      </trkpt>
      <trkpt lat="47.83217" lon="-2.67186">
        <ele>91</ele>
        <time>2017-01-17T00:50:38Z</time>
      </trkpt>
      <trkpt lat="47.83219" lon="-2.67201">
        <ele>92</ele>
        <time>2017-01-17T00:52:38Z</time>
      </trkpt>
      <trkpt lat="47.83222" lon="-2.67217">
        <ele>92</ele>
        <time>2017-01-17T00:54:38Z</time>
      </trkpt>
      <trkpt lat="47.83225" lon="-2.67235">
        <ele>93</ele>
        <time>2017-01-17T00:56:38Z</time>
      </trkpt>
      <trkpt lat="47.83228" lon="-2.6725">
        <ele>94</ele>
        <time>2017-01-17T00:58:38Z</time>
      </trkpt>
      <trkpt lat="47.83231" lon="-2.67267">
        <ele>95</ele>
        <time>2017-01-17T01:00:38Z</time>
      </trkpt>
      <trkpt lat="47.83234" lon="-2.67303">
        <ele>97</ele>
        <time>2017-01-17T01:02:38Z</time>
      </trkpt>
      <trkpt lat="47.83238" lon="-2.67336">
        <ele>99</ele>
        <time>2017-01-17T01:04:38Z</time>
      </trkpt>
      <trkpt lat="47.8324" lon="-2.6737">
        <ele>100</ele>
        <time>2017-01-17T01:06:38Z</time>
      </trkpt>
      <trkpt lat="47.83242" lon="-2.67386">
        <ele>101</ele>
        <time>2017-01-17T01:08:38Z</time>
      </trkpt>
      <trkpt lat="47.83247" lon="-2.6742">
        <ele>102</ele>
        <time>2017-01-17T01:10:38Z</time>
      </trkpt>
      <trkpt lat="47.83248" lon="-2.67437">
        <ele>103</ele>
        <time>2017-01-17T01:12:38Z</time>
      </trkpt>
      <trkpt lat="47.83251" lon="-2.67452">
        <ele>103</ele>
        <time>2017-01-17T01:14:38Z</time>
      </trkpt>
      <trkpt lat="47.83255" lon="-2.67469">
        <ele>104</ele>
        <time>2017-01-17T01:16:38Z</time>
      </trkpt>
      <trkpt lat="47.8326" lon="-2.67499">
        <ele>106</ele>
        <time>2017-01-17T01:18:38Z</time>
      </trkpt>
      <trkpt lat="47.83263" lon="-2.67513">
        <ele>107</ele>
        <time>2017-01-17T01:20:38Z</time>
      </trkpt>
      <trkpt lat="47.83266" lon="-2.67526">
        <ele>107</ele>
        <time>2017-01-17T01:22:38Z</time>
      </trkpt>
      <trkpt lat="47.8327" lon="-2.67539">
        <ele>108</ele>
        <time>2017-01-17T01:24:38Z</time>
      </trkpt>
      <trkpt lat="47.83273" lon="-2.67553">
        <ele>109</ele>
        <time>2017-01-17T01:26:38Z</time>
      </trkpt>
      <trkpt lat="47.83276" lon="-2.67569">
        <ele>110</ele>
        <time>2017-01-17T01:28:38Z</time>
      </trkpt>
      <trkpt lat="47.83284" lon="-2.67597">
        <ele>111</ele>
        <time>2017-01-17T01:30:38Z</time>
      </trkpt>
      <trkpt lat="47.83288" lon="-2.67613">
        <ele>112</ele>
        <time>2017-01-17T01:32:38Z</time>
      </trkpt>
      <trkpt lat="47.83293" lon="-2.67643">
        <ele>112</ele>
        <time>2017-01-17T01:34:38Z</time>
      </trkpt>
      <trkpt lat="47.83307" lon="-2.67671">
        <ele>113</ele>
        <time>2017-01-17T01:36:38Z</time>
      </trkpt>
      <trkpt lat="47.83313" lon="-2.67684">
        <ele>113</ele>
        <time>2017-01-17T01:38:38Z</time>
      </trkpt>
      <trkpt lat="47.83317" lon="-2.67702">
        <ele>113</ele>
        <time>2017-01-17T01:40:38Z</time>
      </trkpt>
      <trkpt lat="47.8332" lon="-2.67722">
        <ele>112</ele>
        <time>2017-01-17T01:42:38Z</time>
      </trkpt>
      <trkpt lat="47.83327" lon="-2.67754">
        <ele>112</ele>
        <time>2017-01-17T01:44:38Z</time>
      </trkpt>
      <trkpt lat="47.83326" lon="-2.67768">
        <ele>113</ele>
        <time>2017-01-17T01:46:38Z</time>
      </trkpt>
      <trkpt lat="47.83327" lon="-2.67783">
        <ele>113</ele>
        <time>2017-01-17T01:48:38Z</time>
      </trkpt>
      <trkpt lat="47.83325" lon="-2.67803">
        <ele>114</ele>
        <time>2017-01-17T01:50:38Z</time>
      </trkpt>
      <trkpt lat="47.8332" lon="-2.67822">
        <ele>114</ele>
        <time>2017-01-17T01:52:38Z</time>
      </trkpt>
      <trkpt lat="47.83311" lon="-2.67837">
        <ele>113</ele>
        <time>2017-01-17T01:54:38Z</time>
      </trkpt>
      <trkpt lat="47.83301" lon="-2.6785">
        <ele>112</ele>
        <time>2017-01-17T01:56:38Z</time>
      </trkpt>
      <trkpt lat="47.83294" lon="-2.67868">
        <ele>112</ele>
        <time>2017-01-17T01:58:38Z</time>
      </trkpt>
      <trkpt lat="47.83291" lon="-2.67887">
        <ele>112</ele>
        <time>2017-01-17T02:00:38Z</time>
      </trkpt>
      <trkpt lat="47.83289" lon="-2.67906">
        <ele>112</ele>
        <time>2017-01-17T02:02:38Z</time>
      </trkpt>
      <trkpt lat="47.83282" lon="-2.67939">
        <ele>112</ele>
        <time>2017-01-17T02:04:38Z</time>
      </trkpt>
      <trkpt lat="47.83282" lon="-2.67955">
        <ele>112</ele>
        <time>2017-01-17T02:06:38Z</time>
      </trkpt>
      <trkpt lat="47.83282" lon="-2.67972">
        <ele>112</ele>
        <time>2017-01-17T02:08:38Z</time>
      </trkpt>
      <trkpt lat="47.83285" lon="-2.68005">
        <ele>112</ele>
        <time>2017-01-17T02:10:38Z</time>
      </trkpt>
      <trkpt lat="47.83286" lon="-2.68023">
        <ele>113</ele>
        <time>2017-01-17T02:12:38Z</time>
      </trkpt>
      <trkpt lat="47.83287" lon="-2.6804">
        <ele>113</ele>
        <time>2017-01-17T02:14:38Z</time>
      </trkpt>
      <trkpt lat="47.83288" lon="-2.68059">
        <ele>114</ele>
        <time>2017-01-17T02:16:38Z</time>
      </trkpt>
      <trkpt lat="47.83291" lon="-2.68077">
        <ele>114</ele>
        <time>2017-01-17T02:18:38Z</time>
      </trkpt>
      <trkpt lat="47.83297" lon="-2.68129">
        <ele>115</ele>
        <time>2017-01-17T02:20:38Z</time>
      </trkpt>
      <trkpt lat="47.83313" lon="-2.68172">
        <ele>117</ele>
        <time>2017-01-17T02:22:38Z</time>
      </trkpt>
      <trkpt lat="47.83324" lon="-2.68198">
        <ele>118</ele>
        <time>2017-01-17T02:24:38Z</time>
      </trkpt>
      <trkpt lat="47.83334" lon="-2.68224">
        <ele>120</ele>
        <time>2017-01-17T02:26:38Z</time>
      </trkpt>
      <trkpt lat="47.83339" lon="-2.68238">
        <ele>120</ele>
        <time>2017-01-17T02:28:38Z</time>
      </trkpt>
      <trkpt lat="47.83342" lon="-2.68252">
        <ele>121</ele>
        <time>2017-01-17T02:30:38Z</time>
      </trkpt>
      <trkpt lat="47.83344" lon="-2.68266">
        <ele>121</ele>
        <time>2017-01-17T02:32:38Z</time>
      </trkpt>
      <trkpt lat="47.83344" lon="-2.68298">
        <ele>121</ele>
        <time>2017-01-17T02:34:38Z</time>
      </trkpt>
      <trkpt lat="47.83343" lon="-2.68331">
        <ele>120</ele>
        <time>2017-01-17T02:36:38Z</time>
      </trkpt>
      <trkpt lat="47.83343" lon="-2.68349">
        <ele>120</ele>
        <time>2017-01-17T02:38:38Z</time>
      </trkpt>
      <trkpt lat="47.83344" lon="-2.68365">
        <ele>120</ele>
        <time>2017-01-17T02:40:38Z</time>
      </trkpt>
      <trkpt lat="47.83348" lon="-2.68379">
        <ele>121</ele>
        <time>2017-01-17T02:42:38Z</time>
      </trkpt>
      <trkpt lat="47.83353" lon="-2.68392">
        <ele>122</ele>
        <time>2017-01-17T02:44:38Z</time>
      </trkpt>
      <trkpt lat="47.83359" lon="-2.68407">
        <ele>123</ele>
        <time>2017-01-17T02:46:38Z</time>
      </trkpt>
      <trkpt lat="47.83364" lon="-2.68419">
        <ele>123</ele>
        <time>2017-01-17T02:48:38Z</time>
      </trkpt>
      <trkpt lat="47.83369" lon="-2.68431">
        <ele>124</ele>
        <time>2017-01-17T02:50:38Z</time>
      </trkpt>
      <trkpt lat="47.83373" lon="-2.68449">
        <ele>125</ele>
        <time>2017-01-17T02:52:38Z</time>
      </trkpt>
      <trkpt lat="47.83376" lon="-2.68468">
        <ele>125</ele>
        <time>2017-01-17T02:54:38Z</time>
      </trkpt>
      <trkpt lat="47.8338" lon="-2.68486">
        <ele>125</ele>
        <time>2017-01-17T02:56:38Z</time>
      </trkpt>
      <trkpt lat="47.83384" lon="-2.68504">
        <ele>126</ele>
        <time>2017-01-17T02:58:38Z</time>
      </trkpt>
      <trkpt lat="47.83387" lon="-2.68521">
        <ele>125</ele>
        <time>2017-01-17T03:00:38Z</time>
      </trkpt>
      <trkpt lat="47.83385" lon="-2.6854">
        <ele>124</ele>
        <time>2017-01-17T03:02:38Z</time>
      </trkpt>
      <trkpt lat="47.83385" lon="-2.68576">
        <ele>123</ele>
        <time>2017-01-17T03:04:38Z</time>
      </trkpt>
      <trkpt lat="47.83386" lon="-2.68591">
        <ele>122</ele>
        <time>2017-01-17T03:06:38Z</time>
      </trkpt>
      <trkpt lat="47.83387" lon="-2.68605">
        <ele>121</ele>
        <time>2017-01-17T03:08:38Z</time>
      </trkpt>
      <trkpt lat="47.83389" lon="-2.68625">
        <ele>121</ele>
        <time>2017-01-17T03:10:38Z</time>
      </trkpt>
      <trkpt lat="47.83397" lon="-2.68651">
        <ele>121</ele>
        <time>2017-01-17T03:12:38Z</time>
      </trkpt>
      <trkpt lat="47.83404" lon="-2.68665">
        <ele>121</ele>
        <time>2017-01-17T03:14:38Z</time>
      </trkpt>
      <trkpt lat="47.83414" lon="-2.68672">
        <ele>121</ele>
        <time>2017-01-17T03:16:38Z</time>
      </trkpt>
      <trkpt lat="47.83424" lon="-2.68675">
        <ele>122</ele>
        <time>2017-01-17T03:18:38Z</time>
      </trkpt>
      <trkpt lat="47.83432" lon="-2.6868">
        <ele>123</ele>
        <time>2017-01-17T03:20:38Z</time>
      </trkpt>
      <trkpt lat="47.83441" lon="-2.68692">
        <ele>123</ele>
        <time>2017-01-17T03:22:38Z</time>
      </trkpt>
      <trkpt lat="47.83437" lon="-2.68709">
        <ele>122</ele>
        <time>2017-01-17T03:24:38Z</time>
      </trkpt>
      <trkpt lat="47.83438" lon="-2.68727">
        <ele>121</ele>
        <time>2017-01-17T03:26:38Z</time>
      </trkpt>
      <trkpt lat="47.83438" lon="-2.68749">
        <ele>120</ele>
        <time>2017-01-17T03:28:38Z</time>
      </trkpt>
      <trkpt lat="47.83442" lon="-2.6877">
        <ele>118</ele>
        <time>2017-01-17T03:30:38Z</time>
      </trkpt>
      <trkpt lat="47.83444" lon="-2.68789">
        <ele>117</ele>
        <time>2017-01-17T03:32:38Z</time>
      </trkpt>
      <trkpt lat="47.83443" lon="-2.68818">
        <ele>115</ele>
        <time>2017-01-17T03:34:38Z</time>
      </trkpt>
      <trkpt lat="47.83437" lon="-2.68832">
        <ele>114</ele>
        <time>2017-01-17T03:36:38Z</time>
      </trkpt>
      <trkpt lat="47.83422" lon="-2.68851">
        <ele>113</ele>
        <time>2017-01-17T03:38:38Z</time>
      </trkpt>
      <trkpt lat="47.8341" lon="-2.68858">
        <ele>111</ele>
        <time>2017-01-17T03:40:38Z</time>
      </trkpt>
      <trkpt lat="47.83408" lon="-2.68878">
        <ele>111</ele>
        <time>2017-01-17T03:42:38Z</time>
      </trkpt>
      <trkpt lat="47.83409" lon="-2.68877">
        <ele>112</ele>
        <time>2017-01-17T03:44:38Z</time>
      </trkpt>
      <trkpt lat="47.83405" lon="-2.68877">
        <ele>111</ele>
        <time>2017-01-17T03:46:38Z</time>
      </trkpt>
      <trkpt lat="47.83417" lon="-2.68881">
        <ele>113</ele>
        <time>2017-01-17T03:48:38Z</time>
      </trkpt>
      <trkpt lat="47.83432" lon="-2.6889">
        <ele>114</ele>
        <time>2017-01-17T03:50:38Z</time>
      </trkpt>
      <trkpt lat="47.8345" lon="-2.68897">
        <ele>115</ele>
        <time>2017-01-17T03:52:38Z</time>
      </trkpt>
      <trkpt lat="47.8346" lon="-2.68905">
        <ele>116</ele>
        <time>2017-01-17T03:54:38Z</time>
      </trkpt>
      <trkpt lat="47.83467" lon="-2.68918">
        <ele>117</ele>
        <time>2017-01-17T03:56:38Z</time>
      </trkpt>
      <trkpt lat="47.83469" lon="-2.6893">
        <ele>117</ele>
        <time>2017-01-17T03:58:38Z</time>
      </trkpt>
      <trkpt lat="47.83476" lon="-2.68943">
        <ele>119</ele>
        <time>2017-01-17T04:00:38Z</time>
      </trkpt>
      <trkpt lat="47.83483" lon="-2.68964">
        <ele>120</ele>
        <time>2017-01-17T04:02:38Z</time>
      </trkpt>
      <trkpt lat="47.83491" lon="-2.68981">
        <ele>122</ele>
        <time>2017-01-17T04:04:38Z</time>
      </trkpt>
      <trkpt lat="47.83498" lon="-2.68994">
        <ele>123</ele>
        <time>2017-01-17T04:06:38Z</time>
      </trkpt>
      <trkpt lat="47.83505" lon="-2.6901">
        <ele>124</ele>
        <time>2017-01-17T04:08:38Z</time>
      </trkpt>
      <trkpt lat="47.83511" lon="-2.69024">
        <ele>125</ele>
        <time>2017-01-17T04:10:38Z</time>
      </trkpt>
      <trkpt lat="47.83517" lon="-2.6904">
        <ele>125</ele>
        <time>2017-01-17T04:12:38Z</time>
      </trkpt>
      <trkpt lat="47.83521" lon="-2.69056">
        <ele>126</ele>
        <time>2017-01-17T04:14:38Z</time>
      </trkpt>
      <trkpt lat="47.83528" lon="-2.6909">
        <ele>127</ele>
        <time>2017-01-17T04:16:38Z</time>
      </trkpt>
      <trkpt lat="47.83534" lon="-2.69111">
        <ele>127</ele>
        <time>2017-01-17T04:18:38Z</time>
      </trkpt>
      <trkpt lat="47.83541" lon="-2.69127">
        <ele>127</ele>
        <time>2017-01-17T04:20:38Z</time>
      </trkpt>
      <trkpt lat="47.83546" lon="-2.69146">
        <ele>127</ele>
        <time>2017-01-17T04:22:38Z</time>
      </trkpt>
      <trkpt lat="47.83551" lon="-2.69169">
        <ele>127</ele>
        <time>2017-01-17T04:24:38Z</time>
      </trkpt>
      <trkpt lat="47.83553" lon="-2.69188">
        <ele>127</ele>
        <time>2017-01-17T04:26:38Z</time>
      </trkpt>
      <trkpt lat="47.83553" lon="-2.69211">
        <ele>127</ele>
        <time>2017-01-17T04:28:38Z</time>
      </trkpt>
      <trkpt lat="47.83552" lon="-2.69245">
        <ele>128</ele>
        <time>2017-01-17T04:30:38Z</time>
      </trkpt>
      <trkpt lat="47.83552" lon="-2.69261">
        <ele>128</ele>
        <time>2017-01-17T04:32:38Z</time>
      </trkpt>
      <trkpt lat="47.83551" lon="-2.69305">
        <ele>129</ele>
        <time>2017-01-17T04:34:38Z</time>
      </trkpt>
      <trkpt lat="47.8355" lon="-2.69326">
        <ele>129</ele>
        <time>2017-01-17T04:36:38Z</time>
      </trkpt>
      <trkpt lat="47.83548" lon="-2.69345">
        <ele>129</ele>
        <time>2017-01-17T04:38:38Z</time>
      </trkpt>
      <trkpt lat="47.83548" lon="-2.69363">
        <ele>129</ele>
        <time>2017-01-17T04:40:38Z</time>
      </trkpt>
      <trkpt lat="47.83548" lon="-2.69379">
        <ele>129</ele>
        <time>2017-01-17T04:42:38Z</time>
      </trkpt>
      <trkpt lat="47.83544" lon="-2.69398">
        <ele>130</ele>
        <time>2017-01-17T04:44:38Z</time>
      </trkpt>
      <trkpt lat="47.83544" lon="-2.69415">
        <ele>130</ele>
        <time>2017-01-17T04:46:38Z</time>
      </trkpt>
      <trkpt lat="47.83554" lon="-2.69446">
        <ele>129</ele>
        <time>2017-01-17T04:48:38Z</time>
      </trkpt>
      <trkpt lat="47.8356" lon="-2.69465">
        <ele>129</ele>
        <time>2017-01-17T04:50:38Z</time>
      </trkpt>
      <trkpt lat="47.83558" lon="-2.69483">
        <ele>128</ele>
        <time>2017-01-17T04:52:38Z</time>
      </trkpt>
      <trkpt lat="47.8356" lon="-2.69499">
        <ele>128</ele>
        <time>2017-01-17T04:54:38Z</time>
      </trkpt>
      <trkpt lat="47.83563" lon="-2.69515">
        <ele>128</ele>
        <time>2017-01-17T04:56:38Z</time>
      </trkpt>
      <trkpt lat="47.83567" lon="-2.69532">
        <ele>129</ele>
        <time>2017-01-17T04:58:38Z</time>
      </trkpt>
      <trkpt lat="47.83571" lon="-2.69551">
        <ele>129</ele>
        <time>2017-01-17T05:00:38Z</time>
      </trkpt>
      <trkpt lat="47.8358" lon="-2.69566">
        <ele>130</ele>
        <time>2017-01-17T05:02:38Z</time>
      </trkpt>
      <trkpt lat="47.83588" lon="-2.69575">
        <ele>130</ele>
        <time>2017-01-17T05:04:38Z</time>
      </trkpt>
      <trkpt lat="47.83596" lon="-2.69589">
        <ele>130</ele>
        <time>2017-01-17T05:06:38Z</time>
      </trkpt>
      <trkpt lat="47.83602" lon="-2.69607">
        <ele>130</ele>
        <time>2017-01-17T05:08:38Z</time>
      </trkpt>
      <trkpt lat="47.83605" lon="-2.69626">
        <ele>130</ele>
        <time>2017-01-17T05:10:38Z</time>
      </trkpt>
      <trkpt lat="47.83607" lon="-2.69644">
        <ele>130</ele>
        <time>2017-01-17T05:12:38Z</time>
      </trkpt>
      <trkpt lat="47.83608" lon="-2.69678">
        <ele>130</ele>
        <time>2017-01-17T05:14:38Z</time>
      </trkpt>
      <trkpt lat="47.83611" lon="-2.69694">
        <ele>130</ele>
        <time>2017-01-17T05:16:38Z</time>
      </trkpt>
      <trkpt lat="47.83615" lon="-2.69712">
        <ele>131</ele>
        <time>2017-01-17T05:18:38Z</time>
      </trkpt>
      <trkpt lat="47.83626" lon="-2.69741">
        <ele>131</ele>
        <time>2017-01-17T05:20:38Z</time>
      </trkpt>
      <trkpt lat="47.83635" lon="-2.69758">
        <ele>132</ele>
        <time>2017-01-17T05:22:38Z</time>
      </trkpt>
      <trkpt lat="47.83647" lon="-2.69777">
        <ele>133</ele>
        <time>2017-01-17T05:24:38Z</time>
      </trkpt>
      <trkpt lat="47.83662" lon="-2.69797">
        <ele>135</ele>
        <time>2017-01-17T05:26:38Z</time>
      </trkpt>
      <trkpt lat="47.83673" lon="-2.69819">
        <ele>136</ele>
        <time>2017-01-17T05:28:38Z</time>
      </trkpt>
      <trkpt lat="47.83671" lon="-2.69841">
        <ele>138</ele>
        <time>2017-01-17T05:30:38Z</time>
      </trkpt>
      <trkpt lat="47.83669" lon="-2.69864">
        <ele>139</ele>
        <time>2017-01-17T05:32:38Z</time>
      </trkpt>
      <trkpt lat="47.83674" lon="-2.69886">
        <ele>140</ele>
        <time>2017-01-17T05:34:38Z</time>
      </trkpt>
      <trkpt lat="47.83677" lon="-2.69926">
        <ele>142</ele>
        <time>2017-01-17T05:36:38Z</time>
      </trkpt>
      <trkpt lat="47.83676" lon="-2.69941">
        <ele>142</ele>
        <time>2017-01-17T05:38:38Z</time>
      </trkpt>
      <trkpt lat="47.83673" lon="-2.69954">
        <ele>143</ele>
        <time>2017-01-17T05:40:38Z</time>
      </trkpt>
      <trkpt lat="47.83682" lon="-2.69989">
        <ele>143</ele>
        <time>2017-01-17T05:42:38Z</time>
      </trkpt>
      <trkpt lat="47.83669" lon="-2.70019">
        <ele>144</ele>
        <time>2017-01-17T05:44:38Z</time>
      </trkpt>
      <trkpt lat="47.8366" lon="-2.70028">
        <ele>143</ele>
        <time>2017-01-17T05:46:38Z</time>
      </trkpt>
      <trkpt lat="47.83652" lon="-2.70037">
        <ele>142</ele>
        <time>2017-01-17T05:48:38Z</time>
      </trkpt>
      <trkpt lat="47.83643" lon="-2.70044">
        <ele>141</ele>
        <time>2017-01-17T05:50:38Z</time>
      </trkpt>
      <trkpt lat="47.83641" lon="-2.70061">
        <ele>140</ele>
        <time>2017-01-17T05:52:38Z</time>
      </trkpt>
      <trkpt lat="47.83642" lon="-2.7008">
        <ele>139</ele>
        <time>2017-01-17T05:54:38Z</time>
      </trkpt>
      <trkpt lat="47.83644" lon="-2.70099">
        <ele>138</ele>
        <time>2017-01-17T05:56:38Z</time>
      </trkpt>
      <trkpt lat="47.83648" lon="-2.70114">
        <ele>138</ele>
        <time>2017-01-17T05:58:38Z</time>
      </trkpt>
      <trkpt lat="47.83651" lon="-2.70132">
        <ele>138</ele>
        <time>2017-01-17T06:00:38Z</time>
      </trkpt>
      <trkpt lat="47.83654" lon="-2.70149">
        <ele>138</ele>
        <time>2017-01-17T06:02:38Z</time>
      </trkpt>
      <trkpt lat="47.83655" lon="-2.70163">
        <ele>137</ele>
        <time>2017-01-17T06:04:38Z</time>
      </trkpt>
      <trkpt lat="47.83657" lon="-2.70179">
        <ele>138</ele>
        <time>2017-01-17T06:06:38Z</time>
      </trkpt>
      <trkpt lat="47.83658" lon="-2.70193">
        <ele>138</ele>
        <time>2017-01-17T06:08:38Z</time>
      </trkpt>
      <trkpt lat="47.83664" lon="-2.70222">
        <ele>139</ele>
        <time>2017-01-17T06:10:38Z</time>
      </trkpt>
      <trkpt lat="47.83667" lon="-2.70237">
        <ele>140</ele>
        <time>2017-01-17T06:12:38Z</time>
      </trkpt>
      <trkpt lat="47.83669" lon="-2.70252">
        <ele>140</ele>
        <time>2017-01-17T06:14:38Z</time>
      </trkpt>
      <trkpt lat="47.83673" lon="-2.70267">
        <ele>140</ele>
        <time>2017-01-17T06:16:38Z</time>
      </trkpt>
      <trkpt lat="47.83677" lon="-2.70282">
        <ele>140</ele>
        <time>2017-01-17T06:18:38Z</time>
      </trkpt>
      <trkpt lat="47.83681" lon="-2.70297">
        <ele>140</ele>
        <time>2017-01-17T06:20:38Z</time>
      </trkpt>
      <trkpt lat="47.83684" lon="-2.70311">
        <ele>141</ele>
        <time>2017-01-17T06:22:38Z</time>
      </trkpt>
      <trkpt lat="47.83687" lon="-2.70324">
        <ele>141</ele>
        <time>2017-01-17T06:24:38Z</time>
      </trkpt>
      <trkpt lat="47.83691" lon="-2.70337">
        <ele>141</ele>
        <time>2017-01-17T06:26:38Z</time>
      </trkpt>
      <trkpt lat="47.83696" lon="-2.70348">
        <ele>141</ele>
        <time>2017-01-17T06:28:38Z</time>
      </trkpt>
      <trkpt lat="47.83701" lon="-2.7036">
        <ele>142</ele>
        <time>2017-01-17T06:30:38Z</time>
      </trkpt>
      <trkpt lat="47.83704" lon="-2.70374">
        <ele>142</ele>
        <time>2017-01-17T06:32:38Z</time>
      </trkpt>
      <trkpt lat="47.83706" lon="-2.70388">
        <ele>143</ele>
        <time>2017-01-17T06:34:38Z</time>
      </trkpt>
      <trkpt lat="47.8371" lon="-2.70402">
        <ele>144</ele>
        <time>2017-01-17T06:36:38Z</time>
      </trkpt>
      <trkpt lat="47.83714" lon="-2.70415">
        <ele>144</ele>
        <time>2017-01-17T06:38:38Z</time>
      </trkpt>
      <trkpt lat="47.83718" lon="-2.70446">
        <ele>144</ele>
        <time>2017-01-17T06:40:38Z</time>
      </trkpt>
      <trkpt lat="47.83727" lon="-2.70475">
        <ele>145</ele>
        <time>2017-01-17T06:42:38Z</time>
      </trkpt>
      <trkpt lat="47.83727" lon="-2.70489">
        <ele>145</ele>
        <time>2017-01-17T06:44:38Z</time>
      </trkpt>
      <trkpt lat="47.8373" lon="-2.70504">
        <ele>145</ele>
        <time>2017-01-17T06:46:38Z</time>
      </trkpt>
      <trkpt lat="47.83731" lon="-2.70519">
        <ele>144</ele>
        <time>2017-01-17T06:48:38Z</time>
      </trkpt>
      <trkpt lat="47.83734" lon="-2.70532">
        <ele>145</ele>
        <time>2017-01-17T06:50:38Z</time>
      </trkpt>
      <trkpt lat="47.83735" lon="-2.70544">
        <ele>144</ele>
        <time>2017-01-17T06:52:38Z</time>
      </trkpt>
      <trkpt lat="47.83733" lon="-2.70558">
        <ele>144</ele>
        <time>2017-01-17T06:54:38Z</time>
      </trkpt>
      <trkpt lat="47.83733" lon="-2.70572">
        <ele>143</ele>
        <time>2017-01-17T06:56:38Z</time>
      </trkpt>
      <trkpt lat="47.83732" lon="-2.70587">
        <ele>142</ele>
        <time>2017-01-17T06:58:38Z</time>
      </trkpt>
      <trkpt lat="47.83731" lon="-2.70601">
        <ele>142</ele>
        <time>2017-01-17T07:00:38Z</time>
      </trkpt>
      <trkpt lat="47.83738" lon="-2.70607">
        <ele>143</ele>
        <time>2017-01-17T07:02:38Z</time>
      </trkpt>
      <trkpt lat="47.83748" lon="-2.70611">
        <ele>145</ele>
        <time>2017-01-17T07:04:38Z</time>
      </trkpt>
      <trkpt lat="47.83753" lon="-2.70625">
        <ele>145</ele>
        <time>2017-01-17T07:06:38Z</time>
      </trkpt>
      <trkpt lat="47.83755" lon="-2.70643">
        <ele>145</ele>
        <time>2017-01-17T07:08:38Z</time>
      </trkpt>
      <trkpt lat="47.83756" lon="-2.70661">
        <ele>145</ele>
        <time>2017-01-17T07:10:38Z</time>
      </trkpt>
      <trkpt lat="47.8376" lon="-2.70676">
        <ele>145</ele>
        <time>2017-01-17T07:12:38Z</time>
      </trkpt>
      <trkpt lat="47.83764" lon="-2.70688">
        <ele>145</ele>
        <time>2017-01-17T07:14:38Z</time>
      </trkpt>
      <trkpt lat="47.83769" lon="-2.70699">
        <ele>146</ele>
        <time>2017-01-17T07:16:38Z</time>
      </trkpt>
      <trkpt lat="47.83776" lon="-2.70708">
        <ele>146</ele>
        <time>2017-01-17T07:18:38Z</time>
      </trkpt>
      <trkpt lat="47.83783" lon="-2.70717">
        <ele>146</ele>
        <time>2017-01-17T07:20:38Z</time>
      </trkpt>
      <trkpt lat="47.83792" lon="-2.70722">
        <ele>147</ele>
        <time>2017-01-17T07:22:38Z</time>
      </trkpt>
      <trkpt lat="47.83796" lon="-2.70739">
        <ele>148</ele>
        <time>2017-01-17T07:24:38Z</time>
      </trkpt>
      <trkpt lat="47.8379" lon="-2.70752">
        <ele>148</ele>
        <time>2017-01-17T07:26:38Z</time>
      </trkpt>
      <trkpt lat="47.83791" lon="-2.7077">
        <ele>148</ele>
        <time>2017-01-17T07:28:38Z</time>
      </trkpt>
      <trkpt lat="47.83794" lon="-2.70784">
        <ele>148</ele>
        <time>2017-01-17T07:30:38Z</time>
      </trkpt>
      <trkpt lat="47.83801" lon="-2.70794">
        <ele>149</ele>
        <time>2017-01-17T07:32:38Z</time>
      </trkpt>
      <trkpt lat="47.83806" lon="-2.70805">
        <ele>149</ele>
        <time>2017-01-17T07:34:38Z</time>
      </trkpt>
      <trkpt lat="47.83809" lon="-2.70817">
        <ele>150</ele>
        <time>2017-01-17T07:36:38Z</time>
      </trkpt>
      <trkpt lat="47.83811" lon="-2.70833">
        <ele>150</ele>
        <time>2017-01-17T07:38:38Z</time>
      </trkpt>
      <trkpt lat="47.83806" lon="-2.70846">
        <ele>149</ele>
        <time>2017-01-17T07:40:38Z</time>
      </trkpt>
      <trkpt lat="47.83798" lon="-2.70855">
        <ele>149</ele>
        <time>2017-01-17T07:42:38Z</time>
      </trkpt>
      <trkpt lat="47.83788" lon="-2.70862">
        <ele>148</ele>
        <time>2017-01-17T07:44:38Z</time>
      </trkpt>
      <trkpt lat="47.83788" lon="-2.70878">
        <ele>148</ele>
        <time>2017-01-17T07:46:38Z</time>
      </trkpt>
      <trkpt lat="47.83796" lon="-2.70893">
        <ele>148</ele>
        <time>2017-01-17T07:48:38Z</time>
      </trkpt>
      <trkpt lat="47.83803" lon="-2.70908">
        <ele>148</ele>
        <time>2017-01-17T07:50:38Z</time>
      </trkpt>
      <trkpt lat="47.83802" lon="-2.70924">
        <ele>148</ele>
        <time>2017-01-17T07:52:38Z</time>
      </trkpt>
      <trkpt lat="47.83796" lon="-2.70935">
        <ele>147</ele>
        <time>2017-01-17T07:54:38Z</time>
      </trkpt>
      <trkpt lat="47.83803" lon="-2.70984">
        <ele>147</ele>
        <time>2017-01-17T07:56:38Z</time>
      </trkpt>
      <trkpt lat="47.83804" lon="-2.71">
        <ele>147</ele>
        <time>2017-01-17T07:58:38Z</time>
      </trkpt>
      <trkpt lat="47.83807" lon="-2.71015">
        <ele>147</ele>
        <time>2017-01-17T08:00:38Z</time>
      </trkpt>
      <trkpt lat="47.83802" lon="-2.71033">
        <ele>146</ele>
        <time>2017-01-17T08:02:38Z</time>
      </trkpt>
      <trkpt lat="47.83801" lon="-2.71049">
        <ele>146</ele>
        <time>2017-01-17T08:04:38Z</time>
      </trkpt>
      <trkpt lat="47.838" lon="-2.71064">
        <ele>146</ele>
        <time>2017-01-17T08:06:38Z</time>
      </trkpt>
      <trkpt lat="47.83801" lon="-2.7108">
        <ele>146</ele>
        <time>2017-01-17T08:08:38Z</time>
      </trkpt>
      <trkpt lat="47.83808" lon="-2.71093">
        <ele>146</ele>
        <time>2017-01-17T08:10:38Z</time>
      </trkpt>
      <trkpt lat="47.83811" lon="-2.71108">
        <ele>146</ele>
        <time>2017-01-17T08:12:38Z</time>
      </trkpt>
      <trkpt lat="47.83818" lon="-2.71135">
        <ele>147</ele>
        <time>2017-01-17T08:14:38Z</time>
      </trkpt>
      <trkpt lat="47.83824" lon="-2.71163">
        <ele>148</ele>
        <time>2017-01-17T08:16:38Z</time>
      </trkpt>
      <trkpt lat="47.83829" lon="-2.71174">
        <ele>148</ele>
        <time>2017-01-17T08:18:38Z</time>
      </trkpt>
      <trkpt lat="47.83832" lon="-2.71189">
        <ele>148</ele>
        <time>2017-01-17T08:20:38Z</time>
      </trkpt>
      <trkpt lat="47.83837" lon="-2.71204">
        <ele>147</ele>
        <time>2017-01-17T08:22:38Z</time>
      </trkpt>
      <trkpt lat="47.83838" lon="-2.7122">
        <ele>146</ele>
        <time>2017-01-17T08:24:38Z</time>
      </trkpt>
      <trkpt lat="47.83843" lon="-2.71233">
        <ele>145</ele>
        <time>2017-01-17T08:26:38Z</time>
      </trkpt>
      <trkpt lat="47.83854" lon="-2.71243">
        <ele>144</ele>
        <time>2017-01-17T08:28:38Z</time>
      </trkpt>
      <trkpt lat="47.83861" lon="-2.71254">
        <ele>143</ele>
        <time>2017-01-17T08:30:38Z</time>
      </trkpt>
      <trkpt lat="47.83866" lon="-2.71267">
        <ele>143</ele>
        <time>2017-01-17T08:32:38Z</time>
      </trkpt>
      <trkpt lat="47.83868" lon="-2.71283">
        <ele>142</ele>
        <time>2017-01-17T08:34:38Z</time>
      </trkpt>
      <trkpt lat="47.83865" lon="-2.71298">
        <ele>141</ele>
        <time>2017-01-17T08:36:38Z</time>
      </trkpt>
      <trkpt lat="47.83861" lon="-2.71312">
        <ele>141</ele>
        <time>2017-01-17T08:38:38Z</time>
      </trkpt>
      <trkpt lat="47.83862" lon="-2.71327">
        <ele>140</ele>
        <time>2017-01-17T08:40:38Z</time>
      </trkpt>
      <trkpt lat="47.83867" lon="-2.71339">
        <ele>139</ele>
        <time>2017-01-17T08:42:38Z</time>
      </trkpt>
      <trkpt lat="47.8388" lon="-2.71364">
        <ele>139</ele>
        <time>2017-01-17T08:44:38Z</time>
      </trkpt>
      <trkpt lat="47.83888" lon="-2.71376">
        <ele>139</ele>
        <time>2017-01-17T08:46:38Z</time>
      </trkpt>
      <trkpt lat="47.83891" lon="-2.71393">
        <ele>138</ele>
        <time>2017-01-17T08:48:38Z</time>
      </trkpt>
      <trkpt lat="47.83896" lon="-2.71405">
        <ele>138</ele>
        <time>2017-01-17T08:50:38Z</time>
      </trkpt>
      <trkpt lat="47.83901" lon="-2.71419">
        <ele>138</ele>
        <time>2017-01-17T08:52:38Z</time>
      </trkpt>
      <trkpt lat="47.83903" lon="-2.71433">
        <ele>138</ele>
        <time>2017-01-17T08:54:38Z</time>
      </trkpt>
      <trkpt lat="47.83899" lon="-2.71447">
        <ele>137</ele>
        <time>2017-01-17T08:56:38Z</time>
      </trkpt>
      <trkpt lat="47.83901" lon="-2.71462">
        <ele>136</ele>
        <time>2017-01-17T08:58:38Z</time>
      </trkpt>
      <trkpt lat="47.83914" lon="-2.71499">
        <ele>135</ele>
        <time>2017-01-17T09:00:38Z</time>
      </trkpt>
      <trkpt lat="47.83917" lon="-2.71517">
        <ele>134</ele>
        <time>2017-01-17T09:02:38Z</time>
      </trkpt>
      <trkpt lat="47.83915" lon="-2.71532">
        <ele>133</ele>
        <time>2017-01-17T09:04:38Z</time>
      </trkpt>
      <trkpt lat="47.83915" lon="-2.71546">
        <ele>133</ele>
        <time>2017-01-17T09:06:38Z</time>
      </trkpt>
      <trkpt lat="47.83919" lon="-2.71561">
        <ele>132</ele>
        <time>2017-01-17T09:08:38Z</time>
      </trkpt>
      <trkpt lat="47.83921" lon="-2.71576">
        <ele>131</ele>
        <time>2017-01-17T09:10:38Z</time>
      </trkpt>
      <trkpt lat="47.83921" lon="-2.71591">
        <ele>130</ele>
        <time>2017-01-17T09:12:38Z</time>
      </trkpt>
      <trkpt lat="47.83923" lon="-2.71605">
        <ele>129</ele>
        <time>2017-01-17T09:14:38Z</time>
      </trkpt>
      <trkpt lat="47.83926" lon="-2.71617">
        <ele>128</ele>
        <time>2017-01-17T09:16:38Z</time>
      </trkpt>
      <trkpt lat="47.83925" lon="-2.71635">
        <ele>128</ele>
        <time>2017-01-17T09:18:38Z</time>
      </trkpt>
      <trkpt lat="47.83926" lon="-2.7165">
        <ele>127</ele>
        <time>2017-01-17T09:20:38Z</time>
      </trkpt>
      <trkpt lat="47.8393" lon="-2.71663">
        <ele>126</ele>
        <time>2017-01-17T09:22:38Z</time>
      </trkpt>
      <trkpt lat="47.83936" lon="-2.71674">
        <ele>124</ele>
        <time>2017-01-17T09:24:38Z</time>
      </trkpt>
      <trkpt lat="47.83944" lon="-2.71703">
        <ele>122</ele>
        <time>2017-01-17T09:26:38Z</time>
      </trkpt>
      <trkpt lat="47.8395" lon="-2.71715">
        <ele>121</ele>
        <time>2017-01-17T09:28:38Z</time>
      </trkpt>
      <trkpt lat="47.8396" lon="-2.71727">
        <ele>119</ele>
        <time>2017-01-17T09:30:38Z</time>
      </trkpt>
      <trkpt lat="47.83969" lon="-2.71725">
        <ele>118</ele>
        <time>2017-01-17T09:32:38Z</time>
      </trkpt>
      <trkpt lat="47.83975" lon="-2.71709">
        <ele>119</ele>
        <time>2017-01-17T09:34:38Z</time>
      </trkpt>
      <trkpt lat="47.83983" lon="-2.71691">
        <ele>119</ele>
        <time>2017-01-17T09:36:38Z</time>
      </trkpt>
      <trkpt lat="47.83991" lon="-2.71676">
        <ele>119</ele>
        <time>2017-01-17T09:38:38Z</time>
      </trkpt>
      <trkpt lat="47.84003" lon="-2.71669">
        <ele>118</ele>
        <time>2017-01-17T09:40:38Z</time>
      </trkpt>
      <trkpt lat="47.84023" lon="-2.71673">
        <ele>116</ele>
        <time>2017-01-17T09:42:38Z</time>
      </trkpt>
      <trkpt lat="47.8403" lon="-2.71684">
        <ele>115</ele>
        <time>2017-01-17T09:44:38Z</time>
      </trkpt>
      <trkpt lat="47.84032" lon="-2.71701">
        <ele>114</ele>
        <time>2017-01-17T09:46:38Z</time>
      </trkpt>
      <trkpt lat="47.84031" lon="-2.71715">
        <ele>114</ele>
        <time>2017-01-17T09:48:38Z</time>
      </trkpt>
      <trkpt lat="47.8403" lon="-2.71735">
        <ele>113</ele>
        <time>2017-01-17T09:50:38Z</time>
      </trkpt>
      <trkpt lat="47.84027" lon="-2.71751">
        <ele>113</ele>
        <time>2017-01-17T09:52:38Z</time>
      </trkpt>
      <trkpt lat="47.84025" lon="-2.71767">
        <ele>112</ele>
        <time>2017-01-17T09:54:38Z</time>
      </trkpt>
      <trkpt lat="47.84022" lon="-2.71785">
        <ele>111</ele>
        <time>2017-01-17T09:56:38Z</time>
      </trkpt>
      <trkpt lat="47.8402" lon="-2.71802">
        <ele>110</ele>
        <time>2017-01-17T09:58:38Z</time>
      </trkpt>
      <trkpt lat="47.84016" lon="-2.71821">
        <ele>108</ele>
        <time>2017-01-17T10:00:38Z</time>
      </trkpt>
      <trkpt lat="47.84026" lon="-2.71833">
        <ele>107</ele>
        <time>2017-01-17T10:02:38Z</time>
      </trkpt>
      <trkpt lat="47.84037" lon="-2.71837">
        <ele>107</ele>
        <time>2017-01-17T10:04:38Z</time>
      </trkpt>
      <trkpt lat="47.84048" lon="-2.71841">
        <ele>107</ele>
        <time>2017-01-17T10:06:38Z</time>
      </trkpt>
      <trkpt lat="47.84056" lon="-2.7185">
        <ele>107</ele>
        <time>2017-01-17T10:08:38Z</time>
      </trkpt>
      <trkpt lat="47.84063" lon="-2.7186">
        <ele>107</ele>
        <time>2017-01-17T10:10:38Z</time>
      </trkpt>
      <trkpt lat="47.8407" lon="-2.71869">
        <ele>107</ele>
        <time>2017-01-17T10:12:38Z</time>
      </trkpt>
      <trkpt lat="47.84091" lon="-2.71901">
        <ele>107</ele>
        <time>2017-01-17T10:14:38Z</time>
      </trkpt>
      <trkpt lat="47.84104" lon="-2.71924">
        <ele>109</ele>
        <time>2017-01-17T10:16:38Z</time>
      </trkpt>
      <trkpt lat="47.84111" lon="-2.71937">
        <ele>110</ele>
        <time>2017-01-17T10:18:38Z</time>
      </trkpt>
      <trkpt lat="47.84122" lon="-2.71941">
        <ele>110</ele>
        <time>2017-01-17T10:20:38Z</time>
      </trkpt>
      <trkpt lat="47.84132" lon="-2.71943">
        <ele>111</ele>
        <time>2017-01-17T10:22:38Z</time>
      </trkpt>
      <trkpt lat="47.84142" lon="-2.71948">
        <ele>111</ele>
        <time>2017-01-17T10:24:38Z</time>
      </trkpt>
      <trkpt lat="47.84154" lon="-2.7197">
        <ele>112</ele>
        <time>2017-01-17T10:26:38Z</time>
      </trkpt>
      <trkpt lat="47.84157" lon="-2.71982">
        <ele>113</ele>
        <time>2017-01-17T10:28:38Z</time>
      </trkpt>
      <trkpt lat="47.84157" lon="-2.71997">
        <ele>113</ele>
        <time>2017-01-17T10:30:38Z</time>
      </trkpt>
      <trkpt lat="47.84157" lon="-2.7201">
        <ele>113</ele>
        <time>2017-01-17T10:32:38Z</time>
      </trkpt>
      <trkpt lat="47.84155" lon="-2.72025">
        <ele>114</ele>
        <time>2017-01-17T10:34:38Z</time>
      </trkpt>
      <trkpt lat="47.84151" lon="-2.72055">
        <ele>114</ele>
        <time>2017-01-17T10:36:38Z</time>
      </trkpt>
      <trkpt lat="47.8415" lon="-2.72068">
        <ele>115</ele>
        <time>2017-01-17T10:38:38Z</time>
      </trkpt>
      <trkpt lat="47.84149" lon="-2.72082">
        <ele>115</ele>
        <time>2017-01-17T10:40:38Z</time>
      </trkpt>
      <trkpt lat="47.8415" lon="-2.72099">
        <ele>115</ele>
        <time>2017-01-17T10:42:38Z</time>
      </trkpt>
      <trkpt lat="47.84153" lon="-2.72116">
        <ele>115</ele>
        <time>2017-01-17T10:44:38Z</time>
      </trkpt>
      <trkpt lat="47.84152" lon="-2.72132">
        <ele>116</ele>
        <time>2017-01-17T10:46:38Z</time>
      </trkpt>
      <trkpt lat="47.84151" lon="-2.7215">
        <ele>116</ele>
        <time>2017-01-17T10:48:38Z</time>
      </trkpt>
      <trkpt lat="47.8415" lon="-2.72162">
        <ele>116</ele>
        <time>2017-01-17T10:50:38Z</time>
      </trkpt>
      <trkpt lat="47.84149" lon="-2.72177">
        <ele>117</ele>
        <time>2017-01-17T10:52:38Z</time>
      </trkpt>
      <trkpt lat="47.84148" lon="-2.72192">
        <ele>117</ele>
        <time>2017-01-17T10:54:38Z</time>
      </trkpt>
      <trkpt lat="47.84145" lon="-2.72206">
        <ele>118</ele>
        <time>2017-01-17T10:56:38Z</time>
      </trkpt>
      <trkpt lat="47.84136" lon="-2.72214">
        <ele>118</ele>
        <time>2017-01-17T10:58:38Z</time>
      </trkpt>
      <trkpt lat="47.84127" lon="-2.7222">
        <ele>119</ele>
        <time>2017-01-17T11:00:38Z</time>
      </trkpt>
      <trkpt lat="47.84117" lon="-2.72224">
        <ele>119</ele>
        <time>2017-01-17T11:02:38Z</time>
      </trkpt>
      <trkpt lat="47.84107" lon="-2.72229">
        <ele>120</ele>
        <time>2017-01-17T11:04:38Z</time>
      </trkpt>
      <trkpt lat="47.84097" lon="-2.72233">
        <ele>120</ele>
        <time>2017-01-17T11:06:38Z</time>
      </trkpt>
      <trkpt lat="47.84087" lon="-2.72234">
        <ele>121</ele>
        <time>2017-01-17T11:08:38Z</time>
      </trkpt>
      <trkpt lat="47.84077" lon="-2.72238">
        <ele>121</ele>
        <time>2017-01-17T11:10:38Z</time>
      </trkpt>
      <trkpt lat="47.84071" lon="-2.72251">
        <ele>122</ele>
        <time>2017-01-17T11:12:38Z</time>
      </trkpt>
      <trkpt lat="47.84069" lon="-2.72286">
        <ele>124</ele>
        <time>2017-01-17T11:14:38Z</time>
      </trkpt>
      <trkpt lat="47.84071" lon="-2.72305">
        <ele>125</ele>
        <time>2017-01-17T11:16:38Z</time>
      </trkpt>
      <trkpt lat="47.84069" lon="-2.72322">
        <ele>126</ele>
        <time>2017-01-17T11:18:38Z</time>
      </trkpt>
      <trkpt lat="47.8407" lon="-2.72338">
        <ele>127</ele>
        <time>2017-01-17T11:20:38Z</time>
      </trkpt>
      <trkpt lat="47.8407" lon="-2.72354">
        <ele>129</ele>
        <time>2017-01-17T11:22:38Z</time>
      </trkpt>
      <trkpt lat="47.84068" lon="-2.72369">
        <ele>130</ele>
        <time>2017-01-17T11:24:38Z</time>
      </trkpt>
      <trkpt lat="47.84069" lon="-2.72386">
        <ele>131</ele>
        <time>2017-01-17T11:26:38Z</time>
      </trkpt>
      <trkpt lat="47.84069" lon="-2.72401">
        <ele>133</ele>
        <time>2017-01-17T11:28:38Z</time>
      </trkpt>
      <trkpt lat="47.84071" lon="-2.72429">
        <ele>134</ele>
        <time>2017-01-17T11:30:38Z</time>
      </trkpt>
      <trkpt lat="47.84073" lon="-2.72446">
        <ele>135</ele>
        <time>2017-01-17T11:32:38Z</time>
      </trkpt>
      <trkpt lat="47.84071" lon="-2.72464">
        <ele>135</ele>
        <time>2017-01-17T11:34:38Z</time>
      </trkpt>
      <trkpt lat="47.84072" lon="-2.72479">
        <ele>135</ele>
        <time>2017-01-17T11:36:38Z</time>
      </trkpt>
      <trkpt lat="47.84074" lon="-2.72493">
        <ele>136</ele>
        <time>2017-01-17T11:38:38Z</time>
      </trkpt>
      <trkpt lat="47.84076" lon="-2.72507">
        <ele>136</ele>
        <time>2017-01-17T11:40:38Z</time>
      </trkpt>
      <trkpt lat="47.84076" lon="-2.72522">
        <ele>136</ele>
        <time>2017-01-17T11:42:38Z</time>
      </trkpt>
      <trkpt lat="47.84075" lon="-2.72537">
        <ele>136</ele>
        <time>2017-01-17T11:44:38Z</time>
      </trkpt>
      <trkpt lat="47.84075" lon="-2.72551">
        <ele>136</ele>
        <time>2017-01-17T11:46:38Z</time>
      </trkpt>
      <trkpt lat="47.84073" lon="-2.72566">
        <ele>136</ele>
        <time>2017-01-17T11:48:38Z</time>
      </trkpt>
      <trkpt lat="47.84075" lon="-2.7258">
        <ele>136</ele>
        <time>2017-01-17T11:50:38Z</time>
      </trkpt>
      <trkpt lat="47.84076" lon="-2.72594">
        <ele>137</ele>
        <time>2017-01-17T11:52:38Z</time>
      </trkpt>
      <trkpt lat="47.84078" lon="-2.72608">
        <ele>137</ele>
        <time>2017-01-17T11:54:38Z</time>
      </trkpt>
      <trkpt lat="47.84079" lon="-2.72622">
        <ele>137</ele>
        <time>2017-01-17T11:56:38Z</time>
      </trkpt>
      <trkpt lat="47.84083" lon="-2.72634">
        <ele>138</ele>
        <time>2017-01-17T11:58:38Z</time>
      </trkpt>
    </trkseg>
  </trk>
</gpx>